[[{"header":{"parameterUnit":"m.s-1","parameterCategory":1,"la1":30.6,"la2":28.766,"lo1":-90.7593,"lo2":-88.6598,"dy":0.0162,"dx":0.0183,"nx":116,"ny":114,"refTime":"2023-08-20T06:00:00:Z","depth":0,"parameterNumber":2,"parameterNumberName":"U-component_of_WINDS"},"data":[0.0,0.0,0.0,0.0,0.0,0.0,0.0,0.0,0.0,0.0,0.0,0.0,0.0,0.0,0.0,0.0,0.0,0.0,0.0,0.0,0.0,0.0,0.0,0.0,0.0,0.0,0.0,0.0,0.0,0.0,0.0,0.0,0.0,0.0,0.0,0.0,0.0,0.0,0.0,0.0,0.0,0.0,0.0,0.0,0.0,0.0,0.0,0.0,0.0,0.0,0.0,0.0,0.0,0.0,0.0,0.0,0.0,0.0,0.0,0.0,0.0,0.0,0.0,0.0,0.0,0.0,0.0,0.0,0.0,0.0,0.0,0.0,0.0,0.0,0.0,0.0,0.0,0.0,0.0,0.0,0.0,0.0,0.0,0.0,0.0,0.0,0.0,0.0,0.0,0.0,0.0,0.0,0.0,0.0,0.0,0.0,0.0,0.0,0.0,0.0,0.0,0.0,0.0,0.0,0.0,0.0,0.0,0.0,0.0,0.0,0.0,0.0,0.0,0.0,0.0,0.0,0.0,0.0,0.0,0.0,0.0,0.0,0.0,0.0,0.0,0.0,0.0,0.0,0.0,0.0,0.0,0.0,0.0,0.0,0.0,0.0,0.0,0.0,0.0,0.0,0.0,0.0,0.0,0.0,0.0,0.0,0.0,0.0,0.0,0.0,0.0,0.0,0.0,0.0,0.0,0.0,0.0,0.0,0.0,0.0,0.0,0.0,0.0,0.0,0.0,0.0,0.0,0.0,0.0,0.0,0.0,0.0,0.0,0.0,0.0,0.0,0.0,0.0,0.0,0.0,0.0,0.0,0.0,0.0,0.0,0.0,0.0,0.0,0.0,0.0,0.0,0.0,0.0,0.0,0.0,0.0,0.0,0.0,0.0,0.0,0.0,0.0,0.0,0.0,0.0,0.0,0.0,0.0,0.0,0.0,0.0,0.0,0.0,0.0,0.0,0.0,0.0,0.0,0.0,0.0,0.0,0.0,0.0,0.0,0.0,0.0,0.0,0.0,0.0,0.0,0.0,0.0,0.0,0.0,0.0,0.0,0.0,0.0,0.0,0.0,0.0,0.0,0.0,0.0,0.0,0.0,0.0,0.0,0.0,0.0,0.0,0.0,0.0,0.0,0.0,0.0,0.0,0.0,0.0,0.0,0.0,0.0,0.0,0.0,0.0,0.0,0.0,0.0,0.0,0.0,0.0,0.0,0.0,0.0,0.0,0.0,0.0,0.0,0.0,0.0,0.0,0.0,0.0,0.0,0.0,0.0,0.0,0.0,0.0,0.0,0.0,0.0,0.0,0.0,0.0,0.0,0.0,0.0,0.0,0.0,0.0,0.0,0.0,0.0,0.0,0.0,0.0,0.0,0.0,0.0,0.0,0.0,0.0,0.0,0.0,0.0,0.0,0.0,0.0,0.0,0.0,0.0,0.0,0.0,0.0,0.0,0.0,0.0,0.0,0.0,0.0,0.0,0.0,0.0,0.0,0.0,0.0,0.0,0.0,0.0,0.0,0.0,0.0,0.0,0.0,0.0,0.0,0.0,0.0,0.0,0.0,0.0,0.0,0.0,0.0,0.0,0.0,0.0,0.0,0.0,0.0,0.0,0.0,0.0,0.0,0.0,0.0,0.0,0.0,0.0,0.0,0.0,0.0,0.0,0.0,0.0,0.0,0.0,0.0,0.0,0.0,0.0,0.0,0.0,0.0,0.0,0.0,0.0,0.0,0.0,0.0,0.0,0.0,0.0,0.0,0.0,0.0,0.0,0.0,0.0,0.0,0.0,0.0,0.0,0.0,0.0,0.0,0.0,0.0,0.0,0.0,0.0,0.0,0.0,0.0,0.0,0.0,0.0,0.0,0.0,0.0,0.0,0.0,0.0,0.0,0.0,0.0,0.0,0.0,0.0,0.0,0.0,0.0,0.0,0.0,0.0,0.0,0.0,0.0,0.0,0.0,0.0,0.0,0.0,0.0,0.0,0.0,0.0,0.0,0.0,0.0,0.0,0.0,0.0,0.0,0.0,0.0,0.0,0.0,0.0,0.0,0.0,0.0,0.0,0.0,0.0,0.0,0.0,0.0,0.0,0.0,0.0,0.0,0.0,0.0,0.0,0.0,0.0,0.0,0.0,0.0,0.0,0.0,0.0,0.0,0.0,0.0,0.0,0.0,0.0,0.0,0.0,0.0,0.0,0.0,0.0,0.0,0.0,0.0,0.0,0.0,0.0,0.0,0.0,0.0,0.0,0.0,0.0,0.0,0.0,0.0,0.0,0.0,0.0,0.0,0.0,0.0,0.0,0.0,0.0,0.0,0.0,0.0,0.0,0.0,0.0,0.0,0.0,0.0,0.0,0.0,0.0,0.0,0.0,0.0,0.0,0.0,0.0,0.0,0.0,0.0,0.0,0.0,0.0,0.0,0.0,0.0,0.0,0.0,0.0,0.0,0.0,0.0,0.0,0.0,0.0,0.0,0.0,0.0,0.0,0.0,0.0,0.0,0.0,0.0,0.0,0.0,0.0,0.0,0.0,0.0,0.0,0.0,0.0,0.0,0.0,0.0,0.0,0.0,0.0,0.0,0.0,0.0,0.0,0.0,0.0,0.0,0.0,0.0,0.0,0.0,0.0,0.0,0.0,0.0,0.0,0.0,0.0,0.0,0.0,0.0,0.0,0.0,0.0,0.0,0.0,0.0,0.0,0.0,0.0,0.0,0.0,0.0,0.0,0.0,0.0,0.0,0.0,0.0,0.0,0.0,0.0,0.0,0.0,0.0,0.0,0.0,0.0,0.0,0.0,0.0,0.0,0.0,0.0,0.0,0.0,0.0,0.0,0.0,0.0,0.0,0.0,0.0,0.0,0.0,0.0,0.0,0.0,0.0,0.0,0.0,0.0,0.0,0.0,0.0,0.0,0.0,0.0,0.0,0.0,0.0,0.0,0.0,0.0,0.0,0.0,0.0,0.0,0.0,0.0,0.0,0.0,0.0,0.0,0.0,0.0,0.0,0.0,0.0,0.0,0.0,0.0,0.0,0.0,0.0,0.0,0.0,0.0,0.0,0.0,0.0,0.0,0.0,0.0,0.0,0.0,0.0,0.0,0.0,0.0,0.0,0.0,0.0,0.0,0.0,0.0,0.0,0.0,0.0,0.0,0.0,0.0,0.0,0.0,0.0,0.0,0.0,0.0,0.0,0.0,0.0,0.0,0.0,0.0,0.0,0.0,0.0,0.0,0.0,0.0,0.0,0.0,0.0,0.0,0.0,0.0,0.0,0.0,0.0,0.0,0.0,0.0,0.0,0.0,0.0,0.0,0.0,0.0,0.0,0.0,0.0,0.0,0.0,0.0,0.0,0.0,0.0,0.0,0.0,0.0,0.0,0.0,0.0,0.0,0.0,0.0,0.0,0.0,0.0,0.0,0.0,0.0,0.0,0.0,0.0,0.0,0.0,0.0,0.0,0.0,0.0,0.0,0.0,0.0,0.0,0.0,0.0,0.0,0.0,0.0,0.0,0.0,0.0,0.0,0.0,0.0,0.0,0.0,0.0,0.0,0.0,0.0,0.0,0.0,0.0,0.0,0.0,0.0,0.0,0.0,0.0,0.0,0.0,0.0,0.0,0.0,0.0,0.0,0.0,0.0,0.0,0.0,0.0,0.0,0.0,0.0,0.0,0.0,0.0,0.0,0.0,0.0,0.0,0.0,0.0,0.0,0.0,0.0,0.0,0.0,0.0,0.0,0.0,0.0,0.0,0.0,0.0,0.0,0.0,0.0,0.0,0.0,0.0,0.0,0.0,0.0,0.0,0.0,0.0,0.0,0.0,0.0,0.0,0.0,0.0,0.0,0.0,0.0,0.0,0.0,0.0,0.0,0.0,0.0,0.0,0.0,0.0,0.0,0.0,0.0,0.0,0.0,0.0,0.0,0.0,0.0,0.0,0.0,0.0,0.0,0.0,0.0,0.0,0.0,0.0,0.0,0.0,0.0,0.0,0.0,0.0,0.0,0.0,0.0,0.0,0.0,0.0,0.0,0.0,0.0,0.0,0.0,0.0,0.0,0.0,0.0,0.0,0.0,0.0,0.0,0.0,0.0,0.0,0.0,0.0,0.0,0.0,0.0,0.0,0.0,0.0,0.0,0.0,0.0,0.0,0.0,0.0,0.0,0.0,0.0,0.0,0.0,0.0,0.0,0.0,0.0,0.0,0.0,0.0,0.0,0.0,0.0,0.0,0.0,0.0,0.0,0.0,0.0,0.0,0.0,0.0,0.0,0.0,0.0,0.0,0.0,0.0,0.0,0.0,0.0,0.0,0.0,0.0,0.0,0.0,0.0,0.0,0.0,0.0,0.0,0.0,0.0,0.0,0.0,0.0,0.0,0.0,0.0,0.0,0.0,0.0,0.0,0.0,0.0,0.0,0.0,0.0,0.0,0.0,0.0,0.0,0.0,0.0,0.0,0.0,0.0,0.0,0.0,0.0,0.0,0.0,0.0,0.0,0.0,0.0,0.0,0.0,0.0,0.0,0.0,0.0,0.0,0.0,0.0,0.0,0.0,0.0,0.0,0.0,0.0,0.0,0.0,0.0,0.0,0.0,0.0,0.0,0.0,0.0,0.0,0.0,0.0,0.0,0.0,0.0,0.0,0.0,0.0,0.0,0.0,0.0,0.0,0.0,0.0,0.0,0.0,0.0,0.0,0.0,0.0,0.0,0.0,0.0,0.0,0.0,0.0,0.0,0.0,0.0,0.0,0.0,0.0,0.0,0.0,0.0,0.0,0.0,0.0,0.0,0.0,0.0,0.0,0.0,0.0,0.0,0.0,0.0,0.0,0.0,0.0,0.0,0.0,0.0,0.0,0.0,0.0,0.0,0.0,0.0,0.0,0.0,0.0,0.0,0.0,0.0,0.0,0.0,0.0,0.0,0.0,0.0,0.0,0.0,0.0,0.0,0.0,0.0,0.0,0.0,0.0,0.0,0.0,0.0,0.0,0.0,0.0,0.0,0.0,0.0,0.0,0.0,0.0,0.0,0.0,0.0,0.0,0.0,0.0,0.0,0.0,0.0,0.0,0.0,0.0,0.0,0.0,0.0,0.0,0.0,0.0,0.0,0.0,0.0,0.0,0.0,0.0,0.0,0.0,0.0,0.0,0.0,0.0,0.0,0.0,0.0,0.0,0.0,0.0,0.0,0.0,0.0,0.0,0.0,0.0,0.0,0.0,0.0,0.0,0.0,0.0,0.0,0.0,0.0,0.0,0.0,0.0,0.0,0.0,0.0,0.0,0.0,0.0,0.0,0.0,0.0,0.0,0.0,0.0,0.0,0.0,0.0,0.0,0.0,0.0,0.0,0.0,0.0,0.0,0.0,0.0,0.0,0.0,0.0,0.0,0.0,0.0,0.0,0.0,0.0,0.0,0.0,0.0,0.0,0.0,0.0,0.0,0.0,0.0,0.0,0.0,0.0,0.0,0.0,0.0,0.0,0.0,0.0,0.0,0.0,0.0,0.0,0.0,0.0,0.0,0.0,0.0,0.0,0.0,0.0,0.0,0.0,0.0,0.0,0.0,0.0,0.0,0.0,0.0,0.0,0.0,0.0,0.0,0.0,0.0,0.0,0.0,0.0,0.0,0.0,0.0,0.0,0.0,0.0,0.0,0.0,0.0,0.0,0.0,0.0,0.0,0.0,0.0,0.0,0.0,0.0,0.0,0.0,0.0,0.0,0.0,0.0,0.0,0.0,0.0,0.0,0.0,0.0,0.0,0.0,0.0,0.0,0.0,0.0,0.0,0.0,0.0,0.0,0.0,0.0,0.0,0.0,0.0,0.0,0.0,0.0,0.0,0.0,0.0,0.0,0.0,0.0,0.0,0.0,0.0,0.0,0.0,0.0,0.0,0.0,0.0,0.0,0.0,0.0,0.0,0.0,0.0,0.0,0.0,0.0,0.0,0.0,0.0,0.0,0.0,0.0,0.0,0.0,0.0,0.0,0.0,0.0,0.0,0.0,0.0,0.0,0.0,0.0,0.0,0.0,0.0,0.0,0.0,0.0,0.0,0.0,0.0,0.0,0.0,0.0,0.0,0.0,0.0,0.0,0.0,0.0,0.0,0.0,0.0,0.0,0.0,-1.6882,0.0,0.0,0.0,0.0,0.0,0.0,0.0,0.0,0.0,0.0,0.0,0.0,0.0,0.0,0.0,0.0,0.0,0.0,0.0,0.0,0.0,0.0,0.0,0.0,0.0,0.0,0.0,0.0,0.0,0.0,0.0,0.0,0.0,0.0,0.0,0.0,0.0,0.0,-1.7139,-1.7762,-1.7688,-1.7013,-1.6951,-1.6284,-1.5123,0.0,0.0,0.0,0.0,0.0,0.0,0.0,0.0,0.0,0.0,0.0,0.0,0.0,0.0,0.0,0.0,0.0,0.0,0.0,0.0,0.0,0.0,0.0,0.0,0.0,0.0,0.0,0.0,0.0,0.0,0.0,0.0,0.0,0.0,0.0,0.0,0.0,0.0,0.0,0.0,0.0,0.0,0.0,0.0,0.0,0.0,0.0,0.0,0.0,0.0,0.0,0.0,0.0,0.0,0.0,0.0,0.0,0.0,0.0,0.0,0.0,0.0,0.0,0.0,0.0,0.0,0.0,0.0,0.0,0.0,0.0,-1.8008,0.0,0.0,0.0,0.0,0.0,0.0,0.0,0.0,0.0,0.0,0.0,0.0,0.0,0.0,0.0,0.0,0.0,0.0,0.0,0.0,0.0,0.0,0.0,-1.4522,-1.5021,-1.6329,-1.6404,-1.6228,0.0,0.0,0.0,0.0,0.0,0.0,-1.4525,-1.5682,-1.6569,-1.7132,-1.7534,-1.7933,-1.8405,-1.902,-1.8289,-1.6505,-1.6301,0.0,0.0,0.0,0.0,0.0,0.0,0.0,0.0,0.0,0.0,0.0,0.0,0.0,0.0,0.0,0.0,0.0,0.0,0.0,0.0,0.0,0.0,0.0,0.0,0.0,0.0,0.0,0.0,0.0,0.0,0.0,0.0,0.0,0.0,0.0,0.0,0.0,0.0,0.0,0.0,0.0,0.0,0.0,0.0,0.0,0.0,0.0,0.0,0.0,0.0,0.0,0.0,0.0,0.0,0.0,0.0,0.0,0.0,0.0,0.0,0.0,0.0,0.0,-2.427,-2.4699,-2.5195,-2.5273,-2.5137,-2.4668,-2.2441,-2.0898,-1.9922,-1.9299,0.0,0.0,0.0,0.0,0.0,0.0,0.0,0.0,0.0,0.0,0.0,0.0,0.0,0.0,0.0,0.0,0.0,0.0,0.0,0.0,0.0,-1.4522,-1.4888,-1.5819,-1.5472,-1.5377,-1.5805,0.0,0.0,0.0,0.0,0.0,-1.4184,-1.4583,-1.4998,-1.5342,-1.6649,-1.8316,-2.0351,-1.9931,-1.9699,-1.9492,-1.7522,-1.712,-1.7769,0.0,0.0,0.0,0.0,0.0,0.0,0.0,0.0,0.0,0.0,0.0,0.0,0.0,0.0,0.0,0.0,0.0,0.0,0.0,0.0,0.0,0.0,0.0,0.0,0.0,0.0,0.0,0.0,0.0,0.0,0.0,0.0,0.0,0.0,0.0,0.0,0.0,0.0,0.0,0.0,0.0,-1.7871,-1.8149,0.0,0.0,0.0,0.0,0.0,0.0,0.0,0.0,0.0,0.0,0.0,0.0,0.0,-2.4922,-2.5703,-2.7226,-2.7676,-2.7141,-2.8965,-2.9336,-2.834,-2.8711,-2.8922,-2.8769,-2.8047,0.0,-2.2496,-2.1327,0.0,0.0,0.0,0.0,0.0,0.0,0.0,0.0,0.0,0.0,0.0,0.0,0.0,0.0,0.0,0.0,0.0,0.0,0.0,0.0,0.0,-1.5792,-1.6353,-1.7248,-1.7849,-1.7716,-1.6647,-1.6807,0.0,0.0,0.0,-1.471,-1.4633,-1.487,-1.5645,-1.6941,-1.9065,-2.0761,-2.1943,-2.2173,-2.2432,-2.2645,-2.1109,-1.98,-1.8651,-1.7275,0.0,0.0,0.0,0.0,0.0,0.0,0.0,0.0,0.0,0.0,0.0,0.0,0.0,0.0,0.0,0.0,0.0,0.0,0.0,0.0,0.0,0.0,0.0,0.0,0.0,0.0,0.0,0.0,0.0,0.0,0.0,0.0,0.0,0.0,0.0,0.0,0.0,0.0,0.0,-1.8906,-1.9902,-1.9102,-2.0469,-2.1055,0.0,0.0,0.0,0.0,0.0,0.0,0.0,0.0,0.0,-2.6289,-2.7871,-2.8887,-2.9277,-3.0723,-3.1269,-3.0918,-3.1855,-3.2012,-3.1445,-3.1406,-3.1387,-3.1367,-3.0937,-2.9648,-2.7656,-2.5156,-2.3555,-2.2519,0.0,0.0,0.0,0.0,-2.0937,-2.1211,0.0,0.0,0.0,0.0,0.0,0.0,0.0,0.0,0.0,0.0,0.0,0.0,-1.6509,-1.7192,-1.8063,-1.9279,-2.0174,-2.0027,-1.8546,-1.8303,-1.7475,-1.5759,-1.5316,-1.5115,-1.5115,-1.5872,-1.7315,-1.9386,-2.1724,-2.31,-2.3554,-2.4449,-2.4983,-2.517,-2.4516,-2.2832,-2.0414,-1.9088,-1.7675,-1.6112,0.0,0.0,0.0,0.0,0.0,0.0,0.0,0.0,0.0,0.0,0.0,0.0,0.0,0.0,0.0,0.0,0.0,0.0,0.0,0.0,0.0,0.0,0.0,0.0,0.0,0.0,0.0,0.0,0.0,0.0,0.0,0.0,0.0,0.0,0.0,0.0,0.0,-2.0898,-2.1973,-2.0469,-2.2852,-2.3834,0.0,0.0,0.0,0.0,0.0,0.0,-2.6515,-2.7676,-2.8769,-2.9746,-3.1426,-3.2441,-3.2676,-3.3613,-3.4082,-3.4082,-3.4082,-3.4023,-3.3906,-3.3594,-3.334,-3.3105,-3.2793,-3.2344,-3.1601,-2.8359,-2.6269,-2.4961,-2.3574,-2.291,-2.273,-2.3301,-2.3574,-2.3809,0.0,0.0,0.0,0.0,0.0,0.0,0.0,0.0,0.0,0.0,0.0,-1.5284,-1.7301,-1.8063,-1.9345,-2.1617,-2.1122,-2.0975,-2.1697,-1.9158,-1.7569,-1.7448,-1.6112,-1.5378,-1.5378,-1.7595,-1.9746,-2.1804,-2.3354,-2.4543,-2.5398,-2.6279,-2.6694,-2.6707,-2.6667,-2.5945,-2.4569,-2.1443,-1.9907,-1.9305,-1.6486,0.0,0.0,0.0,0.0,0.0,0.0,0.0,0.0,0.0,0.0,0.0,0.0,0.0,0.0,0.0,0.0,0.0,0.0,0.0,0.0,0.0,0.0,0.0,0.0,0.0,0.0,0.0,0.0,0.0,0.0,0.0,0.0,0.0,0.0,0.0,0.0,0.0,0.0,-2.3129,-2.6309,0.0,0.0,0.0,0.0,-2.6719,-2.7891,-2.918,-3.0527,-3.1426,-3.248,-3.375,-3.4277,-3.4941,-3.5781,-3.5859,-3.5879,-3.5879,-3.5879,-3.5684,-3.5293,-3.5273,-3.4805,-3.4004,-3.3984,-3.3496,-3.2519,-2.9883,-2.873,-2.8496,-2.6816,-2.6387,-2.668,-2.6328,-2.6445,-2.668,0.0,0.0,0.0,0.0,0.0,0.0,0.0,0.0,-1.4469,-1.4763,-1.5792,-1.7128,-1.8824,-2.0561,-2.2245,-2.3834,-2.4382,-2.4209,-2.3193,-2.132,-1.988,-1.9319,-1.7515,-1.7286,-1.8758,-2.0174,-2.1911,-2.3981,-2.5264,-2.6239,-2.6921,-2.7241,-2.7482,-2.7655,-2.7468,-2.7161,-2.66,-2.4115,-2.2124,-2.0481,-1.8677,-1.6901,0.0,0.0,0.0,0.0,0.0,0.0,0.0,0.0,0.0,0.0,0.0,0.0,0.0,0.0,0.0,0.0,0.0,0.0,0.0,0.0,0.0,0.0,0.0,0.0,0.0,0.0,0.0,0.0,0.0,0.0,0.0,0.0,0.0,0.0,0.0,0.0,0.0,-2.7617,-3.0137,0.0,-2.8965,-2.9082,-2.9687,-3.0664,-3.1406,-3.2519,-3.4101,-3.5,-3.5801,-3.6523,-3.7226,-3.7617,-3.7656,-3.793,-3.7656,-3.6836,-3.7109,-3.6738,-3.5801,-3.5801,-3.5312,-3.4453,-3.4199,-3.373,-3.3105,-3.1914,-3.0937,-3.0078,-2.8887,-2.8359,-2.8223,-2.8066,-2.8105,-2.8242,0.0,0.0,0.0,0.0,0.0,0.0,0.0,0.0,-1.4736,-1.537,-1.6767,-1.849,-2.0468,-2.2712,-2.4623,-2.5999,-2.6734,-2.6453,-2.4903,-2.2859,-2.1349,-2.0561,-1.9025,-1.9105,-2.1082,-2.2472,-2.4048,-2.5812,-2.6894,-2.7722,-2.8297,-2.8297,-2.8404,-2.8591,-2.839,-2.8243,-2.8056,-2.648,-2.4462,-2.2178,-2.0695,-1.9225,-1.7689,0.0,0.0,0.0,0.0,0.0,0.0,0.0,0.0,0.0,0.0,0.0,0.0,0.0,0.0,0.0,0.0,0.0,0.0,0.0,0.0,0.0,0.0,0.0,0.0,0.0,0.0,0.0,0.0,0.0,0.0,0.0,0.0,0.0,0.0,-2.8125,-3.0273,-3.0996,-3.3359,-3.4258,-3.2539,-3.2656,-3.3262,-3.4238,-3.4844,-3.5723,-3.7031,-3.7773,-3.8301,-3.8574,-3.8984,-3.9062,-3.8789,-3.8926,-3.8496,-3.75,-3.7656,-3.7187,-3.623,-3.6094,-3.5527,-3.4687,-3.4394,-3.3965,-3.3398,-3.3125,-3.2422,-3.1445,-3.0566,-2.9961,-2.959,-2.959,-2.959,-2.9609,0.0,0.0,0.0,0.0,0.0,0.0,0.0,-1.4466,-1.4937,-1.6147,-1.7355,-1.9168,-2.2111,-2.4315,-2.6279,-2.8087,-2.7869,-2.7442,-2.6854,-2.3781,-2.1724,-2.1149,-2.0628,-2.0922,-2.2111,-2.4396,-2.6146,-2.7321,-2.8203,-2.8925,-2.9486,-2.9499,-2.9499,-2.9499,-2.9499,-2.9339,-2.9032,-2.8444,-2.6881,-2.4609,-2.2512,-2.147,-2.0842,0.0,0.0,0.0,0.0,0.0,0.0,0.0,0.0,0.0,0.0,0.0,0.0,0.0,0.0,0.0,0.0,0.0,0.0,0.0,0.0,0.0,0.0,0.0,0.0,0.0,0.0,0.0,0.0,0.0,0.0,0.0,0.0,0.0,-2.7865,-3.1133,-3.3418,-3.3086,-3.5996,-3.7051,-3.4531,-3.582,-3.6953,-3.7363,-3.8164,-3.8828,-3.9238,-3.9687,-3.9941,-3.9941,-3.9492,-3.9238,-3.9219,-3.8809,-3.8359,-3.791,-3.7519,-3.709,-3.666,-3.623,-3.5547,-3.4707,-3.4707,-3.4219,-3.3418,-3.3418,-3.3164,-3.2695,-3.1875,-3.1289,-3.0918,-3.0918,-3.0898,-3.082,0.0,0.0,0.0,0.0,0.0,0.0,0.0,-1.4389,-1.487,-1.5818,-1.829,-2.0668,-2.2539,-2.5344,-2.7468,-2.8404,-2.7816,-2.7134,-2.6547,-2.3674,-2.1817,-2.1507,-2.2512,-2.3861,-2.5464,-2.6346,-2.7362,-2.8551,-2.9018,-2.9325,-2.9486,-2.97,-2.9793,-2.9793,-2.9793,-2.9753,-2.9659,-2.9499,-2.8938,-2.7909,-2.5197,-2.342,-2.2191,0.0,0.0,0.0,0.0,0.0,0.0,0.0,0.0,0.0,0.0,0.0,0.0,0.0,0.0,0.0,0.0,0.0,0.0,0.0,0.0,0.0,0.0,0.0,0.0,0.0,0.0,0.0,0.0,0.0,0.0,0.0,-2.9699,-3.2519,-3.2344,-3.457,-3.6777,-3.8223,-3.9785,-4.0332,-3.9316,-3.9375,-3.9512,-3.9629,-3.9863,-4.0176,-4.0605,-4.0742,-4.082,-4.082,-4.0391,-4.0019,-3.9707,-3.9258,-3.8652,-3.793,-3.7812,-3.7363,-3.666,-3.6543,-3.584,-3.4707,-3.4707,-3.4219,-3.3418,-3.3418,-3.2988,-3.2344,-3.2422,-3.1992,-3.1348,-3.1348,-3.1152,-3.0879,0.0,0.0,0.0,0.0,0.0,0.0,0.0,-1.4416,-1.5017,-1.638,-1.9065,-2.1563,-2.3407,-2.6052,-2.7843,-2.819,-2.7522,-2.6573,-2.5371,-2.3327,-2.2311,-2.2645,-2.4356,-2.5838,-2.6987,-2.803,-2.8845,-2.9406,-2.9833,-3.01,-3.0221,-3.0515,-3.0648,-3.0648,-3.0648,-3.0648,-3.0635,-3.0381,-3.0194,-2.9873,-2.803,-2.6479,-2.4951,-2.3086,-2.1951,-2.1203,-2.0281,-1.9907,-1.9746,-1.9092,0.0,0.0,0.0,0.0,0.0,0.0,0.0,0.0,0.0,0.0,0.0,0.0,0.0,0.0,0.0,0.0,0.0,0.0,0.0,0.0,0.0,0.0,0.0,0.0,-3.3816,-3.668,-3.7695,-3.8613,-3.9785,-4.1406,-4.2031,-4.2168,-4.1738,-4.1308,-4.1055,-4.1055,-4.0898,-4.0898,-4.1172,-4.1172,-4.1172,-4.1172,-4.0742,-4.0332,-3.9902,-3.9434,-3.8769,-3.793,-3.793,-3.748,-3.668,-3.668,-3.6055,-3.498,-3.4785,-3.4316,-3.3691,-3.3496,-3.3125,-3.2676,0.0,0.0,0.0,0.0,-3.1094,-3.0898,0.0,0.0,0.0,0.0,0.0,0.0,0.0,-1.4416,-1.515,-1.7168,-1.9466,-2.1777,-2.4035,-2.6119,-2.7388,-2.7495,-2.6881,-2.5705,-2.3888,-2.302,-2.3166,-2.4489,-2.6106,-2.7161,-2.7562,-2.9406,-3.0234,-2.9967,-3.0555,-3.0969,-3.1236,-3.157,-3.1717,-3.1717,-3.1757,-3.177,-3.173,-3.1209,-3.0955,-3.0875,-3.0608,-2.9579,-2.802,-2.5518,-2.4676,-2.4569,-2.2926,-2.2044,-2.1603,-2.1243,0.0,0.0,0.0,0.0,0.0,0.0,0.0,0.0,0.0,0.0,0.0,0.0,0.0,0.0,0.0,0.0,0.0,0.0,0.0,0.0,0.0,0.0,0.0,0.0,-3.7986,-4.0137,-4.2969,-4.2715,-4.25,-4.3223,-4.3262,-4.3047,-4.2617,-4.2187,-4.1914,-4.1816,-4.1445,-4.123,-4.1172,0.0,0.0,0.0,0.0,-4.0332,-3.9902,-3.9434,-3.8789,-3.7988,-3.7949,-3.7539,-3.6816,-3.6719,-3.623,-3.543,-3.498,-3.4512,-3.4043,-3.3652,-3.3418,-3.3203,-3.2461,-3.168,-3.0957,-3.0918,-3.0898,-3.0898,0.0,0.0,0.0,0.0,0.0,0.0,0.0,-1.3773,-1.4426,-1.6286,-1.8439,-2.0321,-2.1964,-2.3995,-2.5518,-2.6226,-2.5104,-2.4195,-2.3794,-2.3607,-2.4449,-2.6587,-2.7455,-2.8364,-2.9379,-3.0034,-3.0327,-3.0274,-3.0862,-3.1169,-3.1236,-3.177,-3.2024,-3.2024,-3.2265,-3.2482,-3.2469,-3.2251,-3.1931,-3.149,-3.1436,-3.0247,-2.8404,-2.7402,-2.6466,-2.5598,-2.477,-2.4716,-2.4903,-2.4128,-2.3714,-2.334,-2.2271,-2.0441,0.0,0.0,0.0,0.0,0.0,0.0,0.0,0.0,0.0,0.0,0.0,0.0,0.0,0.0,0.0,0.0,0.0,0.0,0.0,-3.4359,-3.9235,-4.3281,-4.4941,-4.5019,-4.4863,-4.4668,-4.4355,-4.3965,-4.3496,-4.3086,-4.2539,-4.1855,-4.1719,-4.1523,-4.1191,-4.1172,-4.1172,-4.1172,-4.0742,-4.0332,-3.9902,-3.9434,-3.8945,-3.8437,0.0,0.0,-3.7656,-3.6973,-3.6387,-3.5879,-3.5449,-3.4805,-3.4062,-3.3984,-3.334,-3.2402,-3.2226,-3.1855,-3.1348,-3.1016,-3.0898,-3.0898,0.0,0.0,0.0,0.0,0.0,0.0,0.0,-1.36,-1.4226,-1.6046,-1.7689,-1.9265,-2.0735,-2.2071,-2.2993,-2.3287,-2.2512,-2.2378,-2.326,-2.4155,-2.5692,-2.8056,-2.9005,-2.9753,-3.0341,-3.0782,-3.0942,-3.0795,-3.1236,-3.145,-3.1463,-3.2051,-3.2318,-3.2332,-3.2625,-3.2839,-3.2973,-3.2826,-3.2505,-3.2104,-3.2104,-3.1142,-2.9633,-2.9032,-2.8257,-2.7442,-2.7001,-2.6747,-2.652,-2.5932,-2.5638,-2.5331,-2.4302,-2.2873,-2.1336,0.0,0.0,0.0,0.0,0.0,0.0,0.0,0.0,0.0,0.0,0.0,0.0,0.0,0.0,-2.3974,-2.6093,0.0,-3.3337,-3.7712,-4.1014,-4.3774,-4.5997,-4.6308,-4.6074,-4.543,-4.498,-4.4531,-4.4101,-4.3457,-4.2812,-4.2168,-4.1719,-4.1387,-4.1191,-4.1172,-4.1172,-4.1172,-4.0957,-4.0644,-4.0215,-3.9766,-3.9316,-3.8887,-3.8457,-3.8144,-3.791,-3.7266,-3.6758,-3.6309,-3.5664,-3.5137,-3.4707,-3.4258,-3.3437,-3.2461,-3.2307,-3.1777,-3.1172,-3.0976,-3.0898,-3.0898,0.0,0.0,0.0,0.0,0.0,0.0,0.0,-1.3427,-1.4068,-1.5712,-1.686,-1.7995,-1.9341,-2.0067,-2.0347,-2.0174,-2.0361,-2.1216,-2.2926,-2.4756,-2.6827,-2.9192,-3.0261,-3.0822,-3.0875,-3.1396,-3.1557,-3.1316,-3.1664,-3.1837,-3.1851,-3.2385,-3.2723,-3.2639,-3.2933,-3.3187,-3.34,-3.316,-3.2893,-3.2625,-3.267,-3.1944,-3.0982,-3.0327,-2.9646,-2.8991,-2.8644,-2.7909,-2.7081,-2.6947,-2.672,-2.636,-2.5705,-2.4943,-2.3928,-2.2151,-2.0882,0.0,0.0,0.0,0.0,0.0,0.0,0.0,0.0,-2.1924,-2.2712,-2.4142,-2.5371,-2.7344,-3.1061,-3.282,-3.5399,-4.0962,-4.2604,-4.3967,-4.5948,-4.6346,-4.6308,-4.5625,-4.5234,-4.4824,-4.4316,-4.3535,-4.2851,-4.2344,-4.168,-4.125,-4.1172,-4.1172,-4.1172,-4.1172,-4.1172,-4.0957,-4.0527,-4.0195,-3.9785,-3.9336,-3.8906,-3.8516,-3.8164,-3.7656,-3.7187,-3.6738,-3.5801,-3.5351,-3.5195,-3.4394,-3.3574,-3.2754,-3.2344,-3.1699,-3.0996,-3.0918,-3.0898,-3.0898,0.0,0.0,0.0,0.0,0.0,0.0,0.0,0.0,-1.3333,-1.4549,-1.5284,-1.6046,-1.6994,-1.7622,-1.8076,-1.8262,-2.0214,-2.211,-2.3567,-2.5558,-2.7736,-3.0114,-3.0581,-3.0915,-3.1169,-3.1503,-3.165,-3.1623,-3.2171,-3.2549,-3.2549,-3.2786,-3.2933,-3.2946,-3.324,-3.3387,-3.3414,-3.3374,-3.32,-3.2906,-3.275,-3.2305,-3.1864,-3.1022,-3.0007,-2.8965,-2.8404,-2.7455,-2.656,-2.7054,-2.7014,-2.68,-2.6974,-2.66,-2.5745,-2.3995,-2.2285,-2.0815,-2.012,-1.984,-2.0134,-2.1683,-2.1764,-2.2539,0.0,-2.7081,-2.6921,-2.815,-2.9339,-3.0774,-3.2755,-3.5993,-3.8696,-3.958,-4.3467,-4.577,-4.3958,-4.4591,-4.5195,-4.5117,-4.5058,-4.4707,-4.3867,-4.3359,-4.2734,-4.1933,-4.1777,-4.1562,-4.1191,-4.1172,-4.1172,-4.1172,-4.1172,-4.0957,-4.0527,-4.0469,-4.0234,-3.9824,-3.9355,-3.9101,-3.9043,-3.8223,-3.7617,-3.7168,-3.5918,-3.5156,-3.4746,-3.4258,-3.3574,-3.2754,-3.2344,-3.1875,-3.1406,-3.1035,-3.0898,-3.0898,0.0,0.0,0.0,0.0,0.0,0.0,0.0,0.0,0.0,-1.4175,-1.4629,-1.503,-1.5391,-1.5805,-1.6179,-1.6473,-1.8824,-2.1056,-2.2859,-2.5558,-2.7989,-3.002,-3.0702,-3.1102,-3.1223,-3.1517,-3.1664,-3.1664,-3.1917,-3.2118,-3.2291,-3.2585,-3.2812,-3.2986,-3.328,-3.3414,-3.3414,-3.3414,-3.324,-3.2959,-3.2666,-3.2265,-3.1757,-3.0875,-2.9593,-2.8203,-2.7776,-2.6987,0.0,-2.6026,-2.6146,-2.6373,-2.6667,-2.6346,-2.5638,-2.4382,-2.338,-2.2645,-2.2565,-2.2458,-2.2659,-2.3915,-2.481,-2.6037,-2.811,-2.8577,-2.8885,-3.0074,-3.0969,-3.1908,-3.2887,-3.4578,-3.6843,-3.9949,-4.2259,-4.401,-4.5168,-4.5618,-4.5215,-4.3691,-4.3516,-4.3476,-4.3359,-4.2949,-4.2441,-4.1855,-4.1562,-4.1367,-4.1191,-4.1172,-4.1172,-4.1172,-4.1172,-4.1094,-4.0898,-4.041,-4.0078,-3.9883,-3.918,-3.8828,-3.8809,-3.8203,-3.7559,-3.6894,-3.6094,-3.5508,-3.5078,-3.4629,-3.3926,-3.3086,-3.2422,-3.1894,-3.1465,-3.1055,-3.0898,-3.0898,0.0,0.0,0.0,0.0,0.0,0.0,0.0,0.0,0.0,0.0,-1.4082,-1.4215,-1.4389,-1.4522,-1.475,-1.5124,-1.7355,-1.9666,-2.1804,-2.4903,-2.7495,-2.9352,-3.0354,-3.0982,-3.1223,-3.1517,-3.1744,-3.1917,-3.1917,-3.2064,-3.2345,-3.2559,-3.2826,-3.3106,-3.332,-3.3414,-3.3414,-3.332,-3.3173,-3.2946,-3.2572,-3.2078,-3.1423,-3.0301,-2.8871,-2.7402,-2.7041,-2.6026,-2.4796,-2.4369,-2.4569,-2.5024,-2.5224,-2.5291,-2.5117,-2.4315,-2.3875,-2.3674,-2.3808,-2.4195,-2.4836,-2.5959,-2.7442,-2.8845,-2.9633,-3.0074,-3.0818,-3.2652,-3.3188,-3.385,-3.5643,-3.6085,-3.7454,-4.1185,-4.2305,-4.3506,-4.5413,-4.5522,-4.4629,-4.25,-4.1719,-4.1543,-4.1973,-4.2051,-4.1953,-4.166,-4.1348,-4.1172,-4.1172,-4.1172,-4.1172,-4.1172,-4.1172,-4.1172,-4.1172,-4.0449,-4.0078,-4.0059,-3.918,-3.875,-3.873,-3.8184,-3.7539,-3.6816,-3.6387,-3.582,-3.5176,-3.4844,-3.4199,-3.334,-3.25,-3.1973,-3.1641,-3.1094,-3.0898,-3.0898,0.0,0.0,0.0,0.0,0.0,0.0,0.0,0.0,0.0,0.0,0.0,0.0,0.0,-1.3854,-1.388,-1.4496,-1.6228,-1.8264,-2.0575,-2.35,-2.6066,-2.8194,-2.9325,-3.0354,-3.1209,-3.1517,-3.1944,-3.2616,-3.2616,-3.2666,-3.2946,-3.2959,-3.312,-3.34,-3.3414,-3.3414,-3.3387,-3.3106,-3.2986,-3.2933,-3.2345,-3.1757,-3.1049,-2.9325,-2.7909,-2.6774,-2.6199,-2.4315,-2.2098,-2.2084,-2.2285,-2.2525,-2.2539,-2.3514,-2.4543,-2.3955,-2.3581,-2.3273,-2.2979,-2.4155,-2.5892,-2.7712,-2.8965,-3.0381,-3.2385,-3.2639,-3.3475,-3.6828,-3.6913,-3.7905,-4.2481,-4.337,-4.3337,-4.3252,-4.522,-4.5802,-4.3069,-4.2999,-4.2832,-4.1933,-3.9961,-3.8848,-3.9277,-4.0469,-4.1211,-4.1191,-4.1172,-4.1172,-4.1172,-4.1172,-4.1172,-4.1172,-4.1172,-4.1172,-4.1172,-4.0723,-4.0508,-4.0488,-3.9609,-3.918,-3.916,-3.8301,-3.7695,-3.7266,-3.6836,-3.5918,-3.4726,-3.4707,-3.4199,-3.334,-3.25,-3.2168,-3.2051,-3.1211,-3.0898,-3.0898,0.0,0.0,0.0,0.0,0.0,0.0,0.0,0.0,0.0,0.0,0.0,0.0,0.0,0.0,0.0,0.0,-1.5484,-1.7114,-1.9092,-2.1617,-2.3861,-2.5732,-2.7509,-2.8671,-2.9165,-3.0047,-3.0608,-3.0795,-3.0795,-3.0955,-3.1236,-3.1236,-3.1396,-3.1677,-3.1877,-3.1957,-3.1957,-3.1851,-3.1824,-3.173,-3.0755,-3.0368,-3.014,-2.8177,-2.6453,-2.4903,0.0,-2.2205,-2.1029,-2.0441,-2.0307,-2.0535,-2.1309,-2.163,-2.183,-2.2418,-2.322,-2.4102,-2.497,-2.6493,-2.823,-2.9793,-3.1076,-3.2238,-3.3334,-3.3507,-3.3593,-3.3948,-3.3435,-3.365,-3.5623,-3.6425,-3.7792,-4.093,-4.3083,-4.4473,-4.461,-4.4721,-4.375,-4.0879,-4.0137,-3.9473,-3.8457,-3.875,0.0,-4.0664,-4.0488,-4.0566,-4.1152,-4.1172,-4.1172,-4.1172,-4.1172,-4.1172,-4.1172,-4.0742,-4.0391,-4.0098,-3.9219,-3.8789,-3.8769,-3.8184,-3.7695,-3.7266,-3.6855,-3.625,-3.5527,-3.4941,-3.4375,-3.3769,-3.291,-3.2422,-3.215,-3.1523,-3.1309,-3.1269,0.0,0.0,0.0,0.0,0.0,0.0,0.0,0.0,0.0,0.0,0.0,0.0,0.0,0.0,0.0,0.0,0.0,-1.5704,-1.7435,-1.9452,-2.1323,-2.2993,-2.473,-2.5892,-2.6413,-2.7175,-2.7762,-2.819,-2.819,-2.8444,-2.8951,-2.9152,-2.9406,-2.97,-3.0114,-3.0287,-3.0287,-3.0287,-3.01,-2.974,-2.8871,-2.8323,-2.7829,-2.5959,-2.4356,0.0,-2.0842,-1.9886,-1.9377,-1.8637,-1.8704,-1.9172,-1.98,-2.0401,-2.1042,-2.2017,-2.342,-2.5064,-2.6854,-2.847,-3.0074,-3.1757,-3.2826,-3.3587,-3.4095,-3.3868,-3.3512,-3.3241,-3.2427,-3.214,-3.3495,-3.3877,-3.5212,-3.8979,-4.0377,-4.1823,-4.4022,-4.349,-4.2327,-4.0763,-4.0,-3.8961,-3.7343,-3.691,-3.7808,-4.0314,-4.043,-4.0586,-4.1152,-4.1172,-4.1172,-4.1172,-4.1172,-4.1172,-4.1172,-4.0742,-4.0234,-3.9648,-3.8926,-3.8574,-3.8555,-3.8281,-3.7851,-3.7285,-3.7012,-3.6484,-3.5742,-3.5,-3.4453,-3.3984,-3.3125,-3.2637,-3.2344,-3.1914,-3.1758,-3.166,0.0,0.0,0.0,0.0,0.0,0.0,0.0,0.0,0.0,0.0,0.0,0.0,0.0,0.0,0.0,0.0,0.0,0.0,-1.5558,-1.7023,-1.8475,-1.9987,-2.1203,-2.2271,-2.3153,-2.3233,-2.3808,-2.4917,-2.4943,-2.5371,-2.6199,-2.6774,-2.7188,-2.7482,-2.807,-2.835,-2.8364,-2.8364,-2.7856,-2.7041,-2.6707,-2.5745,-2.4342,-2.2859,-2.1777,-2.0748,-1.845,-1.7474,-1.7166,-1.6847,-1.7595,-1.8597,-1.829,-1.9987,-2.2218,-2.2846,-2.4289,-2.6199,-2.8524,-3.0047,-3.145,-3.344,-3.4135,-3.4402,-3.4616,-3.3748,-3.3297,-3.4474,-3.3496,-3.314,-3.5574,-3.5686,-3.5886,-3.7505,-3.7686,-3.8696,-4.1591,-3.9923,-3.9252,-4.1618,-3.9576,-3.7528,-3.624,-3.5253,-3.6273,-4.0066,0.0,-4.0997,-4.1036,-4.1211,-4.1191,-4.1172,-4.1172,-4.1172,-4.1172,-4.0723,-4.0059,-3.9238,-3.8789,-3.8574,-3.8574,-3.8574,-3.8105,-3.7305,-3.7305,-3.6562,-3.5351,-3.4883,-3.4453,-3.3984,-3.3144,-3.2832,-3.2773,-3.2363,-3.2207,-3.209,0.0,0.0,0.0,0.0,0.0,0.0,0.0,0.0,0.0,0.0,0.0,0.0,0.0,0.0,0.0,0.0,0.0,0.0,-1.3841,-1.5057,-1.6299,-1.7555,-1.9158,-2.0347,-2.1002,-2.1884,-2.2472,-2.2779,-2.2993,-2.3207,-2.3434,-2.3808,-2.4093,-2.4115,-2.4502,-2.4796,-2.4997,-2.4997,-2.4743,-2.4262,-2.3514,-2.2993,-2.2525,-2.1269,-2.0521,-1.9973,-1.8704,-1.7836,-1.7219,-1.7315,-1.8878,-2.0824,-2.0743,-2.2031,-2.3848,-2.4863,-2.6573,-2.8511,-3.0207,-3.2011,-3.3601,-3.4349,-3.4589,-3.4442,-3.3614,-3.2519,-3.1262,-2.9872,-2.9067,-2.8522,-2.8073,-3.1219,-3.4375,-3.6091,-3.9896,-4.3234,-4.4924,-4.4866,-4.4269,-4.3316,-4.1041,-3.893,-3.7378,-3.576,-3.5966,-3.8645,-3.854,-3.854,-3.905,-4.0734,-4.1504,-4.1191,-4.1172,-4.1172,-4.1172,-4.043,-3.9941,-3.9707,-3.8945,-3.8574,-3.8574,-3.8574,-3.8105,-3.7305,-3.7305,-3.6562,-3.5351,-3.4883,-3.4453,-3.4023,-3.3476,-3.3262,-3.3203,-3.2793,-3.2637,-3.2519,0.0,0.0,0.0,0.0,0.0,0.0,0.0,0.0,0.0,0.0,0.0,0.0,0.0,0.0,0.0,0.0,0.0,0.0,0.0,-1.3748,-1.4603,-1.5511,-1.6633,-1.7395,-1.7662,-1.8624,-1.9092,-1.9092,-1.9639,-2.004,-2.0307,-2.0735,-2.1015,-2.1149,-2.159,-2.1871,-2.2031,-2.2164,-2.1897,0.0,0.0,-2.0401,-1.996,-1.9185,-1.8784,-1.8557,-1.7929,-1.7969,-1.845,-1.9386,-2.0788,-2.2325,-2.3046,-2.4422,-2.5999,-2.7308,-2.8791,-3.0354,-3.1957,-3.3427,-3.4549,-3.4723,-3.4576,-3.3961,-3.2385,-3.1009,-2.9299,-2.6547,-2.5483,-2.4756,-2.394,-2.734,-3.0821,-3.272,-3.7178,-4.0834,-4.2166,-4.2502,-4.2411,-4.155,-3.9946,-3.8118,-3.6107,-3.4938,-3.4391,-3.4573,-3.6413,-3.8329,-4.0018,-4.1142,-4.1699,-4.1465,-4.1445,-4.1367,-4.1172,-4.0508,-4.0078,-3.9883,-3.918,-3.875,-3.8574,-3.8379,-3.793,-3.7285,-3.7109,-3.6504,-3.5625,-3.5195,-3.4746,-3.4297,-3.3867,-3.3594,-3.3398,-3.3164,-3.3066,-3.3008,0.0,0.0,0.0,0.0,0.0,0.0,0.0,0.0,0.0,0.0,0.0,0.0,0.0,0.0,0.0,0.0,0.0,0.0,0.0,0.0,-1.3333,-1.3881,-1.4188,-1.4319,-1.4359,-1.4937,-1.5244,-1.5284,-1.6086,-1.6754,-1.7301,-1.7876,-1.8277,-1.8531,-1.9092,-1.9359,-1.9412,-1.9693,-1.9359,-1.8624,-1.8624,-1.8143,-1.7382,0.0,-1.7112,-1.7125,-1.6887,-1.8036,-1.9933,-2.1977,-2.2979,-2.3701,-2.5478,-2.6987,-2.8404,-2.9887,-3.0889,-3.1877,-3.3547,-3.4429,-3.4857,-3.4776,-3.4229,-3.3173,-3.1089,-2.9325,-2.7268,-2.4168,-2.2714,-2.1914,-2.1803,-2.4257,-2.708,-2.9261,-3.2728,-3.5782,-3.7718,-3.7766,-3.7897,-3.871,-3.7889,-3.6263,-3.4008,-3.3455,-3.2502,-3.0573,-3.4622,-3.8284,-4.0952,-4.1033,-4.0925,-4.089,-4.089,-4.0796,-4.0763,-4.0337,-3.9988,-3.9883,-3.9414,-3.8984,-3.8555,-3.8125,-3.7695,-3.7266,-3.6855,-3.6387,-3.5898,-3.5547,-3.5117,-3.4668,-3.4238,-3.3848,-3.3496,-3.3437,-3.3418,-3.3418,0.0,0.0,0.0,0.0,0.0,0.0,0.0,0.0,0.0,0.0,-1.0445,-1.1058,0.0,0.0,0.0,0.0,0.0,0.0,0.0,0.0,0.0,-1.2998,-1.328,-1.3507,-1.3746,-1.4135,-1.4429,-1.4669,-1.507,-1.5444,-1.5778,-1.6126,-1.6264,-1.633,-1.6727,-1.7021,-1.7261,-1.7555,-1.7448,-1.7088,-1.7088,-1.6847,-1.6549,-1.6496,0.0,0.0,-1.7275,-1.7983,-1.9252,-2.2726,-2.489,-2.644,-2.823,-2.9472,-3.0541,-3.2011,-3.2719,-3.3267,-3.4322,-3.503,-3.5364,-3.4883,-3.3761,-3.2238,-3.0181,-2.7629,-2.505,-2.2766,-2.1998,-2.1249,-1.9718,-2.3107,-2.7125,-3.0309,-3.2599,-3.5725,-4.0843,-3.9976,-3.92,-4.0088,-3.7883,-3.6009,-3.5129,-3.2711,-3.1853,-3.33,-3.338,-3.3638,-3.4314,-3.5907,-3.6515,-3.5982,-3.5965,-3.6752,-3.8469,-3.8084,-3.855,-3.9883,-3.9414,-3.8984,-3.8555,-3.8125,-3.7695,-3.7266,-3.6855,-3.623,-3.5488,-3.543,-3.5117,-3.4668,-3.4238,-3.4023,-3.3926,-3.3555,-3.3418,-3.3379,0.0,0.0,0.0,0.0,0.0,0.0,0.0,-0.89,-0.922,-1.0061,-1.001,-1.0264,-1.1202,-1.164,0.0,0.0,0.0,0.0,0.0,0.0,0.0,0.0,-1.2931,-1.3026,-1.3173,-1.3774,-1.4001,-1.3841,0.0,-1.4803,-1.4937,-1.5038,-1.5231,-1.5391,-1.5685,-1.5899,-1.6046,-1.6339,-1.638,-1.6246,-1.6246,-1.6166,-1.6046,0.0,0.0,0.0,-1.7192,-1.8143,-1.9573,-2.2178,-2.473,-2.7268,-2.982,-3.133,-3.2358,-3.3374,-3.3881,-3.4269,-3.5017,-3.5418,-3.5485,-3.491,-3.3414,-3.1383,-2.8711,-2.5932,-2.3207,-2.0681,-1.9858,-1.9192,-1.8212,-2.1643,-2.527,-2.7262,-2.9949,-3.2976,-3.6418,-3.6128,-3.5852,-3.6534,-3.5471,-3.4478,-3.3954,-3.2613,-3.1975,-3.2583,-3.1929,-3.2543,-3.4956,-3.5459,-3.5477,-3.503,-3.4832,-3.5218,-3.6201,-3.6012,-3.6202,-3.6646,-3.6372,-3.5959,-3.544,-3.4971,-3.461,-3.4413,-3.4019,-3.4082,-3.4471,-3.4471,-3.4678,-3.5039,-3.4844,-3.4609,-3.4336,-3.3906,-3.375,-3.3691,0.0,0.0,0.0,0.0,0.0,0.0,0.0,-0.8229,-0.8828,-1.0088,-0.9875,-0.9795,-1.0367,-1.1539,-1.2055,0.0,0.0,0.0,0.0,0.0,0.0,0.0,0.0,0.0,-1.269,0.0,0.0,-1.3213,-1.3919,0.0,0.0,0.0,0.0,0.0,-1.5084,-1.5244,-1.5324,-1.5618,-1.5765,0.0,0.0,-1.5784,0.0,0.0,0.0,0.0,0.0,-1.8144,-1.9599,-2.139,-2.3714,-2.6426,-2.9553,-3.169,-3.3146,-3.3681,-3.4269,-3.487,-3.5391,-3.5631,-3.5551,-3.4843,-3.2973,-3.0488,-2.7428,-2.4476,-2.1657,-1.9025,-1.7903,-1.7368,-1.7313,-1.9926,-2.2612,-2.4209,-2.66,-2.9029,-3.1338,-3.1519,-3.1842,-3.2743,-3.316,-3.3213,-3.2692,-3.2585,-3.2225,-3.1476,-3.1022,-3.2211,-3.5429,-3.4805,-3.4139,-3.3889,-3.354,-3.3512,-3.4002,-3.4002,-3.3936,-3.3694,-3.3694,-3.3314,-3.2604,-3.209,-3.1877,-3.1794,-3.14,-3.189,-3.3073,-3.2985,-3.3526,-3.4437,-3.4691,-3.4537,-3.4239,-3.4225,-3.416,-3.4023,0.0,0.0,0.0,0.0,0.0,0.0,0.0,-0.806,-0.8775,-0.8578,-1.0015,-1.0623,-0.9388,-0.9976,-1.01,0.0,0.0,0.0,0.0,0.0,0.0,0.0,0.0,0.0,0.0,0.0,0.0,-1.3213,-1.3507,0.0,0.0,0.0,0.0,0.0,0.0,-1.475,-1.5062,-1.5311,0.0,0.0,0.0,0.0,0.0,0.0,0.0,0.0,0.0,-1.7474,-1.821,-2.1042,-2.2365,-2.33,-2.6012,-2.9152,-3.1891,-3.2211,-3.3467,-3.483,-3.5151,-3.5631,-3.5765,-3.4643,-3.2198,-2.9432,-2.6987,-2.3554,-2.0428,-1.8824,-1.7582,-1.6941,-1.7448,-1.7848,-1.9556,-2.4039,-2.3441,-2.441,-3.0281,-3.0057,-3.0047,-3.1931,-3.2906,-3.328,-3.2973,-3.2706,-3.2398,-3.2051,-3.1263,-3.0603,-3.0213,-2.9817,-2.949,-2.919,-2.896,-2.969,-3.164,-3.1722,-3.2426,-3.3977,-3.3977,-3.3599,-3.2813,-3.2468,-3.2123,-3.1794,-3.14,-3.1293,-3.139,-3.1131,-3.1109,-3.1334,-3.2363,-3.2761,-3.2874,-3.4192,-3.4394,-3.4062,0.0,0.0,0.0,0.0,0.0,0.0,-0.6782,-0.7361,-0.7854,-0.8261,-0.9009,-0.9294,-0.8696,-0.9192,-0.9397,0.0,0.0,0.0,0.0,0.0,0.0,0.0,0.0,0.0,0.0,0.0,-1.3267,-1.3734,-1.4028,0.0,0.0,0.0,0.0,0.0,0.0,-1.495,-1.5231,-1.5351,0.0,0.0,0.0,0.0,0.0,0.0,0.0,0.0,0.0,0.0,-1.8009,-1.8998,-2.0361,-2.1697,-2.2058,-2.4462,-2.7682,-3.0287,-3.1931,-3.32,-3.4563,-3.5351,-3.5565,-3.4563,-3.2104,-2.9245,-2.6707,-2.3166,-2.0,-1.8531,-1.7408,-1.6834,-1.73,-1.7514,-1.8428,-2.0854,-2.0075,-2.0835,-2.5452,-2.5527,-2.6413,-3.0087,-3.1142,-3.1944,-3.2893,-3.2879,-3.2545,-3.1891,-3.1356,-3.0675,-2.9793,-2.9299,-2.8818,-2.8337,-2.8288,-2.8642,-2.9453,-2.9439,-2.9701,-3.0194,-3.0194,-2.996,-2.9508,-2.9108,-2.8904,-2.8759,-2.8438,-2.8864,-2.9712,-2.9663,-3.0092,-3.0821,-3.1324,-3.1352,-3.1252,-3.1561,-3.23,-3.2959,0.0,0.0,0.0,0.0,0.0,-0.6161,-0.6715,-0.6829,-0.719,-0.7909,-0.8054,-0.8088,-0.8126,-0.8306,-0.8435,-0.8568,0.0,0.0,0.0,0.0,0.0,0.0,0.0,0.0,0.0,0.0,-1.3248,-1.4082,-1.4376,-1.4669,0.0,0.0,-1.5008,-1.5008,0.0,0.0,0.0,0.0,0.0,0.0,0.0,0.0,0.0,0.0,0.0,0.0,0.0,0.0,0.0,0.0,0.0,-2.0201,-1.9466,-2.0922,-2.3674,-2.7642,-2.9913,-3.157,-3.3454,-3.4536,-3.4923,-3.4122,-3.1637,-2.8738,-2.6266,-2.2792,-1.972,-1.8275,-1.7328,-1.6794,-1.7152,-1.7367,-1.7782,-1.8771,-1.8384,-1.9118,-2.2472,-2.2913,-2.4342,-2.8123,-2.9245,-3.0368,-3.2038,-3.2599,-3.2599,-3.1971,-3.141,-3.0755,-2.9953,-2.9352,-2.8804,-2.8297,-2.8274,-2.8221,-2.8221,-2.8221,-2.8043,-2.7829,-2.7829,-2.7682,-2.7388,-2.7175,-2.6987,-2.6814,-2.66,-2.7065,-2.7976,-2.7889,-2.8327,-2.9185,-2.9672,-2.9681,-2.9511,-2.9748,-3.0647,-3.1408,0.0,0.0,0.0,0.0,0.0,0.0,0.0,-0.6736,-0.7034,-0.7385,-0.7426,-0.7489,-0.7787,-0.7156,-0.6763,-0.6912,0.0,0.0,0.0,0.0,0.0,0.0,0.0,0.0,0.0,0.0,-1.2629,-1.4082,-1.4376,-1.4669,-1.5008,-1.5008,-1.5008,-1.5008,0.0,0.0,0.0,0.0,0.0,0.0,0.0,0.0,-1.5832,0.0,0.0,0.0,0.0,0.0,0.0,0.0,0.0,0.0,0.0,-1.9345,-2.0548,-2.4088,-2.7415,-3.0261,-3.173,-3.3,-3.3761,-3.3146,-3.0555,-2.7698,-2.5558,-2.2352,-1.9466,-1.8235,-1.7328,-1.6794,-1.7152,-1.7206,-1.7594,-1.8731,-1.8918,-1.984,-2.2485,-2.3621,-2.4743,-2.6239,-2.7455,-2.8837,-3.0247,-3.1799,-3.2643,-3.2629,-3.1463,0.0,-2.9953,-2.9352,-2.8911,-2.8604,-2.831,-2.8221,-2.8221,-2.8221,-2.8221,-2.8221,-2.8221,-2.7989,-2.7696,-2.7696,-2.7375,-2.6827,-2.6814,-2.6493,-2.601,-2.5638,-2.542,-2.535,-2.6925,-2.7505,-2.778,-2.9599,-3.0078,-2.9712,0.0,0.0,0.0,0.0,0.0,0.0,0.0,-0.6491,-0.6688,-0.6885,-0.7007,-0.7183,-0.7482,-0.7027,-0.6763,-0.6869,0.0,0.0,0.0,0.0,0.0,0.0,0.0,0.0,0.0,0.0,-1.2738,-1.3837,-1.4904,-1.5671,-1.6152,-1.5952,-1.5906,-1.5893,-1.5444,-1.5418,0.0,0.0,0.0,0.0,0.0,-1.5952,-1.6126,0.0,0.0,0.0,0.0,0.0,0.0,0.0,0.0,0.0,0.0,0.0,0.0,-2.0909,-2.3768,-2.6627,-2.8096,-2.9205,-2.9726,-2.8724,-2.7255,-2.5504,-2.3434,-2.1323,-1.9466,-1.8235,-1.7488,-1.7152,-1.7447,-1.734,-1.7728,-1.9265,-1.9359,-1.9867,-2.1775,-2.3086,-2.4676,-2.6747,-2.9806,-3.1931,-3.2398,-3.2692,-3.2679,-3.2278,-3.153,-3.0742,-2.9953,-2.9352,-2.8804,-2.831,-2.8274,-2.8221,-2.8221,-2.8221,-2.8221,-2.8221,-2.8221,-2.7989,-2.7696,-2.7495,-2.7188,-2.6814,-2.6613,-2.6426,-2.6239,-2.6146,-2.5945,-2.5728,-2.6013,-2.6115,-2.6162,-2.6609,-2.7467,-2.8309,0.0,0.0,0.0,0.0,0.0,0.0,0.0,-0.63,-0.6443,-0.6444,-0.658,-0.681,-0.7163,-0.6803,-0.6661,-0.6937,0.0,0.0,0.0,0.0,0.0,0.0,0.0,0.0,-0.9898,-1.1186,-1.2506,-1.385,-1.5377,-1.646,-1.7034,-1.6967,-1.6502,-1.5753,-1.5853,-1.5573,0.0,0.0,0.0,0.0,-1.5952,-1.6046,-1.6112,0.0,0.0,0.0,0.0,0.0,0.0,0.0,0.0,0.0,0.0,0.0,0.0,0.0,-2.0802,-2.3113,-2.5251,-2.648,-2.6974,-2.6239,-2.5224,-2.3955,-2.2218,-2.0601,-1.9199,-1.8195,-1.7475,-1.7125,-1.7368,-1.7233,-1.7422,-1.8744,-1.9011,-1.9586,-2.1162,-2.2766,-2.4676,-2.7134,-3.0287,-3.2265,-3.2265,-3.2599,-3.2572,-3.1984,-3.1396,-3.0675,-2.9806,-2.9299,-2.8764,-2.8248,-2.8221,-2.8221,-2.8221,-2.8221,-2.8221,-2.8221,-2.8221,-2.7989,-2.7696,-2.7509,-2.7201,-2.6814,-2.6627,-2.6426,0.0,-2.6226,-2.6052,-2.5772,-2.5585,-2.5518,-2.5491,-2.5304,-2.5978,-2.6851,0.0,0.0,0.0,0.0,0.0,0.0,0.0,0.0,-0.6245,-0.6027,-0.6173,-0.6457,-0.6837,-0.6512,-0.6485,-0.6997,0.0,0.0,0.0,0.0,0.0,0.0,0.0,0.0,-0.9663,-1.0539,-1.1935,-1.3823,-1.5556,-1.6754,-1.7318,-1.7579,-1.659,-1.4745,-1.5973,-1.5592,-1.4112,0.0,0.0,0.0,-1.6166,-1.6126,0.0,0.0,0.0,0.0,0.0,0.0,0.0,0.0,0.0,0.0,0.0,0.0,0.0,0.0,0.0,0.0,0.0,-2.4382,-2.5064,-2.5024,-2.4008,-2.2712,-2.1601,-2.0013,0.0,-1.8049,-1.7301,-1.682,-1.7233,-1.6981,-1.6994,-1.7689,-1.8277,-1.9239,-2.0962,-2.2859,-2.5037,-2.7615,-2.9486,-3.0541,-3.0461,-3.1717,-3.2291,-3.1677,-3.1116,-3.0408,-2.9526,-2.9205,-2.8778,-2.8274,-2.8234,-2.8221,-2.8221,-2.8221,-2.8221,-2.8221,-2.8207,-2.7949,-2.7669,-2.7642,-2.7321,0.0,-2.6787,-2.6493,-2.6063,-2.6063,-2.5825,-2.5571,-2.5531,-2.5545,-2.5571,-2.5531,-2.5531,-2.5545,0.0,0.0,0.0,0.0,0.0,0.0,0.0,0.0,0.0,0.0,-0.6279,-0.634,-0.645,-0.6361,-0.6402,0.0,0.0,0.0,0.0,0.0,0.0,0.0,0.0,0.0,-0.7758,-0.9148,-1.0348,-1.1247,-1.3018,-1.4148,-1.4609,-1.4685,-1.4263,-1.3476,-1.4607,-1.5207,-1.5391,-1.5676,0.0,0.0,-1.6295,-1.6366,0.0,0.0,0.0,0.0,-1.658,-1.6794,0.0,0.0,0.0,0.0,0.0,0.0,0.0,0.0,-1.7554,-1.7943,-1.8865,0.0,-2.0708,-2.0254,-2.0054,-1.9706,0.0,-1.837,-1.8063,-1.7475,-1.7007,-1.7007,-1.7996,-1.7742,-1.7943,-1.9666,-2.0067,-2.0615,-2.1924,-2.4997,-2.7843,-2.9833,-3.1623,-3.2345,-3.145,-3.2174,-3.2211,-3.1396,-3.0996,-3.0408,-2.9526,-2.9205,-2.8871,-2.8511,-2.827,-2.8221,-2.8221,-2.8221,-2.8221,-2.8221,-2.7909,-2.7655,-2.7362,-2.7134,-2.6827,-2.6493,-2.6493,-2.6413,-2.6293,-2.6293,-2.6253,-2.6132,-2.5692,-2.5785,-2.6132,-2.5678,-2.5651,-2.5852,0.0,0.0,0.0,0.0,0.0,0.0,0.0,0.0,0.0,0.0,0.0,0.0,0.0,0.0,0.0,0.0,0.0,0.0,0.0,0.0,0.0,0.0,0.0,-0.7051,-0.7244,-0.8822,-1.0015,-1.081,-1.2631,-1.3831,-1.4301,-1.446,-1.3761,-1.2506,-1.3173,-1.4029,-1.4962,-1.5726,-1.5725,-1.5293,-1.5595,0.0,0.0,0.0,0.0,0.0,-1.6553,-1.67,0.0,-1.7074,-1.7315,-1.7555,0.0,0.0,0.0,0.0,-1.7099,-1.7233,-1.7393,-1.825,-1.9092,-1.8771,-1.8918,-1.8931,-1.817,-1.7903,-1.7689,-1.73,-1.6914,-1.6981,-1.7903,-1.7702,-1.7983,-1.9599,-2.0094,-2.1162,-2.3688,-2.6492,-2.8985,-3.0955,-3.2144,-3.2666,-3.2305,-3.2438,-3.2238,-3.149,-3.1036,-3.0408,-2.9526,-2.9205,-2.8845,-2.8404,-2.8315,-2.8221,-2.8221,-2.8221,-2.8221,-2.8221,-2.7976,-2.7682,-2.7268,-2.7094,-2.6787,-2.6386,-2.6386,-2.6386,-2.6373,-2.6239,-2.6186,-2.6159,-2.5838,-2.5905,-2.6172,-2.5985,-2.6012,-2.6132,0.0,0.0,0.0,0.0,0.0,0.0,0.0,0.0,0.0,0.0,0.0,0.0,0.0,0.0,0.0,0.0,0.0,0.0,0.0,0.0,0.0,0.0,-0.7179,-0.7305,-0.7549,-0.8839,-0.9971,-1.0937,-1.265,-1.3794,-1.427,-1.4699,-1.3738,-1.174,-1.1897,-1.2571,-1.375,-1.5119,-1.4986,-1.3981,-1.4504,0.0,0.0,0.0,0.0,0.0,0.0,0.0,0.0,-1.7261,-1.7502,-1.7662,-1.7636,0.0,0.0,0.0,0.0,0.0,-1.7233,-1.8116,-1.9011,-1.8838,-1.9052,-1.9145,-1.8557,-1.8023,-1.7582,-1.7393,-1.7088,-1.7101,-1.7742,-1.7782,-1.7996,-1.9145,-2.0,-2.1897,-2.5812,-2.7631,-2.9306,-3.141,-3.2051,-3.2425,-3.2746,-3.2639,-3.2278,-3.165,-3.1102,-3.0394,-2.9459,-2.9179,-2.8764,-2.8248,-2.8221,-2.8221,-2.8221,-2.8221,-2.8221,-2.8221,-2.814,-2.7832,-2.7268,-2.7175,-2.6854,-2.6386,-2.6386,-2.636,-2.6306,-2.6052,-2.601,-2.5892,-2.5892,-2.5919,-2.6063,-2.6239,-2.6346,-2.6346,0.0,0.0,0.0,0.0,0.0,0.0,0.0,0.0,0.0,0.0,0.0,0.0,0.0,0.0,0.0,0.0,0.0,0.0,0.0,0.0,0.0,-0.7699,-0.759,-0.7719,-0.8176,-0.8112,-0.8484,-0.9265,-1.0083,-1.0681,-1.1046,-1.1607,-1.1672,-1.1355,-1.1071,-1.1475,-1.2472,-1.2702,-1.2956,-1.3176,-1.3247,0.0,0.0,0.0,0.0,0.0,0.0,0.0,0.0,-1.67,-1.7141,-1.7716,-1.6504,0.0,0.0,0.0,0.0,0.0,-1.7367,-1.8571,-1.9426,-1.8368,-1.8542,-1.8838,-1.8195,-1.7995,-1.7916,-1.7862,-1.7822,-1.8103,-1.8945,-1.9452,-2.0067,-2.1065,-2.2699,-2.4903,-2.7789,-2.9032,-3.0154,-3.1503,-3.2585,-3.2853,-3.1957,-3.2278,-3.2198,-3.1356,-3.0982,-3.0301,-2.9165,-2.9072,-2.8764,-2.8248,-2.8221,-2.8221,-2.8221,-2.8221,-2.8221,-2.8221,-2.7725,-2.7348,-2.7241,-2.6747,-2.648,-2.6386,-2.6386,-2.6253,-2.609,-2.605,-2.5812,-2.5585,-2.5585,-2.5732,-2.6037,-2.609,-2.6186,-2.6306,0.0,0.0,0.0,0.0,0.0,0.0,0.0,0.0,0.0,0.0,0.0,0.0,0.0,0.0,0.0,0.0,0.0,0.0,0.0,0.0,-0.778,-0.816,-0.8113,-0.8174,-0.8377,-0.8411,-0.8825,-0.9666,-1.0256,-1.0744,-1.1118,-1.0989,-1.0734,-1.0405,-1.0675,-1.0974,-1.1295,-1.2242,-1.2346,-1.1873,0.0,0.0,0.0,0.0,0.0,0.0,0.0,0.0,0.0,0.0,-1.7208,-1.7649,-1.6807,0.0,0.0,0.0,0.0,0.0,-1.7206,-1.8196,-1.9078,-1.9011,-1.9559,-1.9907,-1.9158,-1.8878,-1.8758,-1.8758,-1.8878,-1.9265,-2.0147,-2.0788,-2.1737,-2.342,-2.5157,-2.6894,-2.8604,-2.9459,-3.0408,-3.1744,-3.2372,-3.2625,-3.2398,-3.2478,-3.2251,-3.1517,-3.0902,-3.0181,-2.9325,-2.8978,-2.8604,-2.8248,-2.8221,-2.8221,-2.8221,-2.8221,-2.8221,-2.8221,-2.7709,-2.7415,-2.7255,-2.6814,-2.6533,-2.6386,-2.6226,-2.6079,-2.601,-2.5611,-2.5491,-2.5518,-2.5518,-2.5692,-2.605,-2.6132,-2.6079,-2.5879,0.0,0.0,0.0,0.0,0.0,0.0,0.0,0.0,0.0,0.0,0.0,0.0,0.0,0.0,0.0,0.0,0.0,0.0,0.0,-0.7733,-0.7997,-0.8418,-0.8499,-0.8615,-0.8791,-0.8994,-0.9537,-1.0439,-1.0995,-1.1484,-1.187,-1.1192,-1.0439,-0.9698,-1.0285,-1.0381,-1.0124,-1.1468,-1.1507,-1.0603,0.0,0.0,0.0,0.0,0.0,0.0,0.0,0.0,0.0,0.0,0.0,0.0,0.0,0.0,0.0,-1.7061,-1.67,-1.667,-1.734,-1.8009,-1.8771,-1.9519,-2.0201,-2.0668,-2.0548,-2.0134,-1.9893,-2.0307,-2.0628,-2.0975,-2.143,-2.2164,-2.342,-2.5571,-2.7161,-2.8457,-2.9419,-3.006,-3.0902,-3.2158,-3.2305,-3.2478,-3.2933,-3.2585,-3.2091,-3.1503,-3.0715,-2.9967,-2.9312,-2.8858,-2.847,-2.8234,-2.8221,-2.8221,-2.8221,-2.8221,-2.8221,-2.8221,-2.7776,-2.7482,-2.7255,-2.6881,-2.66,-2.6373,-2.6159,-2.609,-2.5996,-2.5464,-2.5371,-2.5518,-2.5585,-2.5798,-2.6092,-2.6306,-2.6066,-2.5611,0.0,0.0,0.0,0.0,0.0,0.0,0.0,0.0,0.0,0.0,0.0,0.0,0.0,0.0,0.0,0.0,0.0,0.0,0.0,-0.7733,-0.795,-0.8327,-0.8547,-0.9015,-0.9707,-0.9618,-0.9998,-1.0833,-1.1362,-1.1742,-1.2033,-1.1565,-1.0792,-0.9795,-0.96,-0.9298,-0.9016,-0.9147,-0.9405,-0.9676,-0.9696,0.0,0.0,0.0,0.0,0.0,0.0,0.0,0.0,0.0,0.0,0.0,0.0,0.0,-1.7889,-1.7622,-1.7367,-1.7326,-1.8156,-1.8637,-1.8971,-1.9319,-1.9511,-2.01,-2.2164,-2.1777,-2.1456,-2.3113,-2.3688,-2.3647,-2.2886,-2.3901,-2.5358,-2.6894,-2.839,-2.9753,-3.0902,-3.157,-3.2185,-3.2839,-3.2919,-3.2933,-3.2973,-3.2225,-3.149,-3.0902,-3.0287,-2.9579,-2.8711,-2.8631,-2.847,-2.8234,-2.8221,-2.8221,-2.8221,-2.8221,-2.8221,-2.8221,-2.7575,-2.7281,-2.7241,-2.668,-2.6413,-2.6386,-2.6373,-2.6199,-2.6037,-2.5919,-2.5745,-2.5545,-2.5812,-2.6106,-2.636,-2.6386,-2.6186,-2.5892,0.0,0.0,0.0,0.0,0.0,0.0,0.0,0.0,0.0,0.0,0.0,0.0,0.0,0.0,0.0,0.0,0.0,0.0,0.0,-0.7868,-0.8133,-0.8526,-0.8743,-0.9157,-0.9808,-1.0039,-1.0555,-1.1369,-1.1904,-1.2081,-1.1911,-1.1457,-1.0792,-0.9889,-0.9652,-0.9462,-0.9354,-0.9354,-0.9503,-0.9741,-0.9741,-0.9986,0.0,0.0,0.0,0.0,0.0,0.0,0.0,0.0,-1.5522,-1.7728,-1.6087,-1.6832,-1.8196,-1.7568,-1.7152,-1.6994,-1.7568,-1.8277,-1.9038,-1.9519,-2.004,-2.0882,-2.2566,-2.2953,-2.3434,-2.4836,-2.5651,-2.5945,-2.5424,-2.5932,-2.6867,-2.8163,-2.9299,-3.0434,-3.161,-3.1957,-3.2251,-3.2666,-3.2545,-3.2358,-3.2185,-3.169,-3.1076,-3.0301,-2.9873,-2.9339,-2.8644,-2.843,-2.827,-2.8234,-2.8221,-2.8221,-2.8221,-2.8221,-2.814,-2.7856,-2.7455,-2.7268,-2.7241,-2.6653,-2.6293,-2.6106,-2.5919,-2.5785,-2.5665,-2.5491,-2.5558,-2.5825,-2.6106,-2.6293,-2.6386,-2.6386,-2.6199,-2.5945,0.0,0.0,0.0,0.0,0.0,0.0,0.0,0.0,0.0,0.0,0.0,0.0,0.0,0.0,0.0,0.0,0.0,0.0,-0.7814,-0.7907,-0.815,-0.8554,-0.8804,-0.9161,-0.9808,-1.0263,-1.0839,-1.1545,-1.2142,-1.223,-1.1823,-1.1423,-1.0914,-1.0253,-0.9971,-0.9849,-0.9876,-0.9734,-0.9734,-0.9822,-0.9822,-0.9734,0.0,0.0,0.0,0.0,0.0,0.0,0.0,0.0,-1.4456,-1.6927,-1.5507,-1.6637,-1.837,-1.7809,-1.7368,-1.7128,-1.7192,-1.7742,-1.8531,-1.9212,-2.0254,-2.159,-2.342,-2.4249,-2.509,-2.6734,-2.7321,-2.7509,-2.7402,-2.7388,-2.7762,-2.8858,-2.986,-3.0849,-3.1824,-3.2051,-3.2144,-3.2251,-3.2091,-3.181,-3.1423,-3.1036,-3.0488,-2.97,-2.9366,-2.8991,-2.8484,-2.8341,-2.8221,-2.8221,-2.8221,-2.8221,-2.8221,-2.814,-2.7949,-2.7829,-2.7348,-2.7121,-2.7108,-2.6613,-2.6279,-2.6079,-2.5879,-2.5785,-2.5772,-2.5571,-2.5732,-2.6106,-2.6306,-2.6386,-2.6386,-2.6386,-2.6266,-2.6079,0.0,0.0,0.0,0.0,0.0,0.0,0.0,0.0,0.0,0.0,0.0,0.0,0.0,0.0,0.0,0.0,0.0,0.0,-0.7814,-0.7907,-0.8106,-0.8313,-0.8696,-0.9154,-0.9802,-1.0256,-1.0785,-1.1389,-1.1986,-1.2121,-1.1816,-1.1525,-1.1226,-1.086,-1.048,-1.0365,-1.046,-1.0012,-0.9822,-0.9822,-0.9822,-0.9734,-0.9598,0.0,0.0,0.0,0.0,0.0,0.0,0.0,-1.3227,-1.5552,-1.6428,-1.7497,-1.8504,-1.849,-1.8277,-1.7862,-1.7367,-1.7206,-1.7447,-1.829,-1.984,-2.1991,-2.5237,-2.5745,-2.6293,-2.8965,-2.8791,-2.8341,-2.8564,-2.8123,-2.8003,-2.8898,-3.0034,-3.0996,-3.1583,-3.1917,-3.1984,-3.1704,-3.1664,-3.1423,-3.0835,-3.0247,-2.9659,-2.9085,-2.8764,-2.847,-2.8248,-2.8221,-2.8221,-2.8221,-2.8221,-2.8221,-2.8221,-2.7856,-2.7843,-2.8207,-2.7241,-2.6827,-2.6814,-2.652,-2.6386,-2.6386,-2.6386,-2.6386,-2.6386,-2.6386,-2.6386,-2.6386,-2.6386,-2.6386,-2.6386,-2.6386,-2.6386,-2.6346,0.0,0.0,0.0,0.0,0.0,0.0,0.0,0.0,0.0,0.0,0.0,0.0,0.0,0.0,0.0,0.0,0.0,0.0,-0.7921,-0.7968,-0.8106,-0.8313,-0.8594,-0.8913,-0.9134,-0.9781,-1.0575,-1.1389,-1.1572,-1.1558,-1.1355,-1.1165,-1.0914,-1.0622,-1.0602,-1.05,-1.0324,-0.9971,-0.9883,-0.9909,-0.9863,-0.9795,-0.9741,0.0,0.0,0.0,0.0,0.0,0.0,0.0,0.0,0.0,-1.444,-1.6402,-1.9001,-1.8103,-1.809,-1.8223,-1.7622,-1.8117,-1.9028,-2.0067,-2.1977,-2.4222,-2.6627,-2.7281,-2.8123,-3.0782,-3.0287,-2.9419,-2.9513,-2.9205,-2.9045,-2.9312,-3.0167,-3.0996,-3.1583,-3.157,-3.145,-3.137,-3.0808,-3.0368,-3.0194,-2.9646,-2.9138,-2.8764,-2.8657,-2.847,-2.8248,-2.8221,-2.8221,-2.8221,-2.8221,-2.8221,-2.8221,-2.814,-2.7843,-2.7522,-2.7255,-2.7134,-2.7121,-2.6613,-2.6279,-2.6092,-2.6092,-2.6092,-2.6106,-2.6306,-2.6386,-2.6386,-2.6386,-2.6266,-2.6092,-2.6092,-2.6092,-2.6079,0.0,0.0,0.0,0.0,0.0,0.0,0.0,0.0,0.0,0.0,-0.7034,-0.717,0.0,0.0,0.0,0.0,0.0,0.0,0.0,-0.7988,-0.8106,-0.8313,-0.8554,-0.8893,-0.9222,-0.9903,-1.0432,-1.086,-1.0975,-1.1016,-1.0989,-1.1145,-1.1145,-1.1036,-1.1369,-1.1219,-1.0704,-1.046,-1.0202,-0.9903,-0.9992,-0.993,-0.9815,0.0,0.0,0.0,0.0,0.0,0.0,0.0,0.0,0.0,-1.3433,-1.5604,-1.8425,-1.7756,-1.7756,-1.7956,-1.7943,-1.8557,-1.9586,-2.1216,-2.3327,-2.5678,-2.8323,-2.9339,-3.0261,-3.2225,-3.145,-3.0474,-3.0595,-2.9993,-2.9566,-2.9793,-3.0368,-3.0915,-3.1276,-3.1169,-3.0969,-3.0728,-3.014,-2.9646,-2.9419,-2.9072,-2.8751,-2.8444,-2.8417,-2.8337,-2.8234,-2.8221,-2.8221,-2.8221,-2.8114,-2.7963,-2.7963,-2.7736,-2.7495,-2.7268,-2.7028,-2.6974,-2.7068,-2.66,-2.6293,-2.6132,-2.6132,-2.6132,-2.6146,-2.6319,-2.6386,-2.6386,-2.6386,-2.6279,-2.6132,-2.6132,-2.6132,-2.6132,0.0,0.0,0.0,0.0,0.0,0.0,0.0,0.0,0.0,0.0,-0.7204,-0.7426,0.0,0.0,0.0,0.0,0.0,0.0,0.0,0.0,-0.8106,-0.8313,-0.8594,-0.911,-0.9829,-1.0229,-1.0297,-0.9963,-1.031,-1.0527,-1.0697,-1.1328,-1.1687,-1.1837,-1.2413,-1.2176,-1.1335,-1.1131,-1.0555,-0.9808,-1.01,-1.0046,-0.9781,-0.9781,0.0,0.0,0.0,0.0,0.0,0.0,0.0,0.0,-1.3173,-1.5077,-1.7286,-1.7475,-1.7447,-1.7474,-1.833,-1.8824,-1.9666,-2.2098,-2.4382,-2.6894,-3.0194,-3.1597,-3.2398,-3.3173,-3.2278,-3.141,-3.1623,-3.0555,-2.9806,-3.0287,-3.0608,-3.0795,-3.0795,-3.0742,-3.0515,-2.998,-2.9606,-2.9192,-2.8657,-2.8577,-2.8444,-2.8248,-2.8221,-2.8221,-2.8221,-2.8207,-2.8181,-2.8181,-2.7816,-2.7655,-2.7655,-2.7134,-2.6987,-2.7215,-2.668,-2.6547,-2.6774,-2.6507,-2.6386,-2.6386,-2.6386,-2.6386,-2.6386,-2.6386,-2.6386,-2.6386,-2.6386,-2.636,-2.6306,-2.6333,-2.6333,-2.6306,0.0,0.0,0.0,0.0,0.0,0.0,0.0,0.0,0.0,0.0,0.0,0.0,0.0,0.0,0.0,0.0,0.0,0.0,0.0,0.0,-0.8106,-0.8313,-0.8893,-0.9476,-0.993,-0.9978,-0.993,-0.9869,-0.999,-1.0222,-1.0392,-1.1226,-1.1633,-1.1681,-1.204,-1.1775,-1.1002,-1.0371,-0.9863,-0.949,-0.968,-0.9639,-0.9476,-0.9476,-0.9198,0.0,0.0,0.0,0.0,0.0,0.0,0.0,-1.3034,-1.5106,-1.7462,-1.734,-1.7515,-1.8023,-1.8931,-1.9733,-2.1029,-2.4088,-2.7442,-3.0381,-3.1837,-3.2492,-3.2772,-3.2746,-3.2478,-3.2144,-3.1744,-3.1223,-3.0742,-3.0421,-3.0608,-3.0795,-3.0795,-3.0394,-3.006,-2.9927,-2.9245,-2.8751,-2.8617,-2.839,-2.8301,-2.8234,-2.8221,-2.8221,-2.8221,-2.7923,-2.7789,-2.7789,-2.7509,-2.7362,-2.7362,-2.7228,-2.7081,-2.6921,-2.6787,-2.664,-2.648,-2.6413,-2.6386,-2.6386,-2.6386,-2.6386,-2.6386,-2.6386,-2.6386,-2.6386,-2.6386,-2.6106,-2.5732,-2.5959,-2.5905,-2.5732,0.0,0.0,0.0,0.0,0.0,0.0,0.0,0.0,0.0,0.0,0.0,0.0,0.0,0.0,0.0,0.0,0.0,0.0,0.0,0.0,-0.815,-0.8574,-0.9171,-0.9598,-0.9836,-0.9686,-0.9578,-0.9503,-0.951,-0.9815,-1.0405,-1.1375,-1.1945,-1.2169,-1.2535,-1.2128,-1.1124,-1.0588,-1.0025,-0.9503,-0.9652,-0.9625,-0.9483,-0.9408,-0.9055,-0.8601,-0.8601,0.0,0.0,0.0,0.0,0.0,0.0,0.0,-1.5025,-1.5065,-1.5722,-1.6747,-1.8059,-1.9868,-2.2218,-2.6039,-2.8911,-3.1036,-3.1931,-3.2465,-3.2692,-3.2398,-3.2225,-3.2024,-3.173,-3.1089,-3.0501,-3.0194,-3.0154,-3.0167,-3.0167,-2.978,-2.9499,-2.9499,-2.8831,-2.839,-2.839,-2.8243,-2.8167,-2.7936,-2.7936,-2.7869,-2.7819,-2.7575,-2.7495,-2.7495,-2.7215,-2.7054,-2.7054,-2.6774,-2.656,-2.6413,-2.6266,-2.6186,-2.6186,-2.6186,-2.6266,-2.6386,-2.6239,-2.6266,-2.6386,-2.6386,-2.6386,-2.6386,-2.6386,-2.6199,-2.5932,-2.5945,-2.5945,-2.5932,0.0,0.0,0.0,0.0,0.0,0.0,0.0,0.0,0.0,0.0,0.0,0.0,0.0,0.0,0.0,0.0,0.0,0.0,0.0,0.0,0.0,-0.8858,-0.932,-0.9564,-0.9646,-0.9449,-0.9293,-0.9248,-0.9076,-0.9571,-1.0663,-1.1592,-1.2305,-1.282,-1.3139,-1.2596,-1.1402,-1.0907,-1.0226,-0.9503,-0.9618,-0.9564,-0.9401,-0.9273,-0.8899,-0.8445,-0.8445,-0.837,-0.834,-0.8431,0.0,0.0,0.0,0.0,-1.2254,-1.2649,-1.3667,-1.5061,-1.6774,-1.9763,-2.3407,-2.7442,-2.9446,-3.0635,-3.1423,-3.2011,-3.2305,-3.2011,-3.1797,-3.1623,-3.1476,-3.0608,-2.9887,-2.978,-2.9566,-2.9406,-2.9406,-2.9152,-2.8965,-2.8965,-2.8484,-2.8221,-2.8221,-2.8221,-2.8016,-2.7722,-2.7696,-2.7575,-2.7281,-2.7215,-2.7188,-2.7188,-2.6907,-2.672,-2.668,-2.6199,-2.601,-2.5879,-2.5678,-2.5745,-2.6104,-2.605,-2.6119,-2.6373,-2.6079,-2.6119,-2.6386,-2.6386,-2.6386,-2.6386,-2.6386,-2.636,-2.6293,-2.6106,-2.6146,-2.6293,0.0,0.0,0.0,0.0,0.0,0.0,0.0,0.0,0.0,0.0,-0.759,-0.7699,0.0,0.0,0.0,0.0,0.0,0.0,-0.7988,0.0,0.0,-0.8865,-0.9117,-0.9395,-0.9781,-0.9395,-0.9296,-0.9354,-0.9334,-0.9992,-1.128,-1.1674,-1.2311,-1.3105,-1.2908,-1.2359,-1.1525,-1.0509,-0.9667,-0.8972,-0.8993,-0.8886,-0.8628,-0.8608,-0.8472,-0.8347,-0.8347,-0.834,-0.834,-0.8431,-0.9362,0.0,0.0,0.0,-1.2224,-1.2414,-1.3364,-1.4702,-1.6215,-2.0387,-2.485,-2.7228,-2.9285,-3.0835,-3.1196,-3.1543,-3.1704,-3.141,-3.1517,-3.1436,-3.0675,-3.0194,-2.9753,-2.9245,-2.9125,-2.9098,-2.9098,-2.8845,-2.8671,-2.8671,-2.8364,-2.8221,-2.8221,-2.8221,-2.8016,-2.7722,-2.7696,-2.7575,-2.7281,-2.7028,-2.6881,-2.6881,-2.66,-2.6333,-2.6079,-2.6077,-2.5825,-2.5571,-2.5798,-2.6052,-2.6319,-2.6079,-2.6119,-2.6373,-2.6079,-2.6119,-2.6386,-2.6386,-2.6386,-2.6386,-2.6386,-2.6239,-2.6117,-2.6253,-2.6199,-2.6039,0.0,0.0,0.0,0.0,0.0,0.0,0.0,0.0,0.0,0.0,0.0,-0.7767,0.0,0.0,0.0,-0.7909,-0.7909,-0.7901,-0.7982,-0.8187,-0.8431,-0.8798,-0.8954,-0.9164,-0.9442,-0.9089,-0.8981,-0.913,-0.896,-0.9869,-1.1775,-1.1986,-1.2705,-1.3777,-1.3139,-1.2535,-1.1911,-1.0536,-0.9653,-0.9164,-0.8913,-0.8832,-0.8873,-0.8545,-0.8425,-0.8486,-0.8228,-0.814,-0.8167,-0.8309,-0.8827,-0.9332,-0.9167,0.0,0.0,0.0,-1.1112,-1.3195,-1.6997,-2.0514,-2.3808,-2.6533,-2.8136,-2.9272,-3.0074,-3.0474,-3.0608,-3.0314,-3.0354,-3.0381,-3.0154,-2.9606,-2.9098,-2.8845,-2.8657,-2.8604,-2.8778,-2.8537,-2.8417,-2.8591,-2.8337,-2.8221,-2.8221,-2.8221,-2.8033,-2.7495,-2.7455,-2.7188,-2.656,-2.656,-2.6426,-2.6092,-2.6132,-2.5999,-2.5718,-2.5545,-2.5317,-2.5024,-2.5491,-2.5772,-2.5905,-2.5945,-2.6119,-2.6373,-2.6079,-2.6119,-2.6386,-2.6386,-2.6386,-2.6386,-2.6386,-2.6306,-2.6199,-2.6159,-2.6172,-2.6199,0.0,0.0,0.0,0.0,0.0,0.0,0.0,0.0,0.0,0.0,0.0,0.0,0.0,0.0,0.0,0.0,-0.7868,-0.7867,-0.7982,-0.8147,-0.833,-0.8587,-0.8743,-0.8893,-0.9091,-0.8784,-0.875,-0.8885,-0.8743,-0.9842,-1.2128,-1.2393,-1.3295,-1.4658,-1.3797,-1.3037,-1.2311,-1.0962,-1.0134,-0.9666,-0.9062,-0.8933,-0.9055,-0.8689,-0.8689,-0.8825,-0.8366,-0.8217,-0.8231,-0.8357,-0.8452,-0.8513,-0.837,-0.8397,0.0,0.0,0.0,-1.1791,-1.6808,-1.9537,-2.17,-2.4909,-2.6533,-2.7655,-2.8778,-2.9379,-2.9633,-2.9419,-2.9312,-2.9325,-2.9539,-2.9045,-2.8577,-2.8497,-2.8297,-2.8315,-2.8457,-2.8283,-2.823,-2.8457,-2.8283,-2.8221,-2.8221,-2.8154,-2.7899,-2.7308,-2.7201,-2.6841,-2.6106,-2.6199,-2.6079,-2.5638,-2.5772,-2.5705,-2.5411,-2.5117,-2.489,-2.4756,-2.5197,-2.5438,-2.5518,-2.5825,-2.6079,-2.6266,-2.613,-2.6119,-2.6386,-2.6386,-2.6386,-2.6386,-2.6386,-2.6386,-2.636,-2.6146,-2.6199,-2.636,0.0,0.0,0.0,0.0,0.0,0.0,0.0,0.0,0.0,0.0,0.0,0.0,-0.7948,-0.7975,-0.7975,-0.7975,-0.7975,-0.7982,-0.7988,-0.7995,-0.8126,-0.8289,-0.8431,0.0,-0.873,-0.8574,-0.8642,-0.8885,-0.9055,-1.0265,-1.2291,-1.2861,-1.4075,-1.5737,-1.4984,-1.3926,-1.2644,-1.1714,-1.1063,-1.0561,-0.9537,-0.9055,-0.8925,-0.9225,-0.9334,-0.9306,-0.9001,-0.8838,-0.8817,-0.873,-0.8696,-0.8669,-0.852,-0.8479,-0.8425,0.0,0.0,0.0,-1.4417,-1.6722,-1.8778,-2.1845,-2.4569,-2.6694,-2.7589,-2.8457,-2.9085,-2.9072,-2.8845,-2.8657,-2.8671,-2.8631,-2.8511,-2.8301,-2.8234,-2.8234,-2.8248,-2.8234,-2.8234,-2.8248,-2.8234,-2.8221,-2.8221,-2.7883,-2.7589,-2.7281,-2.7001,-2.6707,-2.6386,-2.6119,-2.6037,-2.5932,-2.5678,-2.5398,-2.5104,-2.481,-2.4796,-2.5064,-2.509,-2.5251,-2.5518,-2.5825,-2.6037,-2.605,-2.6037,-2.6119,-2.6386,-2.6386,-2.6386,-2.6386,-2.6386,-2.6386,-2.6386,-2.6373,-2.6373,-2.6386,0.0,0.0,0.0,0.0,0.0,0.0,0.0,0.0,0.0,0.0,0.0,0.0,0.0,-0.7896,-0.7896,-0.7896,-0.7934,-0.7988,-0.7988,-0.7988,-0.8147,-0.8397,-0.8459,-0.8601,-0.8852,-0.871,-0.8682,-0.8791,-0.894,-0.989,-1.1586,-1.2372,-1.3295,-1.4278,-1.4197,-1.3844,-1.3207,-1.1626,-1.0758,-1.0378,-0.9713,-0.9591,-0.9768,-0.949,-0.9618,-0.9897,-0.9401,-0.9225,-0.9232,-0.9273,-0.9157,-0.8967,-0.8818,-0.8642,-0.8425,-0.8076,-0.8973,-1.0419,-1.2187,-1.4483,-1.7032,-1.9675,-2.2086,-2.4222,-2.5692,-2.6841,-2.7669,-2.7856,-2.8123,-2.831,-2.831,-2.831,-2.827,-2.8248,-2.8221,-2.8221,-2.8221,-2.8221,-2.8221,-2.8221,-2.7976,-2.7856,-2.7856,-2.7589,-2.7295,-2.7001,-2.6707,-2.6333,-2.5852,-2.5732,-2.5504,-2.5117,-2.5184,-2.509,-2.4796,-2.469,-2.469,-2.4796,-2.5184,-2.5317,-2.5264,-2.5932,-2.6132,-2.605,-2.6159,-2.6293,-2.6386,-2.6386,-2.6386,-2.6386,-2.6386,-2.6386,-2.6386,-2.6386,-2.6386,-2.6386,0.0,0.0,0.0,0.0,0.0,0.0,0.0,0.0,0.0,-0.7882,0.0,0.0,0.0,0.0,-0.7963,-0.7963,-0.8058,-0.8092,-0.7995,-0.7988,-0.8153,-0.8397,-0.8459,-0.8628,-0.8878,-0.8838,-0.8811,-0.8859,-0.9015,-0.9774,-1.1111,-1.1904,-1.2705,-1.3471,-1.337,-1.3464,-1.36,-1.2108,-1.1328,-1.1036,-1.0283,-1.0283,-1.0697,-1.0399,-1.0588,-1.0955,-1.0399,-1.0141,-1.0025,-0.9822,-0.9523,-0.9255,-0.9001,-0.8662,-0.8296,-0.8049,-0.8627,-0.9532,-1.0604,-1.2402,-1.4767,-1.7936,-1.9801,-2.1567,-2.4216,-2.5304,-2.6026,-2.6814,-2.7362,-2.7789,-2.8167,-2.814,-2.8114,-2.8207,-2.8221,-2.8221,-2.8221,-2.814,-2.7989,-2.7989,-2.7736,-2.7549,-2.7549,-2.7201,-2.6894,-2.6694,-2.6319,-2.5919,-2.5531,-2.5424,-2.5144,-2.4649,-2.4823,-2.4836,-2.4562,-2.4636,-2.4636,-2.4562,-2.5037,-2.517,-2.5104,-2.5785,-2.6039,-2.605,-2.6266,-2.6386,-2.6386,-2.6386,-2.6386,-2.6386,-2.6386,-2.6386,-2.6386,-2.6386,-2.6386,-2.6386,0.0,0.0,0.0,0.0,0.0,0.0,0.0,0.0,-0.7882,-0.7982,0.0,0.0,0.0,0.0,0.0,-0.8354,-0.8347,-0.8221,-0.8015,-0.7995,-0.8106,-0.8313,-0.8404,-0.8628,-0.8878,-0.8885,-0.9008,-0.92,-0.93,-0.9903,-1.0853,-1.1446,-1.2433,-1.3526,-1.2671,-1.2847,-1.3743,-1.3139,-1.282,-1.2596,-1.126,-1.1097,-1.1687,-1.1952,-1.2244,-1.2447,-1.2006,-1.1667,-1.1287,-1.0341,-0.9815,-0.9388,-0.9062,-0.8487,-0.8002,-0.7995,-0.8002,-0.83,0.0,0.0,0.0,-1.6494,-1.7661,-1.8852,-2.3056,-2.3875,-2.4195,-2.5945,-2.6547,-2.7028,-2.7993,-2.7843,-2.7749,-2.8127,-2.8194,-2.8207,-2.8207,-2.7869,-2.7682,-2.7682,-2.7415,-2.7241,-2.7241,-2.6707,-2.636,-2.636,-2.5825,-2.5504,-2.5504,-2.5224,-2.493,-2.4649,-2.4636,-2.4636,-2.4636,-2.4636,-2.4636,-2.4636,-2.4649,-2.4796,-2.509,-2.5384,-2.5678,-2.605,-2.6266,-2.6386,-2.6386,-2.6386,-2.6386,-2.6386,-2.6386,-2.6386,-2.6386,-2.6386,-2.6386,-2.6386,0.0,0.0,0.0,0.0,0.0,0.0,-0.8357,-0.8323,-0.8309,0.0,0.0,0.0,-0.8425,-0.877,-0.9009,-0.9062,-0.8879,-0.8642,-0.8377,-0.816,-0.8106,-0.8313,-0.8404,-0.8628,-0.8878,-0.8885,-0.8905,-0.8994,-0.9144,-0.9476,-0.9998,-1.0697,-1.1382,-1.202,-1.221,-1.2325,-1.2332,-1.1518,-1.1653,-1.2311,-1.1179,-1.147,-1.2542,-1.2074,-1.2216,-1.2637,-1.24,-1.2264,-1.2121,-1.166,-1.128,-1.0819,-0.9754,-0.8933,-0.8336,-0.8235,-0.8275,0.0,-0.8686,0.0,0.0,0.0,0.0,0.0,-1.91,-2.0786,-2.2352,-2.4128,-2.489,-2.5518,-2.6479,-2.6667,-2.6774,-2.6854,-2.7228,-2.7591,-2.7591,-2.7442,-2.7388,-2.7388,-2.6934,-2.6627,-2.6627,-2.6106,-2.5758,-2.5758,-2.5411,-2.5197,-2.5197,-2.4917,-2.4716,-2.4562,-2.4636,-2.4636,-2.4636,-2.4636,-2.4636,-2.4562,-2.485,-2.4997,-2.5104,-2.5611,-2.5879,-2.605,-2.6266,-2.6386,-2.6386,-2.6386,-2.6386,-2.6386,-2.6386,-2.6386,-2.6386,-2.6386,-2.6386,-2.6386,0.0,0.0,0.0,0.0,0.0,0.0,-0.8845,-0.8859,-0.8832,0.0,0.0,0.0,-0.8852,-0.9429,-0.972,-0.9496,-0.9259,-0.8994,-0.8696,-0.8336,-0.8228,-0.8445,-0.8472,-0.8682,-0.9117,-0.9062,-0.9062,-0.9123,-0.9144,-0.9303,-0.9429,-0.9992,-1.046,-1.0846,-1.1131,-1.1301,-1.1307,-1.0405,-1.0833,-1.206,-1.1633,-1.2135,-1.3119,-1.2861,-1.3098,-1.3546,-1.3397,-1.3342,-1.3247,-1.2644,-1.1986,-1.1192,-0.9842,0.0,0.0,-0.8554,0.0,0.0,0.0,0.0,0.0,0.0,0.0,0.0,-1.7256,-1.8431,-1.9711,-2.2045,-2.2939,-2.3661,-2.4676,-2.5104,-2.5344,-2.5451,-2.5865,-2.6386,-2.6987,-2.7081,-2.7028,-2.6921,-2.6493,-2.6159,-2.6039,-2.5611,-2.5331,-2.5331,-2.5064,-2.489,-2.489,-2.473,-2.4583,-2.4462,-2.4569,-2.4583,-2.4449,-2.4569,-2.4636,-2.4562,-2.481,-2.5024,-2.5277,-2.5611,-2.5905,-2.6146,-2.6319,-2.6386,-2.6386,-2.6386,-2.6386,-2.6386,-2.6386,-2.6386,-2.6386,-2.6386,-2.6386,-2.6386,0.0,0.0,0.0,0.0,0.0,-0.9344,-0.9456,-0.9462,-0.9429,0.0,-0.9232,-0.9293,-0.9639,-1.0344,-1.0527,-0.9863,-0.9605,-0.934,-0.8952,-0.8567,-0.8431,-0.8676,-0.8587,-0.8791,-0.9347,-0.9296,-0.9309,-0.9408,-0.9296,-0.9228,-0.9268,-0.9449,-0.9713,-0.993,-0.9856,-1.0086,-1.0527,-0.9863,-1.0412,-1.1769,-1.2203,-1.284,-1.3566,-1.3953,-1.4387,-1.4774,-1.4638,-1.4577,-1.4407,-1.3397,-1.2257,-1.1111,0.0,0.0,0.0,0.0,-0.8994,0.0,0.0,0.0,0.0,0.0,-1.1882,0.0,-1.6246,-1.6483,-1.6698,-1.9663,-2.0734,-2.154,-2.2791,-2.3327,-2.3607,-2.3861,-2.4209,-2.4957,-2.6426,-2.6653,-2.6573,-2.6319,-2.6039,-2.5758,-2.5491,-2.517,-2.4997,-2.5024,-2.4783,-2.4623,-2.4596,-2.4596,-2.4449,-2.4168,-2.4436,-2.4462,-2.4209,-2.4489,-2.4636,-2.4636,-2.4636,-2.4943,-2.5518,-2.5518,-2.5838,-2.6386,-2.6386,-2.6386,-2.6386,-2.6386,-2.6386,-2.6386,-2.6386,-2.6386,-2.6386,-2.6386,-2.6386,-2.6386,0.0,0.0,0.0,0.0,0.0,0.0,-1.0059,-0.9998,-1.0039,-1.0371,-1.05,-1.0806,-1.147,-1.1369,-1.1199,-1.1056,-1.0466,-0.9876,-0.9327,-0.8872,-0.8594,-0.8526,-0.873,-0.896,-0.9248,-0.9344,-0.9408,-0.9564,-0.9344,-0.9337,-0.9517,-0.9327,-0.9401,-0.9693,-0.9666,-0.9646,-0.9693,-1.048,-1.0934,-1.1082,-1.1477,-1.2684,-1.4292,-1.4265,-1.4604,-1.5092,-1.5065,-1.4977,-1.476,-1.3946,-1.2874,-1.1775,0.0,0.0,0.0,-0.9503,0.0,0.0,0.0,0.0,0.0,0.0,0.0,0.0,-1.2475,-1.3391,-1.485,-1.724,-1.7919,-1.8788,-2.1131,-2.179,-2.207,-2.2124,-2.2712,-2.3728,-2.5211,-2.5625,-2.5745,-2.5692,-2.5424,-2.5224,-2.517,-2.469,-2.4476,-2.4703,-2.4676,-2.4529,-2.4302,-2.4289,-2.4155,-2.3861,-2.4142,-2.4262,-2.4209,-2.4489,-2.4636,-2.4636,-2.4636,-2.4943,-2.5518,-2.5518,-2.5838,-2.6386,-2.6386,-2.6386,-2.6386,-2.6386,-2.6386,-2.6386,-2.6386,-2.6386,-2.6386,-2.6386,-2.6386,-2.6386,0.0,0.0,0.0,0.0,0.0,0.0,-1.0765,-1.0765,-1.0853,-1.1226,-1.1606,-1.1837,-1.1843,-1.1904,-1.1762,-1.1314,-1.0799,0.0,0.0,0.0,-0.8899,-0.8873,-0.8893,-0.9076,-0.9374,-0.9381,-0.9456,-0.9612,-0.9357,-0.9191,-0.9273,-0.9191,-0.9198,-0.9279,-0.9429,-0.9496,-0.9537,-1.0134,-1.069,-1.124,-1.206,-1.3152,-1.4312,-1.4462,-1.4841,-1.5289,-1.5208,-1.5038,-1.4692,-1.3641,-1.3037,0.0,-1.1321,-1.0887,-1.0724,0.0,-1.01,-1.0114,0.0,0.0,0.0,-1.0086,0.0,0.0,0.0,-1.1925,-1.2805,-1.4831,-1.5738,-1.6574,-1.8217,-1.9369,-2.0234,-2.0601,-2.1176,-2.2071,-2.3541,-2.4262,-2.4649,-2.4649,-2.4516,-2.4369,-2.4222,-2.4075,-2.4048,-2.4195,-2.4209,-2.4142,-2.3995,-2.3981,-2.3848,-2.3554,-2.3834,-2.3981,-2.3981,-2.4275,-2.4489,-2.4636,-2.4636,-2.4943,-2.5518,-2.5518,-2.5838,-2.6386,-2.6386,-2.6386,-2.6386,-2.6386,-2.6386,-2.6386,-2.6386,-2.6386,-2.6386,-2.6386,-2.6386,-2.6386,-0.934,0.0,0.0,0.0,-1.046,0.0,0.0,0.0,-1.1531,-1.1911,-1.2433,-1.2589,-1.2101,-1.2345,-1.2298,-1.1694,-1.1077,0.0,-1.0307,-0.9652,-0.9268,-0.9214,-0.9096,-0.9198,-0.9476,-0.9442,-0.9469,-0.9564,-0.9344,-0.911,-0.9028,-0.9083,-0.9096,-0.902,-0.9198,-0.9449,-0.9774,-0.972,-1.0432,-1.1708,-1.2881,-1.3573,-1.396,-1.4523,-1.4964,-1.5276,-1.5208,-1.5011,-1.4597,-1.3397,-1.3173,-1.3112,-1.145,-1.1341,0.0,0.0,0.0,0.0,0.0,0.0,0.0,0.0,0.0,-1.0253,0.0,0.0,0.0,-1.2683,-1.3919,-1.495,-1.5733,-1.7227,-1.8544,-1.9252,-1.976,-2.0454,-2.159,-2.2525,-2.322,-2.3554,-2.3447,-2.3313,-2.3247,-2.3407,-2.3514,-2.3514,-2.3567,-2.3594,-2.3594,-2.3661,-2.3541,-2.3247,-2.3527,-2.3714,-2.3768,-2.4062,-2.4342,-2.4636,-2.4636,-2.4943,-2.5518,-2.5518,-2.5838,-2.6386,-2.6386,-2.6386,-2.6386,-2.6386,-2.6386,-2.6386,-2.6386,-2.6386,-2.6386,-2.6386,-2.6386,-2.6386,-0.9262,-0.9422,0.0,0.0,-1.0337,0.0,0.0,0.0,-1.164,-1.2332,-1.2725,-1.3105,-1.3539,-1.3057,-1.2881,-1.3315,-1.1735,-1.0928,-1.1409,-1.0256,0.0,-0.9221,-0.9395,-0.9374,-0.8966,-0.9388,-0.9523,-0.9408,-0.9296,-0.9268,-0.9327,-0.9076,-0.9164,-0.951,-0.9008,-0.9381,-1.0371,-1.0051,-1.0921,-1.2427,-1.2976,-1.3227,-1.3383,-1.4367,-1.4774,-1.4848,-1.5092,-1.5079,-1.4841,-1.415,-1.3688,-1.3295,0.0,-1.2176,-1.1809,-1.1708,0.0,0.0,0.0,0.0,0.0,0.0,-1.1151,0.0,-0.9842,0.0,-1.0511,-1.1088,0.0,-1.4153,-1.5615,0.0,0.0,0.0,-1.8744,-1.9426,-1.9332,-2.008,-2.1216,-2.2779,-2.2351,-2.2164,-2.2846,-2.2712,-2.2565,-2.2565,-2.2819,-2.3035,-2.3035,-2.3233,-2.3233,-2.2926,-2.322,-2.35,-2.3768,-2.4062,-2.4342,-2.4636,-2.4636,-2.4943,-2.5518,-2.5518,-2.5838,-2.6386,-2.6386,-2.6386,-2.6386,-2.6386,-2.6386,-2.6386,-2.6386,-2.6386,-2.6386,-2.6386,-2.6386,-2.6386,-0.9221,-0.9462,0.0,0.0,-1.0236,0.0,0.0,-1.2047,-1.2739,-1.2874,-1.3458,-1.3926,-1.4089,-1.3668,-1.3444,-1.3614,-1.2644,-1.1938,-1.1755,-1.0968,0.0,-1.0202,-1.0066,-0.9951,-0.9842,-0.9768,-0.97,-0.9639,-0.9401,-0.932,-0.9374,-0.9252,-0.934,-0.9605,-0.9429,-0.9876,-1.0751,-1.0711,-1.1246,-1.2169,-1.28,-1.2942,-1.2935,-1.434,-1.4875,-1.4869,-1.4814,-1.4753,-1.4577,-1.3715,-1.3532,0.0,0.0,0.0,0.0,-1.204,0.0,0.0,0.0,0.0,0.0,0.0,0.0,0.0,-1.0019,0.0,-0.997,0.0,0.0,0.0,0.0,0.0,0.0,0.0,-1.6725,-1.7444,-1.8526,-1.8544,-1.9158,-2.1109,-2.0869,-2.0748,-2.1283,-2.1537,-2.151,-2.1176,-2.1737,-2.2031,-2.1857,-2.2458,-2.2739,-2.2605,-2.2899,-2.3287,-2.3768,-2.3888,-2.4182,-2.4636,-2.4636,-2.4943,-2.5504,-2.5344,-2.5678,-2.6373,-2.6213,-2.6239,-2.6386,-2.6386,-2.6386,-2.6386,-2.6386,-2.6386,-2.6386,-2.6386,-2.6386,-2.6386,-0.933,0.0,-0.9808,-0.9896,-1.0181,-1.0602,-1.1389,-1.24,-1.3119,-1.322,-1.3804,-1.4292,-1.4516,-1.4197,-1.4075,-1.434,-1.3614,-1.2942,-1.2474,-1.1796,-1.1253,-1.0833,-1.0649,-1.0453,-1.031,-1.0073,-0.9883,-0.9761,-0.9503,-0.9442,-0.9564,-0.9483,-0.9612,-0.9917,-0.9978,-1.0493,-1.1314,-1.1335,-1.1796,-1.2549,-1.3017,-1.3193,-1.3295,-1.4326,-1.4801,-1.4875,-1.4604,-1.4509,-1.4387,-1.3546,-1.3546,-1.3743,-1.2834,-1.2718,-1.2834,0.0,0.0,0.0,-1.1911,0.0,0.0,0.0,0.0,0.0,0.0,0.0,0.0,0.0,0.0,0.0,0.0,0.0,0.0,0.0,0.0,-1.603,0.0,-1.7411,-1.7916,-1.9666,-1.9893,-2.0027,-2.0321,-2.0601,-2.0575,-2.0147,-2.0561,-2.0842,-2.0869,-2.163,-2.2164,-2.2405,-2.2792,-2.3247,-2.3768,-2.3848,-2.4142,-2.4636,-2.4636,-2.4903,-2.5384,-2.5184,-2.5478,-2.6146,-2.6012,-2.6079,-2.6279,-2.636,-2.6386,-2.6386,-2.6386,-2.6386,-2.6386,-2.6386,-2.6386,-2.6386,-0.9564,-0.9605,-0.9659,-0.9802,-1.0188,-1.0785,-1.1681,-1.1742,-1.2094,-1.3241,-1.3417,-1.3878,-1.5031,-1.4631,-1.4808,-1.611,-1.4618,-1.3722,-1.3987,-1.2766,-1.164,-1.0765,-1.0989,-1.0731,-0.9863,-1.012,-1.0053,-0.9618,-0.9456,-0.9605,-0.9957,-0.9734,-0.9992,-1.0677,-1.0534,-1.1131,-1.223,-1.1932,-1.2745,-1.4197,-1.3919,-1.4245,-1.4835,-1.4306,-1.4367,-1.4726,-1.457,-1.4509,-1.4462,-1.4143,-1.4048,-1.4034,-1.3844,-1.36,0.0,0.0,0.0,0.0,0.0,0.0,0.0,-1.1647,0.0,0.0,0.0,0.0,-1.0631,0.0,0.0,0.0,0.0,0.0,0.0,0.0,0.0,0.0,0.0,0.0,-1.7916,-1.8851,-1.9706,-2.0334,-2.0628,-2.016,-1.9826,-1.9813,-1.9319,-1.9372,-2.0153,-2.0828,-2.1537,-2.2392,-2.3006,-2.346,-2.3768,-2.4048,-2.4342,-2.4636,-2.4636,-2.4796,-2.509,-2.5077,-2.5251,-2.5558,-2.5838,-2.6037,-2.5999,-2.6279,-2.6386,-2.6386,-2.6386,-2.6386,-2.6386,-2.6386,-2.6386,-2.6386,-1.0025,-1.0053,-1.0005,-0.9849,-1.0032,-1.0568,-1.166,-1.2379,-1.3227,-1.4421,-1.4841,-1.5479,-1.6686,-1.6456,-1.6395,-1.6856,-1.5981,-1.5235,-1.4835,-1.3919,-1.3214,-1.28,-1.2406,-1.1965,-1.1463,-1.1165,-1.0792,-1.0344,-1.0093,-1.01,-1.0337,-1.0148,-1.0399,-1.1009,-1.0962,-1.1545,-1.2589,-1.2678,-1.3098,-1.3722,-1.3919,-1.4502,-1.5208,-1.4706,-1.4543,-1.457,-1.4421,-1.4373,-1.4353,-1.4258,-1.4156,-1.4048,-1.3885,-1.3641,-1.3363,-1.3159,-1.3037,-1.2963,-1.2949,-1.2956,-1.2807,-1.2149,0.0,0.0,0.0,0.0,0.0,0.0,0.0,0.0,0.0,0.0,0.0,0.0,0.0,0.0,0.0,0.0,-1.6087,-1.7822,-1.8651,-1.9038,-1.8945,-1.8931,-1.8771,-1.8357,-1.833,-1.8624,-1.9332,-2.0294,-2.1136,-2.1817,-2.2605,-2.326,-2.3768,-2.4062,-2.4342,-2.4636,-2.4636,-2.4796,-2.5077,-2.4877,-2.505,-2.5504,-2.5411,-2.5598,-2.6037,-2.6066,-2.6213,-2.6386,-2.6386,-2.6386,-2.6386,-2.6386,-2.6507,-2.668,-1.0561,-1.0426,-1.0249,-1.0154,-1.0399,-1.0873,-1.1918,-1.3051,-1.415,-1.5133,-1.5791,-1.6564,-1.7609,-1.7453,-1.7358,-1.7575,-1.7046,-1.632,-1.5404,-1.4943,-1.4421,-1.379,-1.341,-1.2996,-1.2542,0.0,0.0,-1.0962,-1.0772,-1.0751,-1.0887,-1.0582,-1.0751,-1.1335,-1.1491,-1.1965,-1.2691,-1.3308,-1.3688,-1.3912,-1.4306,-1.4753,-1.514,-1.4848,-1.4713,-1.4645,-1.4387,-1.4299,-1.4299,-1.4299,-1.4238,-1.4136,-1.4034,-1.3838,-1.36,-1.3397,-1.3308,-1.3268,-1.3254,-1.3186,-1.301,-1.2562,-1.2074,0.0,-1.0636,0.0,-1.1212,0.0,0.0,0.0,0.0,0.0,0.0,0.0,0.0,0.0,0.0,-1.3529,-1.5028,-1.6547,-1.7779,-1.845,-1.8315,-1.8437,-1.8196,-1.7527,-1.7408,-1.7702,-1.841,-1.9466,-2.0468,-2.1363,-2.2352,-2.3222,-2.3768,-2.4062,-2.4342,-2.4636,-2.4636,-2.473,-2.4917,-2.473,-2.485,-2.5197,-2.5117,-2.5358,-2.5812,-2.5919,-2.6132,-2.6386,-2.6386,-2.6386,-2.6386,-2.6386,-2.6507,-2.6694,-1.1158,-1.0758,-1.0473,-1.0751,-1.1253,-1.183,-1.2447,-1.3661,-1.474,-1.5404,-1.6266,-1.7107,-1.786,-1.7684,-1.7738,-1.8301,-1.7806,-1.6978,-1.5818,-1.5839,-1.5255,-1.3824,-1.4007,-1.3797,-1.3064,0.0,0.0,0.0,-1.1443,-1.1497,-1.1613,-1.1016,-1.1043,-1.1619,-1.2081,-1.2372,-1.2583,-1.379,-1.4475,-1.4774,-1.5052,-1.5004,-1.4767,-1.474,-1.4828,-1.4916,-1.4462,-1.4299,-1.4299,-1.4299,-1.4299,-1.4299,-1.4299,-1.4197,-1.4014,-1.3736,-1.3743,-1.3783,-1.3505,-1.3431,-1.3315,-1.2881,-1.2542,-1.2115,0.0,0.0,-1.2101,0.0,0.0,0.0,0.0,0.0,0.0,0.0,0.0,0.0,0.0,0.0,0.0,-1.5059,-1.6987,-1.8475,-1.8824,-1.8528,-1.7995,-1.7246,-1.663,-1.6683,-1.7515,-1.8424,-1.9586,-2.1015,-2.2231,-2.3222,-2.3768,-2.4075,-2.4369,-2.4636,-2.4636,-2.4636,-2.4636,-2.4636,-2.4636,-2.4649,-2.4957,-2.5251,-2.5531,-2.5838,-2.6132,-2.6386,-2.6386,-2.64,-2.6413,-2.6426,-2.6426,-2.6493,-1.1538,-1.1735,-1.1925,-1.1891,-1.1742,-1.1972,-1.301,-1.3844,-1.4889,-1.6381,-1.7263,-1.8124,-1.9094,-1.9027,-1.8884,-1.883,-1.8464,-1.7935,-1.7182,-1.6748,-1.6252,-1.5649,-1.5269,-1.4821,-1.4292,-1.3919,-1.3397,-1.2718,-1.2162,-1.185,-1.1762,-1.1096,-1.1029,-1.1307,-1.1986,-1.2372,-1.2583,-1.379,-1.4536,-1.4909,-1.4869,-1.5011,-1.5187,-1.474,-1.474,-1.4916,-1.4462,-1.4299,-1.4299,-1.4299,-1.4299,-1.4299,-1.4299,-1.4197,-1.4055,-1.398,-1.3905,-1.3851,-1.3892,-1.3817,-1.3675,-1.3451,-1.3003,-1.2481,-1.1952,-1.2237,0.0,0.0,0.0,0.0,0.0,0.0,0.0,0.0,0.0,0.0,0.0,0.0,0.0,-1.3627,-1.5018,-1.6418,-1.7782,-1.6596,-1.6061,-1.6783,-1.6273,-1.6326,-1.7259,-1.8317,-1.9399,-2.0428,-2.2017,-2.3222,-2.3768,-2.4275,-2.4569,-2.4636,-2.4636,-2.4636,-2.4636,-2.4636,-2.4636,-2.4649,-2.4957,-2.5251,-2.5531,-2.5838,-2.6132,-2.6386,-2.6386,-2.652,-2.6734,-2.6961,-2.6907,-2.6787,-1.204,-1.2644,-1.3098,-1.2827,-1.2949,-1.3308,-1.3987,-1.4543,-1.5391,-1.6795,-1.7738,-1.8477,-1.9006,-1.9345,-1.9434,-1.9203,-1.885,-1.8355,-1.7684,-1.7392,-1.6958,-1.6334,-1.6042,-1.5628,-1.5045,-1.4529,0.0,-1.3275,0.0,-1.2081,-1.1918,-1.119,-1.0989,-1.1104,-1.1857,-1.2271,-1.2494,-1.3831,-1.4618,-1.4957,-1.4801,-1.4848,0.0,-1.4638,-1.4584,-1.4645,-1.4387,-1.4299,-1.4299,-1.4299,-1.4299,-1.4299,-1.4299,-1.4238,-1.417,-1.417,-1.4109,-1.4061,-1.415,-1.4061,-1.3905,-1.3756,-1.3417,-1.3003,-1.2556,-1.2651,-1.2657,0.0,-1.2244,-1.2325,0.0,0.0,0.0,0.0,0.0,0.0,0.0,0.0,0.0,0.0,-1.293,-1.3901,-1.5251,-1.554,-1.5832,-1.629,-1.6259,-1.638,-1.6804,-1.8143,-1.9212,-1.984,-2.1817,-2.31,-2.3567,-2.4409,-2.477,-2.4636,-2.4636,-2.4636,-2.4636,-2.4636,-2.4636,-2.4649,-2.481,-2.513,-2.5531,-2.5692,-2.6012,-2.6386,-2.6386,-2.656,-2.6854,-2.7161,-2.7161,-2.7094,-1.2596,-1.3424,-1.3987,-1.3539,-1.436,-1.5126,-1.5242,-1.5628,-1.6218,-1.71,-1.8111,-1.8687,-1.8531,-1.9223,-1.961,-1.9413,-1.904,-1.8511,-1.7792,-1.7826,-1.746,-1.6497,-1.6537,-1.6252,-1.5547,-1.4916,-1.4238,0.0,0.0,-1.2203,-1.1959,-1.1246,-1.0853,-1.088,-1.1701,-1.2182,-1.2522,-1.3858,-1.459,-1.4841,-1.4726,-1.4611,-1.4509,-1.4489,-1.4407,-1.4299,-1.4299,-1.4299,-1.4299,-1.4299,-1.4299,-1.4299,-1.4299,-1.4299,-1.4299,-1.4299,-1.4299,-1.4299,-1.4299,-1.4204,-1.4061,-1.3912,-1.3777,-1.3573,-1.3146,-1.3051,-1.2929,-1.2494,-1.2372,-1.221,-1.1762,0.0,0.0,0.0,0.0,0.0,0.0,0.0,0.0,0.0,0.0,0.0,-1.231,-1.4679,-1.5991,-1.5586,-1.6202,-1.6486,-1.6233,-1.7822,-1.8918,-1.9292,-2.1574,-2.2926,-2.3434,-2.4449,-2.489,-2.4743,-2.4716,-2.4676,-2.4636,-2.4676,-2.4676,-2.4562,-2.4716,-2.5037,-2.5518,-2.5598,-2.5945,-2.6453,-2.6453,-2.664,-2.6974,-2.7228,-2.7348,-2.7455,-1.3105,-1.3797,-1.4292,-1.3844,-1.4835,-1.5947,-1.6686,-1.7087,-1.7575,-1.8355,-1.9257,-1.9766,-1.9624,-1.9752,-1.9678,-1.9271,-1.9169,-1.8864,-1.8247,-1.8111,-1.7806,-1.7249,-1.7019,-1.6666,-1.6164,-1.5438,-1.4699,0.0,0.0,-1.2135,-1.1497,-1.0995,-1.0758,-1.0792,-1.1538,-1.2372,-1.3241,-1.3743,-1.4061,-1.4238,-1.434,-1.4428,-1.4502,-1.438,-1.4319,-1.4299,-1.4299,-1.4299,-1.4299,-1.4299,-1.4299,-1.4299,-1.4299,-1.4299,-1.4299,-1.4299,-1.4299,-1.4299,-1.4299,-1.4278,-1.4224,-1.4068,-1.4014,-1.3912,-1.3587,-1.3512,-1.3417,-1.3085,-1.282,-1.2515,-1.2067,0.0,0.0,0.0,0.0,0.0,0.0,0.0,0.0,0.0,0.0,-1.1345,-1.1364,-1.2549,-1.358,-1.4172,-1.529,-1.5965,-1.5912,-1.7114,-1.8183,-1.8971,-2.0815,-2.2512,-2.4035,-2.4249,-2.469,-2.5358,-2.5117,-2.4877,-2.4649,-2.489,-2.4863,-2.4663,-2.5144,-2.5411,-2.5545,-2.6039,-2.644,-2.6747,-2.6747,-2.7068,-2.7549,-2.7602,-2.7776,-2.8087,-1.4231,-1.4692,-1.5099,-1.512,-1.6042,-1.706,-1.788,-1.8531,-1.8884,-1.8782,-1.9203,-1.9434,-1.9203,-1.9657,-1.98,-1.9359,-1.9257,-1.8993,-1.8464,-1.8287,-1.7968,-1.7446,-1.7283,-1.6924,-1.632,-1.5567,-1.4855,-1.419,0.0,0.0,0.0,-1.0887,-1.0561,-1.0521,-1.1185,-1.2155,-1.3295,-1.3437,-1.3715,-1.4089,-1.4238,-1.434,-1.4394,-1.4326,-1.4299,-1.4299,-1.4299,-1.4299,-1.4299,-1.4299,-1.4299,-1.4299,-1.4299,-1.4299,-1.4299,-1.4299,-1.4299,-1.4299,-1.4299,-1.4299,-1.4265,-1.4109,-1.4075,-1.3994,-1.3695,-1.3627,-1.3546,-1.3234,-1.3057,-1.2773,-1.2176,-1.1389,0.0,0.0,0.0,0.0,0.0,0.0,0.0,0.0,0.0,0.0,0.0,-1.0957,-1.2349,-1.3886,-1.5401,-1.6152,-1.5798,-1.6941,-1.7929,-1.8677,-2.0695,-2.2338,-2.35,-2.4569,-2.509,-2.5064,-2.5077,-2.493,-2.4636,-2.4783,-2.477,-2.4663,-2.5104,-2.5371,-2.5558,-2.6146,-2.656,-2.6827,-2.6827,-2.7175,-2.7696,-2.7696,-2.7883,-2.8221,-1.5384,-1.5689,-1.6056,-1.6476,-1.7317,-1.8124,-1.8728,-1.959,-1.9942,-1.9237,-1.9237,-1.9203,-1.8905,-1.961,-1.9922,-1.9468,-1.9291,-1.9027,-1.8599,-1.8409,-1.807,-1.7534,-1.7453,-1.7121,-1.6469,-1.5683,-1.4923,0.0,0.0,0.0,-1.1416,0.0,0.0,-1.05,-1.1151,-1.204,-1.3044,-1.3268,-1.3641,-1.4089,-1.4272,-1.4346,-1.434,-1.4312,-1.4299,-1.4299,-1.4299,-1.4299,-1.4299,-1.4299,-1.4299,-1.4299,-1.4299,-1.4299,-1.4299,-1.4299,-1.4299,-1.4299,-1.4299,-1.4299,-1.4272,-1.415,-1.4122,-1.4048,-1.3783,-1.3695,-1.36,-1.3322,-1.3166,-1.2888,-1.2271,-1.1687,0.0,0.0,0.0,0.0,0.0,0.0,0.0,0.0,0.0,0.0,-0.8601,-0.9969,-1.1513,-1.3164,-1.5059,-1.5924,-1.5417,-1.6788,-1.7862,-1.8477,-2.0641,-2.2205,-2.3046,-2.473,-2.5331,-2.4823,-2.513,-2.5077,-2.473,-2.4863,-2.4877,-2.4836,-2.5144,-2.5438,-2.5745,-2.6266,-2.6653,-2.6921,-2.6987,-2.7335,-2.7789,-2.7789,-2.7936,-2.8221,-1.6151,-1.6558,-1.6951,-1.7263,-1.8179,-1.8884,-1.8959,-1.9834,-2.0471,-2.0383,-2.0383,-2.0275,-1.9997,-2.0051,-1.9922,-1.9468,-1.9291,-1.9081,-1.8762,-1.8477,-1.8179,-1.7826,-1.7561,-1.7263,-1.6924,-1.6049,-1.5031,0.0,0.0,-1.2162,0.0,0.0,0.0,-1.1118,-1.1986,-1.2447,-1.263,-1.358,-1.4021,-1.4095,-1.438,-1.4489,-1.4475,-1.4346,-1.4299,-1.4299,-1.4299,-1.4299,-1.4299,-1.4299,-1.4299,-1.4299,-1.4299,-1.4299,-1.4299,-1.4299,-1.4299,-1.4299,-1.4299,-1.4299,-1.4299,-1.4285,-1.4278,-1.4238,-1.4068,-1.3919,-1.3777,-1.362,-1.3152,-1.2705,-1.2501,-1.2081,-1.1674,0.0,0.0,0.0,0.0,0.0,-1.0385,0.0,0.0,0.0,-0.8784,-0.9938,-1.0695,-1.0593,-1.2933,-1.4276,-1.4088,-1.6317,-1.7862,-1.8477,-2.0254,-2.1991,-2.3674,-2.4142,-2.473,-2.5438,-2.5732,-2.5585,-2.5064,-2.5585,-2.5692,-2.5451,-2.5745,-2.6039,-2.6333,-2.6653,-2.6961,-2.7255,-2.7509,-2.7816,-2.8181,-2.8181,-2.8207,-2.8221,-1.7473,-1.7514,-1.7738,-1.8498,-1.883,-1.9169,-1.9712,-2.022,-2.0539,-2.0539,-2.0539,-2.0471,-2.0261,-2.0153,-1.9963,-1.961,-1.9434,-1.9169,-1.8782,-1.8565,-1.8267,-1.788,-1.7575,-1.7283,-1.6985,-1.6273,-1.5452,0.0,0.0,0.0,0.0,0.0,-1.1212,-1.1321,-1.1857,-1.2352,-1.2813,-1.3315,-1.3688,-1.396,-1.4265,-1.4387,-1.438,-1.4319,-1.4299,-1.4299,-1.4299,-1.4299,-1.4299,-1.4299,-1.4299,-1.4299,-1.4299,-1.4299,-1.4299,-1.4299,-1.4299,-1.4299,-1.4299,-1.4299,-1.4299,-1.4299,-1.4299,-1.4258,-1.4109,-1.4021,-1.3939,-1.3783,-1.3424,-1.3085,-1.2935,-1.2535,-1.2196,-1.2074,0.0,0.0,0.0,0.0,0.0,0.0,0.0,0.0,0.0,-0.9017,-0.9376,-0.9576,-1.1582,-1.3171,-1.4107,-1.5108,-1.6585,-1.8648,-2.012,-2.1617,-2.3207,-2.4396,-2.5077,-2.5264,-2.5732,-2.5745,-2.5344,-2.5585,-2.5718,-2.5785,-2.5905,-2.6119,-2.6413,-2.6707,-2.7001,-2.7295,-2.7589,-2.7883,-2.8221,-2.8221,-2.8221,-2.8221,-1.8511,-1.8443,-1.862,-1.959,-1.9556,-1.961,-2.0295,-2.0438,-2.0485,-2.0539,-2.0505,-2.0438,-2.0349,-2.0187,-1.9997,-1.9752,-1.9535,-1.9271,-1.8918,-1.8674,-1.8375,-1.8023,-1.7629,0.0,-1.7114,-1.6517,-1.5866,-1.5167,-1.4401,0.0,0.0,-1.1979,-1.1681,-1.1803,-1.2189,-1.2657,-1.318,-1.3498,-1.3844,-1.419,-1.436,-1.4428,-1.4421,-1.4333,-1.4299,-1.4299,-1.4299,-1.4299,-1.4299,-1.4299,-1.4299,-1.4299,-1.4299,-1.4299,-1.4299,-1.4299,-1.4299,-1.4299,-1.4299,-1.4299,-1.4299,-1.4299,-1.4299,-1.4272,-1.4163,-1.4102,-1.4027,-1.3871,-1.3607,-1.3383,-1.3315,-1.2942,-1.261,-1.2515,0.0,0.0,0.0,-1.0995,0.0,0.0,-0.9327,-0.8906,-0.8581,-0.8418,-0.8783,-0.975,-1.1028,-1.2334,-1.3768,-1.4823,-1.6478,-1.8821,-2.0307,-2.1724,-2.3113,-2.4636,-2.5331,-2.5211,-2.5798,-2.5932,-2.5651,-2.5732,-2.5892,-2.6079,-2.6079,-2.6253,-2.6547,-2.6827,-2.7121,-2.7415,-2.7709,-2.7963,-2.8221,-2.8221,-2.8221,-2.8221,-1.904,-1.9305,-1.9644,-2.0397,-2.0397,-2.0363,-2.0526,-2.0417,-2.0383,-2.0526,-2.0417,-2.0329,-2.0329,-2.0187,-2.0031,-1.9888,-1.961,-1.9359,-1.9203,-1.8776,-1.8464,-1.8321,-1.7738,-1.7419,-1.7412,-1.6822,-1.6225,-1.5628,0.0,0.0,-1.3376,-1.2922,-1.2712,-1.2739,-1.3342,-1.3614,-1.3668,-1.4407,-1.4814,-1.4943,-1.4794,-1.4733,-1.4706,-1.4414,-1.4299,-1.4299,-1.4299,-1.4299,-1.4299,-1.4299,-1.4299,-1.4299,-1.4299,-1.4299,-1.4299,-1.4299,-1.4299,-1.4299,-1.4299,-1.4299,-1.4299,-1.4299,-1.4299,-1.4299,-1.4299,-1.4183,-1.4027,-1.3871,-1.3607,-1.3444,-1.3593,-1.3261,-1.2854,-1.2549,0.0,0.0,0.0,-1.1287,0.0,-1.0217,-0.9903,-0.9517,-0.8777,-0.8567,-0.9271,-1.1133,-1.1292,-1.1745,-1.2749,-1.6103,-1.8249,-1.8905,-2.0909,-2.2552,-2.3754,-2.4636,-2.5224,-2.5518,-2.6106,-2.6226,-2.6037,-2.6253,-2.6386,-2.6386,-2.6386,-2.6547,-2.6841,-2.7134,-2.7428,-2.7722,-2.8016,-2.8221,-2.8221,-2.8221,-2.8221,-2.8221,-1.9732,-1.9942,-2.0119,-2.0349,-2.0438,-2.0417,-2.0261,-2.0295,-2.0309,-2.0241,-2.0207,-2.0173,-2.0173,-2.0031,-1.9963,-2.0031,-1.9657,-1.9359,-1.9217,-1.8884,-1.8586,-1.8335,-1.7935,-1.767,-1.7582,-1.7182,-1.6734,-1.6239,-1.5893,-1.514,-1.4014,-1.4075,-1.3939,-1.3668,-1.4163,-1.4441,-1.4557,-1.4801,-1.493,-1.4957,-1.4801,-1.4679,-1.4577,-1.4482,-1.4387,-1.4299,-1.4299,-1.4299,-1.4299,-1.4299,-1.4299,-1.4299,-1.4299,-1.4299,-1.4299,-1.4299,-1.4299,-1.4299,-1.4299,-1.4299,-1.4299,-1.4299,-1.4299,-1.4299,-1.4299,-1.4265,-1.4183,-1.4027,-1.3926,-1.3838,-1.3783,-1.358,-1.3315,-1.301,-1.2698,0.0,-1.143,0.0,-1.0521,-0.9836,-0.9435,-0.9083,-0.8743,-0.8764,-0.9113,-0.9927,-1.0787,-1.2414,-1.4931,-1.5367,-1.6841,-1.9727,-2.0232,-2.0951,-2.1813,-2.4425,-2.501,-2.3597,-2.5478,-2.6346,-2.6253,-2.6346,-2.6493,-2.668,-2.668,-2.5941,-2.4808,-2.5078,-2.5237,-2.5347,-2.57,-2.6758,-2.8221,-2.8221,-2.8221,-2.8221,-2.0139,-2.0261,-2.0349,-2.0397,-2.0383,-2.0329,-2.0207,-2.0173,-2.0139,-2.0098,-2.0051,-2.0031,-2.0098,-1.9922,-1.9854,-1.9997,-1.9657,-1.9359,-1.9217,-1.8918,-1.864,-1.8335,-1.8023,-1.7792,-1.765,-1.7405,-1.7114,-1.6775,-1.6368,-1.573,-1.4882,-1.4957,-1.4841,-1.4584,-1.4869,-1.5045,-1.514,-1.5201,-1.5187,-1.512,-1.497,-1.4814,-1.4679,-1.4618,-1.4509,-1.438,-1.438,-1.4346,-1.4299,-1.4299,-1.4299,-1.4299,-1.4299,-1.4299,-1.4299,-1.4299,-1.4299,-1.4299,-1.4299,-1.4299,-1.4299,-1.4299,-1.4299,-1.4299,-1.4299,-1.4299,-1.4272,-1.4177,-1.4116,-1.4041,-1.3946,-1.3763,-1.3532,-1.322,-1.2793,-1.2244,-1.1497,0.0,-1.0276,0.0,0.0,-0.9171,-0.913,-0.932,-0.9724,-1.0562,-1.1579,-1.3181,-1.566,-1.4942,-1.5689,-1.8318,-1.8754,-1.9366,-2.0177,-2.2454,-2.3284,-2.2905,-2.5356,-2.6547,-2.656,-2.6667,-2.6814,-2.6987,-2.6987,-2.5816,-2.3997,-2.4149,-2.376,-2.3087,-2.3328,-2.485,-2.6758,-2.5884,-2.6151,-2.6927,-2.0275,-2.0329,-2.0383,-2.0505,-2.0295,-2.0153,-2.0275,-2.0051,-1.9922,-2.0051,-1.9942,-1.9908,-2.0051,-1.982,-1.9712,-1.9854,-1.959,-1.9359,-1.9217,-1.8918,-1.862,-1.8335,-1.8036,-1.7812,-1.767,-1.7528,-1.7372,-1.7209,-1.6639,-1.6205,-1.5906,-1.5635,-1.5499,-1.5486,-1.5486,-1.5486,-1.5479,-1.5615,-1.5581,-1.5432,-1.5276,-1.512,-1.497,-1.4828,-1.4672,-1.4523,-1.4516,-1.4428,-1.4312,-1.4306,-1.4299,-1.4299,-1.4299,-1.4299,-1.4299,-1.4299,-1.4299,-1.4299,-1.4299,-1.4299,-1.4299,-1.4299,-1.4306,-1.4312,-1.4299,-1.4306,-1.4312,-1.4299,-1.4183,-1.4089,-1.4089,-1.3844,-1.3546,-1.3241,-1.2793,-1.2223,-1.1463,-1.0765,-1.0304,-1.0256,-0.9924,-0.9747,-0.9856,-1.0148,-1.0953,-1.2395,-1.3028,-1.3799,-1.4987,-1.4652,-1.4801,-1.5538,-1.6785,-1.7856,-1.8769,-1.9472,-2.0974,-2.3416,-2.5731,-2.6854,-2.6867,-2.7134,-2.72,-2.7049,-2.7049,-2.5861,-2.3725,-2.3725,-2.2662,-2.0962,-2.0962,-2.2428,-2.4166,-2.1998,-2.26,-2.4423,-2.0295,-2.0417,-2.0471,-2.0397,-2.0329,-2.0207,-2.001,-1.9922,-1.9854,-1.9766,-1.9732,-1.9732,-1.9766,-1.9698,-1.9678,-1.9712,-1.9434,-1.9237,-1.9203,-1.8816,-1.8511,-1.8321,-1.8145,-1.7968,-1.7812,-1.7772,-1.7629,-1.7365,-1.6998,-1.6727,-1.6537,-1.6469,-1.6368,-1.6259,-1.6259,-1.6198,-1.609,-1.6008,-1.5886,-1.5737,-1.5588,-1.5371,-1.5126,-1.5092,-1.4916,-1.4672,-1.4557,-1.4489,-1.4441,-1.434,-1.4299,-1.4299,-1.4299,-1.4299,-1.4299,-1.4299,-1.4299,-1.4299,-1.4299,-1.4299,-1.4299,-1.4299,-1.438,-1.4434,-1.4326,-1.4387,-1.4428,-1.4326,-1.4272,-1.4245,-1.4245,-1.3994,-1.3695,-1.3397,-1.2779,-1.204,-1.1172,-1.09,-1.0575,0.0,-1.0344,-1.0555,-1.0351,-1.0609,-1.0905,-1.1262,-1.1571,-1.1891,-1.215,-1.257,-1.3961,-1.6392,-1.636,-1.6536,-1.6853,-2.0426,-2.3496,-2.5905,-2.6771,-2.7161,-2.7161,-2.7228,-2.6458,-2.4974,-2.4974,-2.2818,-1.9337,-1.9337,-1.9017,-1.8627,-1.8627,-2.0009,-2.1998,-2.1394,-2.1566,-2.1998,-2.0397,-2.0485,-2.0526,-2.0438,-2.0363,-2.0241,-2.001,-1.9922,-1.982,-1.9678,-1.9664,-1.9664,-1.9664,-1.9664,-1.9664,-1.9664,-1.9379,-1.9203,-1.9203,-1.8776,-1.9034,-2.0215,-2.0154,-2.0645,-2.1781,-2.169,-2.1466,-2.1102,-1.9586,-1.879,-1.87,-1.7293,-1.6707,-1.6625,-1.6551,-1.6476,-1.6395,-1.6246,-1.6096,-1.5947,-1.5798,-1.5554,-1.5289,-1.5289,-1.5099,-1.4835,-1.4753,-1.4679,-1.459,-1.4448,-1.4394,-1.4387,-1.4319,-1.4299,-1.4299,-1.4299,-1.4346,-1.4394,-1.4394,-1.4448,-1.4502,-1.4502,-1.4557,-1.4597,-1.4516,-1.4509,-1.4489,-1.4414,-1.4346,-1.4299,-1.4299,-1.4048,-1.3702,-1.3268,-1.263,-1.1898,-1.0995,-1.0759,-1.0663,-1.046,-1.086,-1.1165,-1.1206,-1.1545,-1.1575,-1.1298,-1.1681,-1.1789,-1.1657,-1.2223,-1.3297,-1.4692,-1.4796,-1.4908,-1.5005,-1.9598,-2.2653,-2.4032,-2.6393,-2.7468,-2.7468,-2.7602,-2.6472,-2.4395,-2.4395,-2.1882,-1.7763,-1.7763,-1.7159,-1.621,-1.621,-1.7588,-1.9488,-1.8462,-1.8714,-1.9662,-2.0485,-2.0526,-2.0539,-2.0539,-2.0417,-2.0295,-2.0153,-1.9976,-1.9841,-1.9712,-1.9678,-1.9664,-1.9664,-1.9678,-1.9678,-1.9664,-1.9413,-1.9257,-1.9203,-1.8796,-1.9505,-2.1888,-2.2241,-2.3479,-2.5772,-2.5955,-2.5857,-2.5474,-2.2956,-2.1725,-2.1613,-1.9202,-1.8011,-1.8004,-1.7865,-1.7588,-1.7151,-1.7003,-1.6647,-1.6103,-1.5947,-1.571,-1.5445,-1.5445,-1.5262,-1.5004,-1.4977,-1.4889,-1.4753,-1.4597,-1.455,-1.4523,-1.4407,-1.4367,-1.4367,-1.4367,-1.4468,-1.4563,-1.4496,-1.4577,-1.4679,-1.4699,-1.4706,-1.4706,-1.4706,-1.4624,-1.4536,-1.4516,-1.4414,-1.4326,-1.4306,-1.4048,-1.3661,-1.3119,-1.2488,-1.1809,-1.1084,0.0,-1.0792,-1.122,-1.147,-1.1809,-1.2189,-1.2576,-1.2603,-1.2135,-1.2494,-1.2603,-1.2311,-1.2759,-1.2861,-1.2501,-1.3105,-1.3839,-1.466,-1.8661,-2.1023,-2.1703,-2.5833,-2.7762,-2.7776,-2.8114,-2.6927,-2.4691,-2.4337,-2.1739,-1.7763,-1.7413,-1.6122,-1.4299,-1.4299,-1.5513,-1.7071,-1.4992,-1.5601,-1.7238,-2.0329,-2.0451,-2.0539,-2.0539,-2.0417,-2.0329,-2.0295,-2.0051,-1.9875,-1.9841,-1.9732,-1.9664,-1.9664,-1.9766,-1.9786,-1.9678,-1.9624,-1.9488,-1.9217,-1.8905,-1.8836,-1.9001,-2.1144,-2.2507,-2.2857,-2.4846,-2.5882,-2.5811,-2.4993,-2.4598,-2.4598,-2.4045,-2.3933,-2.3933,-2.3894,-2.2458,-2.0159,-1.9971,-1.8497,-1.6259,-1.611,-1.5866,-1.5601,-1.5601,-1.5411,-1.5133,-1.5011,-1.4957,-1.4909,-1.4753,-1.4706,-1.4699,-1.4679,-1.4672,-1.4672,-1.4672,-1.478,-1.4814,-1.4434,-1.4346,-1.4394,-1.4516,-1.455,-1.455,-1.455,-1.4631,-1.4665,-1.4536,-1.4496,-1.4441,-1.4326,-1.4048,-1.3729,-1.339,-1.2617,-1.1917,-1.1219,-1.1314,-1.1423,-1.1362,-1.2271,-1.2922,-1.299,-1.3064,-1.3173,-1.3336,-1.2963,-1.2922,-1.3363,-1.3349,-1.3363,-1.3417,-1.3532,-1.5493,-1.95,-2.0472,-2.2865,-2.6607,-2.7671,-2.8154,-2.8154,-2.8207,-2.6927,-2.4605,-2.2611,-2.0269,-1.7676,-1.569,-1.4646,-1.4299,-1.4299,-1.4564,-1.4822,-1.4476,-1.4557,-1.4822,-2.0315,-2.0438,-2.0539,-2.0539,-2.0485,-2.0383,-2.0227,-2.0085,-1.9942,-1.9786,-1.9698,-1.9698,-1.9766,-1.9766,-1.9766,-1.9766,-2.1258,-2.203,-2.1685,-1.9854,-2.0188,-2.3178,-2.4226,-2.6048,-2.8945,-3.0095,-3.0582,-3.0193,-2.8495,-2.7598,-2.7374,-2.5932,-2.5215,-2.5215,-2.5215,-2.4436,-2.3203,-2.2875,-2.1885,-2.0694,-2.0393,-1.9338,-1.7866,-1.7866,-1.6803,-1.5296,-1.5228,-1.5153,-1.5065,-1.4916,-1.4916,-1.4964,-1.4889,-1.4862,-1.4862,-1.4862,-1.4916,-1.4943,-1.4808,-1.4719,-1.4679,-1.474,-1.4699,-1.4658,-1.474,-1.4746,-1.4746,-1.476,-1.4624,-1.4489,-1.4428,-1.4102,-1.3743,-1.3451,-1.2644,-1.1965,-1.1687,-1.1701,-1.183,-1.2081,-1.2888,-1.3451,-1.3526,-1.3607,-1.3648,-1.3634,-1.337,-1.3336,-1.3614,-1.3559,-1.3627,-1.3858,-1.3871,-1.4958,-1.7165,-1.9819,-2.2182,-2.4237,-2.6948,-2.8221,-2.8136,-2.6927,-2.502,-2.2697,-2.0356,-1.8025,-1.5858,-1.4734,-1.4299,-1.4299,-1.4299,-1.4299,-1.4299,-1.4299,-1.4299,-1.4299,-2.0386,-2.0978,-2.1574,-2.1646,-2.2264,-2.2413,-2.1463,-2.1866,-2.1726,-2.0038,-2.045,-2.0579,-1.9943,-1.9786,-1.9786,-1.982,-2.2624,-2.4341,-2.3843,-2.2133,-2.3024,-2.7363,-2.7656,-2.9986,-3.4765,-3.4803,-3.4536,-3.4095,-3.1855,-3.0647,-3.0339,-2.811,-2.7159,-2.7159,-2.7159,-2.6751,-2.6106,-2.5697,-2.5188,-2.4507,-2.4113,-2.2343,-1.9813,-1.9813,-1.7982,-1.5466,-1.5466,-1.5391,-1.5269,-1.516,-1.5201,-1.5269,-1.516,-1.5126,-1.5126,-1.5126,-1.5099,-1.5079,-1.512,-1.5025,-1.493,-1.4964,-1.4855,-1.4774,-1.4889,-1.4855,-1.4808,-1.4855,-1.4706,-1.4543,-1.4475,-1.415,-1.3797,-1.3498,0.0,-1.2257,-1.2223,-1.2149,-1.2291,-1.2827,-1.3383,-1.379,-1.3933,-1.4055,-1.4027,-1.3804,-1.3749,-1.3749,-1.3783,-1.3749,-1.3851,-1.4116,-1.4122,-1.444,-1.508,-1.8627,-2.0962,-2.2084,-2.5629,-2.7701,-2.8136,-2.6321,-2.4252,-2.1911,-1.9575,-1.7247,-1.508,-1.4564,-1.4299,-1.4299,-1.4299,-1.4299,-1.4299,-1.4299,-1.4299,-1.4299,-2.0706,-2.2573,-2.4649,-2.5098,-2.7499,-2.8408,-2.5599,-2.7412,-2.691,-2.0802,-2.2489,-2.3066,-2.0057,-1.9908,-1.9963,-1.9698,-2.2662,-2.4389,-2.4036,-2.6383,-2.7638,-2.7277,-2.9411,-3.2042,-3.5058,-3.4897,-3.4736,-3.4696,-3.3944,-3.3563,-3.3537,-3.3031,-3.2799,-3.2799,-3.2799,-3.1365,-2.8991,-2.8813,-2.7148,-2.4517,-2.4373,-2.2466,-1.9813,-1.9813,-1.806,-1.5622,-1.5622,-1.5615,-1.5601,-1.5594,-1.5594,-1.5601,-1.5594,-1.5588,-1.5588,-1.5588,-1.5493,-1.5323,-1.5059,-1.4875,-1.4794,-1.4936,-1.4855,-1.474,-1.4753,-1.4862,-1.4875,-1.4604,-1.4638,-1.4638,-1.4367,-1.4177,-1.396,-1.3661,-1.3207,-1.2847,-1.2698,-1.2793,-1.2996,-1.3315,-1.3756,-1.4102,-1.4251,-1.4278,-1.4272,-1.4251,-1.4116,-1.4102,-1.4245,-1.4116,-1.4116,-1.4278,-1.4285,-1.533,-1.7501,-1.7851,-2.0183,-2.4434,-2.4776,-2.6066,-2.8221,-2.8052,-2.6673,-2.4337,-2.1998,-1.9662,-1.7326,-1.5168,-1.4299,-1.4299,-1.4299,-1.4299,-1.4299,-1.4299,-1.4299,-1.4299,-2.3745,-2.5712,-2.7869,-2.8275,-2.9126,-2.9336,-2.8085,-2.8905,-2.8627,-2.6089,-2.6731,-2.7064,-2.5794,-2.5709,-2.5709,-2.5683,-2.8622,-3.0182,-2.9711,-3.2505,-3.2916,-3.0009,-3.2651,-3.4471,-3.5204,-3.5084,-3.495,-3.4763,-3.4362,-3.4068,-3.3881,-3.3561,-3.3414,-3.3414,-3.3414,-3.2799,-3.1856,-3.1575,-3.0788,-2.9517,-2.9238,-2.7352,-2.4725,-2.4725,-2.1988,-1.8172,-1.8172,-1.7054,-1.5642,-1.5642,-1.5696,-1.5771,-1.5771,-1.5771,-1.5757,-1.5669,-1.5601,-1.5527,-1.5418,-1.514,-1.4896,-1.4957,-1.4855,-1.5125,-1.6758,-1.7194,-1.7692,-1.9205,-1.8259,-1.71,-1.6974,-1.557,-1.4306,-1.4197,-1.3648,-1.3275,-1.3403,-1.4527,-1.4967,-1.3803,-1.5268,-1.5878,-1.4469,-1.4299,-1.4299,-1.4299,-1.4245,-1.4238,-1.4299,-1.4245,-1.4238,-1.4299,-1.4299,-1.4734,-1.5601,-1.7071,-1.8714,-2.0443,-2.3298,-2.4423,-2.3898,-2.3898,-2.26,-2.0269,-1.7938,-1.6473,-1.5601,-1.4646,-1.4299,-1.4299,-1.4299,-1.4299,-1.4299,-1.4299,-1.4299,-1.4299,-2.7053,-2.8836,-3.1031,-3.147,-3.207,-3.2246,-3.1209,-3.1842,-3.1636,-2.9538,-3.0133,-3.0382,-2.94,-2.9339,-2.9309,-2.9291,-3.2107,-3.37,-3.3195,-3.5824,-3.6119,-3.3224,-3.4911,-3.5752,-3.5338,-3.5244,-3.5097,-3.4897,-3.4509,-3.4215,-3.4015,-3.3601,-3.3414,-3.3414,-3.3414,-3.3414,-3.34,-3.32,-3.2893,-3.2629,-3.2425,-3.056,-2.7897,-2.7897,-2.5205,-2.1227,-2.0294,-1.8744,-1.7006,-1.6139,-1.5886,-1.5927,-1.5927,-1.5927,-1.59,-1.575,-1.571,-1.5696,-1.5649,-1.5411,-1.5167,-1.512,-1.4991,-1.5349,-1.7041,-1.81,-1.9144,-2.0894,-2.0463,-1.9761,-1.9698,-1.8124,-1.6868,-1.6813,-1.5711,-1.5253,-1.6246,-1.6916,-1.7019,-1.6332,-1.726,-1.7216,-1.5521,-1.4734,-1.4299,-1.4299,-1.4299,-1.4299,-1.4299,-1.4299,-1.4299,-1.4299,-1.4299,-1.4299,-1.4299,-1.5858,-1.7071,-1.7851,-2.1048,-2.2084,-2.1221,-2.1221,-1.9922,-1.7676,-1.6122,-1.4992,-1.4299,-1.4299,-1.4299,-1.4299,-1.4299,-1.4299,-1.4306,-1.4346,-1.4367,-1.4373,-3.006,-3.184,-3.4088,-3.4497,-3.7152,-3.806,-3.5143,-3.7165,-3.6739,-3.0351,-3.2276,-3.3031,-2.9683,-2.939,-2.942,-2.9327,-3.2147,-3.37,-3.3195,-3.5275,-3.65,-3.65,-3.5939,-3.5631,-3.5631,-3.5351,-3.5191,-3.5191,-3.4603,-3.4322,-3.4295,-3.3694,-3.3414,-3.3414,-3.3414,-3.3414,-3.3414,-3.3414,-3.308,-3.267,-3.2866,-3.1129,-2.8265,-2.8265,-2.6825,-2.4407,-2.1315,-2.0366,-1.9975,-1.7207,-1.6212,-1.6083,-1.6083,-1.6083,-1.6049,-1.59,-1.5859,-1.5825,-1.5683,-1.5642,-1.5608,-1.5452,-1.5296,-1.5147,-1.5104,-1.7103,-1.8862,-1.8488,-2.0539,-2.2342,-2.2196,-2.2156,-2.2084,-2.1957,-1.9804,-1.9097,-2.1565,-1.9804,-1.9088,-2.1467,-1.9618,-1.8134,-1.7868,-1.569,-1.4299,-1.4299,-1.4299,-1.4299,-1.4299,-1.4299,-1.4299,-1.4299,-1.4299,-1.4299,-1.4299,-1.4299,-1.5425,-1.7763,-1.7763,-1.8976,-2.1135,-2.1135,-1.9922,-1.7763,-1.7763,-1.6466,-1.4299,-1.4299,-1.4299,-1.4299,-1.4299,-1.4299,-1.4319,-1.4462,-1.4516,-1.4536,-3.3433,-3.5314,-3.7399,-3.7655,-3.8335,-3.8515,-3.7632,-3.8191,-3.8112,-3.6229,-3.6815,-3.701,-3.5962,-3.5932,-3.5932,-3.587,-3.6601,-3.6742,-3.6176,-3.6321,-3.6607,-3.6794,-3.6046,-3.5631,-3.5631,-3.5351,-3.5097,-3.4897,-3.4509,-3.4215,-3.4002,-3.3601,-3.3414,-3.3414,-3.3414,-3.3414,-3.3414,-3.3414,-3.32,-3.2853,-3.2946,-3.2353,-3.1315,-3.1315,-2.9763,-2.7433,-2.6463,-2.3739,-2.046,-1.9561,-1.8022,-1.6374,-1.6273,-1.6171,-1.6076,-1.6029,-1.609,-1.6144,-1.5988,-1.5947,-1.5886,-1.5635,-1.554,-1.5965,-1.7607,-2.0068,-2.2409,-2.4045,-2.5095,-2.5638,-2.5389,-2.4102,-2.2831,-2.2291,-2.179,-2.16,-2.2005,-2.285,-2.2962,-2.1838,-2.1116,-1.9887,-1.7955,-1.569,-1.4299,-1.4299,-1.4299,-1.4299,-1.4299,-1.4299,-1.4346,-1.4441,-1.4353,-1.4346,-1.4448,-1.4346,-1.4646,-1.5344,-1.6984,-1.7334,-1.6386,-1.8025,-1.7501,-1.5337,-1.5337,-1.4911,-1.4299,-1.4299,-1.436,-1.4448,-1.4448,-1.4516,-1.4611,-1.4658,-1.4672,-1.4679,-3.6852,-3.7852,-3.9092,-3.9041,-3.9118,-3.8985,-3.8758,-3.8825,-3.8865,-3.8731,-3.8718,-3.8718,-3.8718,-3.8718,-3.8718,-3.8718,-3.833,-3.7889,-3.7422,-3.6727,-3.6473,-3.6754,-3.5925,-3.5565,-3.5805,-3.5404,-3.5057,-3.4763,-3.4469,-3.4175,-3.3881,-3.3561,-3.3414,-3.3414,-3.3414,-3.3414,-3.3414,-3.3414,-3.324,-3.2986,-3.3106,-3.2973,-3.2719,-3.2719,-3.1874,-3.0441,-2.9228,-2.5972,-2.2158,-2.1052,-1.8846,-1.6422,-1.6334,-1.6205,-1.6083,-1.6083,-1.6144,-1.6198,-1.6103,-1.6083,-1.6056,-1.5934,-1.5771,-1.6022,-1.7447,-2.0661,-2.358,-2.5097,-2.7086,-2.8471,-2.8389,-2.7271,-2.6189,-2.5731,-2.4965,-2.4613,-2.5318,-2.564,-2.5577,-2.4868,-2.3864,-2.2571,-2.085,-1.7639,-1.5337,-1.4387,-1.4299,-1.4299,-1.4299,-1.4299,-1.434,-1.4428,-1.4401,-1.4428,-1.4509,-1.4489,-1.4414,-1.4299,-1.5778,-1.569,-1.4387,-1.577,-1.5631,-1.438,-1.4326,-1.4367,-1.4468,-1.4346,-1.4421,-1.4597,-1.4536,-1.4604,-1.4746,-1.4808,-1.4828,-1.4841,-3.9599,-3.9599,-3.9519,-3.9225,-3.9412,-3.9412,-3.8838,-3.9012,-3.9078,-3.8758,-3.8758,-3.8758,-3.8718,-3.8718,-3.8718,-3.8718,-3.8183,-3.7702,-3.7422,-3.658,-3.6233,-3.65,-3.5685,-3.5485,-3.6019,-3.5485,-3.5057,-3.4763,-3.4469,-3.4175,-3.3881,-3.3561,-3.3414,-3.3414,-3.3414,-3.3414,-3.3414,-3.3414,-3.3253,-3.304,-3.3307,-3.3253,-3.3013,-3.3013,-3.3187,-3.306,-3.0252,-2.7638,-2.4901,-2.1967,-1.89,-1.6347,-1.6334,-1.6225,-1.6096,-1.6083,-1.609,-1.6096,-1.6083,-1.6103,-1.6151,-1.6279,-1.6015,-1.5716,-1.6001,-1.981,-2.3419,-2.3609,-2.7603,-3.0929,-3.0875,-3.0889,-3.0889,-3.0808,-2.8691,-2.7861,-3.0081,-2.8148,-2.7243,-2.9247,-2.7171,-2.5483,-2.5212,-2.086,-1.7271,-1.5101,-1.4918,-1.4918,-1.4946,-1.4939,-1.4946,-1.4967,-1.5087,-1.5158,-1.5172,-1.5125,-1.4785,-1.434,-1.434,-1.434,-1.434,-1.434,-1.4407,-1.4523,-1.4394,-1.4489,-1.4719,-1.4434,-1.4496,-1.4746,-1.459,-1.4631,-1.4794,-1.4936,-1.4991,-1.5004,-3.9599,-3.9599,-3.9559,-3.9519,-3.9559,-3.9493,-3.9118,-3.9306,-3.9306,-3.8798,-3.8905,-3.8972,-3.8758,-3.8718,-3.8718,-3.8718,-3.8183,-3.7702,-3.7422,-3.6767,-3.6433,-3.65,-3.5885,-3.5591,-3.5725,-3.5378,-3.5057,-3.4763,-3.4469,-3.4175,-3.3881,-3.3561,-3.3414,-3.3414,-3.3414,-3.3414,-3.3414,-3.3414,-3.3374,-3.332,-3.3387,-3.3374,-3.332,-3.332,-3.336,-3.33,-3.262,-3.0661,-2.7603,-2.2679,-1.9053,-1.6632,-1.6517,-1.6374,-1.6239,-1.6117,-1.6164,-1.6232,-1.6117,-1.6252,-1.6408,-1.6327,-1.632,-1.6825,-1.9007,-2.1976,-2.4846,-2.7018,-2.9991,-3.2024,-3.157,-3.1664,-3.1597,-3.0902,-3.0267,-3.0057,-3.0394,-2.9636,-2.9167,-2.9424,-2.7421,-2.5831,-2.5483,-2.2669,-2.0608,-2.0169,-1.9843,-1.989,-2.0397,-2.0166,-2.0233,-2.0563,-2.045,-2.0469,-2.0629,-1.8643,-1.6582,-1.4645,-1.4645,-1.4645,-1.4645,-1.4645,-1.4658,-1.4692,-1.4658,-1.4679,-1.4726,-1.4543,-1.4645,-1.4903,-1.4753,-1.4855,-1.5092,-1.5126,-1.514,-1.5126,-4.0,-4.0,-3.996,-3.9813,-3.992,-3.9853,-3.9452,-3.9626,-3.9599,-3.9012,-3.9052,-3.9052,-3.8758,-3.8718,-3.8651,-3.8504,-3.8223,-3.7889,-3.7595,-3.7048,-3.6727,-3.6727,-3.6019,-3.5631,-3.5631,-3.5351,-3.5057,-3.4763,-3.4469,-3.4175,-3.3881,-3.3561,-3.3414,-3.3414,-3.3414,-3.3414,-3.3414,-3.3414,-3.3414,-3.3414,-3.3414,-3.3414,-3.3414,-3.3414,-3.3414,-3.3414,-3.3414,-3.0748,-2.6546,-2.0999,-1.8113,-1.6734,-1.6653,-1.653,-1.6381,-1.6232,-1.6293,-1.6381,-1.6232,-1.6354,-1.6524,-1.6517,-1.6578,-1.7317,-1.9954,-2.2634,-2.5346,-2.8148,-3.0745,-3.2412,-3.1957,-3.1998,-3.1904,-3.1303,-3.1089,-3.0902,-3.0608,-3.0314,-3.002,-2.9726,-2.8462,-2.7093,-2.5754,-2.4359,-2.3128,-2.1971,-2.1693,-2.1812,-2.2046,-2.1944,-2.1995,-2.223,-2.223,-2.2191,-2.2312,-2.1034,-1.967,-1.84,-1.5891,-1.474,-1.474,-1.474,-1.478,-1.4848,-1.4774,-1.4821,-1.4936,-1.4713,-1.476,-1.4957,-1.4801,-1.4882,-1.5079,-1.5079,-1.5126,-1.5174,-4.0481,-4.0481,-4.0401,-4.0147,-4.0321,-4.0294,-3.9746,-3.992,-3.9893,-3.9306,-3.9225,-3.9118,-3.8838,-3.8758,-3.8611,-3.837,-3.825,-3.8076,-3.7823,-3.7261,-3.6901,-3.6861,-3.6166,-3.5725,-3.5631,-3.5391,-3.5124,-3.4843,-3.4536,-3.4242,-3.3961,-3.3641,-3.3467,-3.3414,-3.3414,-3.3414,-3.3414,-3.3414,-3.3414,-3.3414,-3.3414,-3.3414,-3.3414,-3.3414,-3.3414,-3.3414,-3.3414,-2.9915,-2.4392,-1.9357,-1.7308,-1.6781,-1.6727,-1.6639,-1.6524,-1.6361,-1.6395,-1.6463,-1.6374,-1.6429,-1.666,-1.7216,-1.7486,-1.8284,-2.1374,-2.3452,-2.5561,-2.8871,-3.1193,-3.2599,-3.2305,-3.2211,-3.2078,-3.1797,-3.145,-3.1142,-3.0902,-3.0621,-3.0341,-3.01,-2.9806,-2.8765,-2.6455,-2.6242,-2.5436,-2.3542,-2.3332,-2.3343,-2.3429,-2.3386,-2.3386,-2.3429,-2.3533,-2.364,-2.364,-2.3287,-2.3106,-2.3106,-1.8292,-1.5807,-1.5357,-1.4998,-1.4882,-1.4997,-1.4869,-1.4957,-1.516,-1.4889,-1.4869,-1.4991,-1.4841,-1.4875,-1.5011,-1.5011,-1.5079,-1.5181,-4.0481,-4.0481,-4.0481,-4.0441,-4.0441,-4.0361,-4.0027,-4.0214,-4.0214,-3.9599,-3.9533,-3.9412,-3.9118,-3.8865,-3.8718,-3.8651,-3.8183,-3.7849,-3.7809,-3.7261,-3.6834,-3.658,-3.6433,-3.6153,-3.5645,-3.5591,-3.5431,-3.5137,-3.4843,-3.4549,-3.4255,-3.3961,-3.3681,-3.3414,-3.3414,-3.3414,-3.3414,-3.3414,-3.3414,-3.3414,-3.3414,-3.3414,-3.3414,-3.3414,-3.3414,-3.3414,-3.3414,-2.9915,-2.4701,-2.1622,-1.8925,-1.6904,-1.6639,-1.6625,-1.6666,-1.6388,-1.6327,-1.6361,-1.6463,-1.651,-1.7165,-1.9655,-2.0435,-2.188,-2.697,-2.6553,-2.6553,-3.1754,-3.3081,-3.32,-3.2906,-3.2652,-3.2385,-3.2091,-3.1583,-3.1209,-3.1169,-3.0915,-3.0715,-3.0675,-3.0421,-2.993,-2.9017,-2.8965,-2.8876,-2.851,-2.8189,-2.8266,-2.8847,-2.8639,-2.8626,-2.8873,-2.8822,-2.8848,-2.8848,-2.6761,-2.5684,-2.5673,-2.2861,-2.0456,-1.8248,-1.6133,-1.5133,-1.5153,-1.5133,-1.5147,-1.5167,-1.5004,-1.5025,-1.514,-1.4997,-1.5025,-1.5153,-1.5153,-1.5167,-1.5181,-4.0481,-4.0481,-4.0481,-4.0481,-4.0481,-4.0441,-4.0294,-4.0401,-4.0334,-3.9893,-3.9853,-3.9666,-3.9199,-3.8905,-3.8718,-3.8718,-3.833,-3.8076,-3.8076,-3.7529,-3.7128,-3.7021,-3.6687,-3.6313,-3.5885,-3.5712,-3.5485,-3.5191,-3.491,-3.4616,-3.4309,-3.4028,-3.3721,-3.3414,-3.3414,-3.3414,-3.3414,-3.3414,-3.3414,-3.3414,-3.3414,-3.3414,-3.3414,-3.3414,-3.3414,-3.32,-3.1668,-2.8596,-2.4804,-2.2027,-1.9253,-1.6958,-1.6822,-1.6822,-1.6836,-1.6619,-1.6619,-1.668,-1.6653,-1.6714,-1.7508,-2.0348,-2.1044,-2.2518,-2.7896,-2.8177,-2.8379,-3.2351,-3.3293,-3.328,-3.2826,-3.2759,-3.2692,-3.2398,-3.1998,-3.1664,-3.149,-3.1223,-3.0915,-3.0595,-3.0581,-3.0368,-2.978,-2.9873,-2.99,-2.974,-2.9606,-2.9646,-2.99,-2.9793,-2.978,-2.9913,-2.9913,-2.9913,-2.9913,-2.8809,-2.8256,-2.8256,-2.5775,-2.2647,-1.8871,-1.7763,-1.6479,-1.5181,-1.5181,-1.5181,-1.5174,-1.5113,-1.5079,-1.5059,-1.4997,-1.5011,-1.5072,-1.5153,-1.5181,-1.5181]},{"header":{"parameterUnit":"m.s-1","parameterCategory":1,"la1":30.6,"la2":28.766,"lo1":-90.7593,"lo2":-88.6598,"dy":0.0162,"dx":0.0183,"nx":116,"ny":114,"refTime":"2023-08-20T06:00:00:Z","depth":0,"parameterNumber":3,"parameterNumberName":"V-component_of_WINDS"},"data":[0.0,0.0,0.0,0.0,0.0,0.0,0.0,0.0,0.0,0.0,0.0,0.0,0.0,0.0,0.0,0.0,0.0,0.0,0.0,0.0,0.0,0.0,0.0,0.0,0.0,0.0,0.0,0.0,0.0,0.0,0.0,0.0,0.0,0.0,0.0,0.0,0.0,0.0,0.0,0.0,0.0,0.0,0.0,0.0,0.0,0.0,0.0,0.0,0.0,0.0,0.0,0.0,0.0,0.0,0.0,0.0,0.0,0.0,0.0,0.0,0.0,0.0,0.0,0.0,0.0,0.0,0.0,0.0,0.0,0.0,0.0,0.0,0.0,0.0,0.0,0.0,0.0,0.0,0.0,0.0,0.0,0.0,0.0,0.0,0.0,0.0,0.0,0.0,0.0,0.0,0.0,0.0,0.0,0.0,0.0,0.0,0.0,0.0,0.0,0.0,0.0,0.0,0.0,0.0,0.0,0.0,0.0,0.0,0.0,0.0,0.0,0.0,0.0,0.0,0.0,0.0,0.0,0.0,0.0,0.0,0.0,0.0,0.0,0.0,0.0,0.0,0.0,0.0,0.0,0.0,0.0,0.0,0.0,0.0,0.0,0.0,0.0,0.0,0.0,0.0,0.0,0.0,0.0,0.0,0.0,0.0,0.0,0.0,0.0,0.0,0.0,0.0,0.0,0.0,0.0,0.0,0.0,0.0,0.0,0.0,0.0,0.0,0.0,0.0,0.0,0.0,0.0,0.0,0.0,0.0,0.0,0.0,0.0,0.0,0.0,0.0,0.0,0.0,0.0,0.0,0.0,0.0,0.0,0.0,0.0,0.0,0.0,0.0,0.0,0.0,0.0,0.0,0.0,0.0,0.0,0.0,0.0,0.0,0.0,0.0,0.0,0.0,0.0,0.0,0.0,0.0,0.0,0.0,0.0,0.0,0.0,0.0,0.0,0.0,0.0,0.0,0.0,0.0,0.0,0.0,0.0,0.0,0.0,0.0,0.0,0.0,0.0,0.0,0.0,0.0,0.0,0.0,0.0,0.0,0.0,0.0,0.0,0.0,0.0,0.0,0.0,0.0,0.0,0.0,0.0,0.0,0.0,0.0,0.0,0.0,0.0,0.0,0.0,0.0,0.0,0.0,0.0,0.0,0.0,0.0,0.0,0.0,0.0,0.0,0.0,0.0,0.0,0.0,0.0,0.0,0.0,0.0,0.0,0.0,0.0,0.0,0.0,0.0,0.0,0.0,0.0,0.0,0.0,0.0,0.0,0.0,0.0,0.0,0.0,0.0,0.0,0.0,0.0,0.0,0.0,0.0,0.0,0.0,0.0,0.0,0.0,0.0,0.0,0.0,0.0,0.0,0.0,0.0,0.0,0.0,0.0,0.0,0.0,0.0,0.0,0.0,0.0,0.0,0.0,0.0,0.0,0.0,0.0,0.0,0.0,0.0,0.0,0.0,0.0,0.0,0.0,0.0,0.0,0.0,0.0,0.0,0.0,0.0,0.0,0.0,0.0,0.0,0.0,0.0,0.0,0.0,0.0,0.0,0.0,0.0,0.0,0.0,0.0,0.0,0.0,0.0,0.0,0.0,0.0,0.0,0.0,0.0,0.0,0.0,0.0,0.0,0.0,0.0,0.0,0.0,0.0,0.0,0.0,0.0,0.0,0.0,0.0,0.0,0.0,0.0,0.0,0.0,0.0,0.0,0.0,0.0,0.0,0.0,0.0,0.0,0.0,0.0,0.0,0.0,0.0,0.0,0.0,0.0,0.0,0.0,0.0,0.0,0.0,0.0,0.0,0.0,0.0,0.0,0.0,0.0,0.0,0.0,0.0,0.0,0.0,0.0,0.0,0.0,0.0,0.0,0.0,0.0,0.0,0.0,0.0,0.0,0.0,0.0,0.0,0.0,0.0,0.0,0.0,0.0,0.0,0.0,0.0,0.0,0.0,0.0,0.0,0.0,0.0,0.0,0.0,0.0,0.0,0.0,0.0,0.0,0.0,0.0,0.0,0.0,0.0,0.0,0.0,0.0,0.0,0.0,0.0,0.0,0.0,0.0,0.0,0.0,0.0,0.0,0.0,0.0,0.0,0.0,0.0,0.0,0.0,0.0,0.0,0.0,0.0,0.0,0.0,0.0,0.0,0.0,0.0,0.0,0.0,0.0,0.0,0.0,0.0,0.0,0.0,0.0,0.0,0.0,0.0,0.0,0.0,0.0,0.0,0.0,0.0,0.0,0.0,0.0,0.0,0.0,0.0,0.0,0.0,0.0,0.0,0.0,0.0,0.0,0.0,0.0,0.0,0.0,0.0,0.0,0.0,0.0,0.0,0.0,0.0,0.0,0.0,0.0,0.0,0.0,0.0,0.0,0.0,0.0,0.0,0.0,0.0,0.0,0.0,0.0,0.0,0.0,0.0,0.0,0.0,0.0,0.0,0.0,0.0,0.0,0.0,0.0,0.0,0.0,0.0,0.0,0.0,0.0,0.0,0.0,0.0,0.0,0.0,0.0,0.0,0.0,0.0,0.0,0.0,0.0,0.0,0.0,0.0,0.0,0.0,0.0,0.0,0.0,0.0,0.0,0.0,0.0,0.0,0.0,0.0,0.0,0.0,0.0,0.0,0.0,0.0,0.0,0.0,0.0,0.0,0.0,0.0,0.0,0.0,0.0,0.0,0.0,0.0,0.0,0.0,0.0,0.0,0.0,0.0,0.0,0.0,0.0,0.0,0.0,0.0,0.0,0.0,0.0,0.0,0.0,0.0,0.0,0.0,0.0,0.0,0.0,0.0,0.0,0.0,0.0,0.0,0.0,0.0,0.0,0.0,0.0,0.0,0.0,0.0,0.0,0.0,0.0,0.0,0.0,0.0,0.0,0.0,0.0,0.0,0.0,0.0,0.0,0.0,0.0,0.0,0.0,0.0,0.0,0.0,0.0,0.0,0.0,0.0,0.0,0.0,0.0,0.0,0.0,0.0,0.0,0.0,0.0,0.0,0.0,0.0,0.0,0.0,0.0,0.0,0.0,0.0,0.0,0.0,0.0,0.0,0.0,0.0,0.0,0.0,0.0,0.0,0.0,0.0,0.0,0.0,0.0,0.0,0.0,0.0,0.0,0.0,0.0,0.0,0.0,0.0,0.0,0.0,0.0,0.0,0.0,0.0,0.0,0.0,0.0,0.0,0.0,0.0,0.0,0.0,0.0,0.0,0.0,0.0,0.0,0.0,0.0,0.0,0.0,0.0,0.0,0.0,0.0,0.0,0.0,0.0,0.0,0.0,0.0,0.0,0.0,0.0,0.0,0.0,0.0,0.0,0.0,0.0,0.0,0.0,0.0,0.0,0.0,0.0,0.0,0.0,0.0,0.0,0.0,0.0,0.0,0.0,0.0,0.0,0.0,0.0,0.0,0.0,0.0,0.0,0.0,0.0,0.0,0.0,0.0,0.0,0.0,0.0,0.0,0.0,0.0,0.0,0.0,0.0,0.0,0.0,0.0,0.0,0.0,0.0,0.0,0.0,0.0,0.0,0.0,0.0,0.0,0.0,0.0,0.0,0.0,0.0,0.0,0.0,0.0,0.0,0.0,0.0,0.0,0.0,0.0,0.0,0.0,0.0,0.0,0.0,0.0,0.0,0.0,0.0,0.0,0.0,0.0,0.0,0.0,0.0,0.0,0.0,0.0,0.0,0.0,0.0,0.0,0.0,0.0,0.0,0.0,0.0,0.0,0.0,0.0,0.0,0.0,0.0,0.0,0.0,0.0,0.0,0.0,0.0,0.0,0.0,0.0,0.0,0.0,0.0,0.0,0.0,0.0,0.0,0.0,0.0,0.0,0.0,0.0,0.0,0.0,0.0,0.0,0.0,0.0,0.0,0.0,0.0,0.0,0.0,0.0,0.0,0.0,0.0,0.0,0.0,0.0,0.0,0.0,0.0,0.0,0.0,0.0,0.0,0.0,0.0,0.0,0.0,0.0,0.0,0.0,0.0,0.0,0.0,0.0,0.0,0.0,0.0,0.0,0.0,0.0,0.0,0.0,0.0,0.0,0.0,0.0,0.0,0.0,0.0,0.0,0.0,0.0,0.0,0.0,0.0,0.0,0.0,0.0,0.0,0.0,0.0,0.0,0.0,0.0,0.0,0.0,0.0,0.0,0.0,0.0,0.0,0.0,0.0,0.0,0.0,0.0,0.0,0.0,0.0,0.0,0.0,0.0,0.0,0.0,0.0,0.0,0.0,0.0,0.0,0.0,0.0,0.0,0.0,0.0,0.0,0.0,0.0,0.0,0.0,0.0,0.0,0.0,0.0,0.0,0.0,0.0,0.0,0.0,0.0,0.0,0.0,0.0,0.0,0.0,0.0,0.0,0.0,0.0,0.0,0.0,0.0,0.0,0.0,0.0,0.0,0.0,0.0,0.0,0.0,0.0,0.0,0.0,0.0,0.0,0.0,0.0,0.0,0.0,0.0,0.0,0.0,0.0,0.0,0.0,0.0,0.0,0.0,0.0,0.0,0.0,0.0,0.0,0.0,0.0,0.0,0.0,0.0,0.0,0.0,0.0,0.0,0.0,0.0,0.0,0.0,0.0,0.0,0.0,0.0,0.0,0.0,0.0,0.0,0.0,0.0,0.0,0.0,0.0,0.0,0.0,0.0,0.0,0.0,0.0,0.0,0.0,0.0,0.0,0.0,0.0,0.0,0.0,0.0,0.0,0.0,0.0,0.0,0.0,0.0,0.0,0.0,0.0,0.0,0.0,0.0,0.0,0.0,0.0,0.0,0.0,0.0,0.0,0.0,0.0,0.0,0.0,0.0,0.0,0.0,0.0,0.0,0.0,0.0,0.0,0.0,0.0,0.0,0.0,0.0,0.0,0.0,0.0,0.0,0.0,0.0,0.0,0.0,0.0,0.0,0.0,0.0,0.0,0.0,0.0,0.0,0.0,0.0,0.0,0.0,0.0,0.0,0.0,0.0,0.0,0.0,0.0,0.0,0.0,0.0,0.0,0.0,0.0,0.0,0.0,0.0,0.0,0.0,0.0,0.0,0.0,0.0,0.0,0.0,0.0,0.0,0.0,0.0,0.0,0.0,0.0,0.0,0.0,0.0,0.0,0.0,0.0,0.0,0.0,0.0,0.0,0.0,0.0,0.0,0.0,0.0,0.0,0.0,0.0,0.0,0.0,0.0,0.0,0.0,0.0,0.0,0.0,0.0,0.0,0.0,0.0,0.0,0.0,0.0,0.0,0.0,0.0,0.0,0.0,0.0,0.0,0.0,0.0,0.0,0.0,0.0,0.0,0.0,0.0,0.0,0.0,0.0,0.0,0.0,0.0,0.0,0.0,0.0,0.0,0.0,0.0,0.0,0.0,0.0,0.0,0.0,0.0,0.0,0.0,0.0,0.0,0.0,0.0,0.0,0.0,0.0,0.0,0.0,0.0,0.0,0.0,0.0,0.0,0.0,0.0,0.0,0.0,0.0,0.0,0.0,0.0,0.0,0.0,0.0,0.0,0.0,0.0,0.0,0.0,0.0,0.0,0.0,0.0,0.0,0.0,0.0,0.0,0.0,0.0,0.0,0.0,0.0,0.0,0.0,0.0,0.0,0.0,0.0,0.0,0.0,0.0,0.0,0.0,0.0,0.0,0.0,0.0,0.0,0.0,0.0,0.0,0.0,0.0,0.0,0.0,0.0,0.0,0.0,0.0,0.0,0.0,0.0,0.0,0.0,0.0,0.0,0.0,0.0,0.0,0.0,0.0,0.0,0.0,0.0,0.0,0.0,0.0,0.0,0.0,0.0,0.0,0.0,0.0,0.0,0.0,0.0,0.0,0.0,0.0,0.0,0.0,0.0,0.0,0.0,0.0,0.0,0.0,0.0,0.0,0.0,0.0,0.0,0.0,0.0,0.0,0.0,0.0,0.0,0.0,0.0,0.0,0.0,0.0,0.0,0.0,0.0,0.0,0.0,0.0,0.0,0.0,0.0,0.0,0.0,0.0,0.0,0.0,0.0,0.0,0.0,0.0,0.0,0.0,0.0,0.0,0.0,0.0,0.0,0.0,0.0,0.0,0.0,0.0,0.0,0.0,0.0,0.0,0.0,0.0,0.0,0.0,0.0,0.0,2.9314,0.0,0.0,0.0,0.0,0.0,0.0,0.0,0.0,0.0,0.0,0.0,0.0,0.0,0.0,0.0,0.0,0.0,0.0,0.0,0.0,0.0,0.0,0.0,0.0,0.0,0.0,0.0,0.0,0.0,0.0,0.0,0.0,0.0,0.0,0.0,0.0,0.0,0.0,3.7177,3.6927,3.7611,3.9244,4.0671,3.9679,3.6736,0.0,0.0,0.0,0.0,0.0,0.0,0.0,0.0,0.0,0.0,0.0,0.0,0.0,0.0,0.0,0.0,0.0,0.0,0.0,0.0,0.0,0.0,0.0,0.0,0.0,0.0,0.0,0.0,0.0,0.0,0.0,0.0,0.0,0.0,0.0,0.0,0.0,0.0,0.0,0.0,0.0,0.0,0.0,0.0,0.0,0.0,0.0,0.0,0.0,0.0,0.0,0.0,0.0,0.0,0.0,0.0,0.0,0.0,0.0,0.0,0.0,0.0,0.0,0.0,0.0,0.0,0.0,0.0,0.0,0.0,0.0,3.119,0.0,0.0,0.0,0.0,0.0,0.0,0.0,0.0,0.0,0.0,0.0,0.0,0.0,0.0,0.0,0.0,0.0,0.0,0.0,0.0,0.0,0.0,0.0,3.99,4.0174,4.0799,4.06,4.0292,0.0,0.0,0.0,0.0,0.0,0.0,3.6177,3.65,3.7434,3.8936,3.9613,4.174,4.5269,4.7674,4.5989,4.0981,4.0473,0.0,0.0,0.0,0.0,0.0,0.0,0.0,0.0,0.0,0.0,0.0,0.0,0.0,0.0,0.0,0.0,0.0,0.0,0.0,0.0,0.0,0.0,0.0,0.0,0.0,0.0,0.0,0.0,0.0,0.0,0.0,0.0,0.0,0.0,0.0,0.0,0.0,0.0,0.0,0.0,0.0,0.0,0.0,0.0,0.0,0.0,0.0,0.0,0.0,0.0,0.0,0.0,0.0,0.0,0.0,0.0,0.0,0.0,0.0,0.0,0.0,0.0,0.0,4.2144,4.2888,4.3639,4.3775,4.3538,4.2726,3.887,3.6197,3.4506,3.3512,0.0,0.0,0.0,0.0,0.0,0.0,0.0,0.0,0.0,0.0,0.0,0.0,0.0,0.0,0.0,0.0,0.0,0.0,0.0,0.0,0.0,3.99,4.0765,4.2878,4.1799,4.1542,4.2842,0.0,0.0,0.0,0.0,0.0,3.8318,3.9004,3.9849,4.0763,4.4236,4.7405,5.0212,5.2433,5.3396,5.3014,4.7496,4.6562,4.882,0.0,0.0,0.0,0.0,0.0,0.0,0.0,0.0,0.0,0.0,0.0,0.0,0.0,0.0,0.0,0.0,0.0,0.0,0.0,0.0,0.0,0.0,0.0,0.0,0.0,0.0,0.0,0.0,0.0,0.0,0.0,0.0,0.0,0.0,0.0,0.0,0.0,0.0,0.0,0.0,0.0,3.0954,3.1515,0.0,0.0,0.0,0.0,0.0,0.0,0.0,0.0,0.0,0.0,0.0,0.0,0.0,4.3166,4.4519,4.7158,4.7936,4.6891,5.0168,5.0811,4.9086,4.9729,4.9968,4.983,4.8578,0.0,3.9063,3.7032,0.0,0.0,0.0,0.0,0.0,0.0,0.0,0.0,0.0,0.0,0.0,0.0,0.0,0.0,0.0,0.0,0.0,0.0,0.0,0.0,0.0,4.3387,4.4929,4.7388,4.904,4.8673,4.5736,4.6177,0.0,0.0,0.0,4.0414,4.0068,4.0855,4.2983,4.6544,5.238,5.6085,5.7728,6.0103,6.163,6.2218,5.7997,5.4399,5.1242,4.7462,0.0,0.0,0.0,0.0,0.0,0.0,0.0,0.0,0.0,0.0,0.0,0.0,0.0,0.0,0.0,0.0,0.0,0.0,0.0,0.0,0.0,0.0,0.0,0.0,0.0,0.0,0.0,0.0,0.0,0.0,0.0,0.0,0.0,0.0,0.0,0.0,0.0,0.0,0.0,3.2747,3.4472,3.3085,3.5453,3.6377,0.0,0.0,0.0,0.0,0.0,0.0,0.0,0.0,0.0,4.5534,4.8274,5.0033,5.071,5.3213,5.416,5.3551,5.5175,5.5446,5.4465,5.4397,5.4363,5.4329,5.3585,5.1352,4.7902,4.3572,4.0798,3.9005,0.0,0.0,0.0,0.0,3.6265,3.6738,0.0,0.0,0.0,0.0,0.0,0.0,0.0,0.0,0.0,0.0,0.0,0.0,4.5205,4.7076,4.9461,5.2968,5.5427,5.5023,5.0782,5.0288,4.8012,4.315,4.1939,4.1389,4.1389,4.3608,4.7572,5.3261,5.9685,6.3466,6.4714,6.7173,6.8641,6.9155,6.7357,6.2732,5.6088,5.2621,4.8563,4.4268,0.0,0.0,0.0,0.0,0.0,0.0,0.0,0.0,0.0,0.0,0.0,0.0,0.0,0.0,0.0,0.0,0.0,0.0,0.0,0.0,0.0,0.0,0.0,0.0,0.0,0.0,0.0,0.0,0.0,0.0,0.0,0.0,0.0,0.0,0.0,0.0,0.0,3.6197,3.8058,3.5453,3.958,4.1178,0.0,0.0,0.0,0.0,0.0,0.0,4.5809,4.7936,4.983,5.1522,5.4431,5.619,5.6596,5.822,5.9032,5.9032,5.9032,5.893,5.8727,5.8186,5.7746,5.734,5.6799,5.6021,5.4735,4.912,4.55,4.3234,4.0832,3.9681,3.9469,4.0358,4.0832,4.1238,0.0,0.0,0.0,0.0,0.0,0.0,0.0,0.0,0.0,0.0,0.0,4.1992,4.7535,4.9627,5.3151,5.9391,5.8033,5.7629,5.9612,5.2637,4.8269,4.7939,4.4268,4.2249,4.2249,4.8343,5.4252,5.9905,6.4163,6.743,6.9779,7.2202,7.334,7.3377,7.3266,7.1284,6.7504,5.8914,5.4693,5.3041,4.5296,0.0,0.0,0.0,0.0,0.0,0.0,0.0,0.0,0.0,0.0,0.0,0.0,0.0,0.0,0.0,0.0,0.0,0.0,0.0,0.0,0.0,0.0,0.0,0.0,0.0,0.0,0.0,0.0,0.0,0.0,0.0,0.0,0.0,0.0,0.0,0.0,0.0,0.0,3.9961,4.5568,0.0,0.0,0.0,0.0,4.6278,4.8308,5.0541,5.2875,5.4431,5.6258,5.8457,5.937,6.052,6.1975,6.211,6.2144,6.2144,6.2144,6.1806,6.1129,6.1095,6.0283,5.8896,5.8863,5.8017,5.6325,5.1758,4.9763,4.9357,4.6447,4.5703,4.621,4.5602,4.5805,4.621,0.0,0.0,0.0,0.0,0.0,0.0,0.0,0.0,3.9753,4.0561,4.3387,4.7058,5.172,5.6492,6.1117,6.5485,6.699,6.6512,6.3723,5.8377,5.462,5.3078,4.8122,4.7333,5.1536,5.5427,6.0199,6.5888,6.9412,7.2092,7.3964,7.4845,7.5506,7.5983,7.5469,7.4625,7.3083,6.6256,6.0786,5.6271,5.1316,4.6434,0.0,0.0,0.0,0.0,0.0,0.0,0.0,0.0,0.0,0.0,0.0,0.0,0.0,0.0,0.0,0.0,0.0,0.0,0.0,0.0,0.0,0.0,0.0,0.0,0.0,0.0,0.0,0.0,0.0,0.0,0.0,0.0,0.0,0.0,0.0,0.0,0.0,4.7834,5.2198,0.0,5.0168,5.0371,5.142,5.3112,5.4397,5.6325,5.9066,6.0622,6.2009,6.326,6.4478,6.5155,6.5222,6.5696,6.5222,6.3802,6.4275,6.3632,6.2009,6.2009,6.1163,5.9674,5.9235,5.8423,5.734,5.5277,5.3585,5.2097,5.0033,4.912,4.8883,4.8612,4.868,4.8917,0.0,0.0,0.0,0.0,0.0,0.0,0.0,0.0,4.0487,4.2086,4.6067,5.0802,5.6235,6.2401,6.765,7.1431,7.345,7.2679,6.8421,6.2805,5.8657,5.6492,5.227,5.2491,5.7923,6.1741,6.6072,7.0917,7.3891,7.6166,7.7745,7.7745,7.8038,7.8552,7.8002,7.7598,7.7084,7.2753,6.721,6.0933,5.6859,5.2821,4.86,0.0,0.0,0.0,0.0,0.0,0.0,0.0,0.0,0.0,0.0,0.0,0.0,0.0,0.0,0.0,0.0,0.0,0.0,0.0,0.0,0.0,0.0,0.0,0.0,0.0,0.0,0.0,0.0,0.0,0.0,0.0,0.0,0.0,0.0,4.8714,5.2435,5.3687,5.778,5.9336,5.6359,5.6562,5.7611,5.9302,6.0351,6.1873,6.414,6.5425,6.6339,6.6812,6.7523,6.7658,6.7184,6.7421,6.6677,6.4952,6.5222,6.441,6.2753,6.2516,6.1535,6.008,5.9573,5.8829,5.7848,5.7374,5.6156,5.4465,5.2942,5.1894,5.1251,5.1251,5.1251,5.1285,0.0,0.0,0.0,0.0,0.0,0.0,0.0,3.9879,4.1038,4.4214,4.7682,5.2842,6.075,6.6806,7.2202,7.6907,7.657,7.5395,7.378,6.5338,5.9685,5.8107,5.6675,5.7483,6.075,6.7026,7.1835,7.5065,7.7488,7.947,8.1012,8.1048,8.1048,8.1048,8.1048,8.0608,7.9764,7.8148,7.3854,6.7614,6.1851,5.8988,5.7262,0.0,0.0,0.0,0.0,0.0,0.0,0.0,0.0,0.0,0.0,0.0,0.0,0.0,0.0,0.0,0.0,0.0,0.0,0.0,0.0,0.0,0.0,0.0,0.0,0.0,0.0,0.0,0.0,0.0,0.0,0.0,0.0,0.0,4.8142,5.3923,5.7881,5.7306,6.2347,6.4174,5.981,6.2042,6.4005,6.4715,6.6102,6.7252,6.7963,6.8741,6.918,6.918,6.8402,6.7963,6.7929,6.7218,6.644,6.5662,6.4986,6.4241,6.3497,6.2753,6.1569,6.0114,6.0114,5.9268,5.7881,5.7881,5.7442,5.663,5.5209,5.4194,5.3551,5.3551,5.3518,5.3382,0.0,0.0,0.0,0.0,0.0,0.0,0.0,3.9533,4.0855,4.3461,5.0251,5.6785,6.1924,6.9633,7.5469,7.8038,7.6423,7.4551,7.2936,6.5044,5.9942,5.8891,6.1851,6.5558,6.9963,7.2386,7.5175,7.8442,7.9727,8.0571,8.1012,8.1599,8.1856,8.1856,8.1856,8.1746,8.1489,8.1048,7.9507,7.668,6.9229,6.4347,6.097,0.0,0.0,0.0,0.0,0.0,0.0,0.0,0.0,0.0,0.0,0.0,0.0,0.0,0.0,0.0,0.0,0.0,0.0,0.0,0.0,0.0,0.0,0.0,0.0,0.0,0.0,0.0,0.0,0.0,0.0,0.0,5.3031,5.6325,5.6021,5.9877,6.37,6.6203,6.891,6.9857,6.8098,6.8199,6.8436,6.8639,6.9045,6.9586,7.0331,7.0567,7.0703,7.0703,6.9958,6.9316,6.8774,6.7996,6.6948,6.5696,6.5493,6.4715,6.3497,6.3294,6.2076,6.0114,6.0114,5.9268,5.7881,5.7881,5.7137,5.6021,5.6156,5.5412,5.4296,5.4296,5.3957,5.3484,0.0,0.0,0.0,0.0,0.0,0.0,0.0,3.9606,4.1258,4.5002,5.238,5.9245,6.431,7.1578,7.6497,7.7451,7.5616,7.301,6.9706,6.409,6.13,6.2218,6.6916,7.0991,7.4147,7.7011,7.925,8.0791,8.1966,8.27,8.303,8.3838,8.4205,8.4205,8.4205,8.4205,8.4168,8.3471,8.2957,8.2076,7.7011,7.2504,6.8321,6.3429,6.0309,5.8253,5.5721,5.4693,5.4252,5.2454,0.0,0.0,0.0,0.0,0.0,0.0,0.0,0.0,0.0,0.0,0.0,0.0,0.0,0.0,0.0,0.0,0.0,0.0,0.0,0.0,0.0,0.0,0.0,0.0,5.9769,6.3531,6.529,6.688,6.891,7.1718,7.28,7.3037,7.2293,7.1548,7.1109,7.1109,7.0838,7.0838,7.1312,7.1312,7.1312,7.1312,7.0567,6.9857,6.9113,6.8301,6.7151,6.5696,6.5696,6.4918,6.3531,6.3531,6.2448,6.0588,6.025,5.9438,5.8355,5.8017,5.7374,5.6596,0.0,0.0,0.0,0.0,5.3856,5.3518,0.0,0.0,0.0,0.0,0.0,0.0,0.0,3.9606,4.1625,4.7168,5.3482,5.9832,6.6035,7.1762,7.5249,7.5542,7.3854,7.0624,6.5632,6.3246,6.3649,6.7283,7.1725,7.4625,7.5726,8.0791,8.3067,8.2333,8.3948,8.5086,8.582,8.6738,8.7142,8.7142,8.7252,8.7288,8.7178,8.5747,8.5049,8.4829,8.4095,8.1269,7.6723,7.011,6.7797,6.7504,6.2989,6.0566,5.9355,5.8364,0.0,0.0,0.0,0.0,0.0,0.0,0.0,0.0,0.0,0.0,0.0,0.0,0.0,0.0,0.0,0.0,0.0,0.0,0.0,0.0,0.0,0.0,0.0,0.0,6.6294,6.9519,7.4424,7.3984,7.3612,7.4864,7.4931,7.4559,7.3815,7.3071,7.2597,7.2428,7.1785,7.1413,7.1312,0.0,0.0,0.0,0.0,6.9857,6.9113,6.8301,6.7184,6.5797,6.573,6.5019,6.3768,6.3599,6.2753,6.1366,6.0588,5.9776,5.8964,5.8287,5.7881,5.7509,5.6224,5.4871,5.3619,5.3551,5.3518,5.3518,0.0,0.0,0.0,0.0,0.0,0.0,0.0,3.797,3.9769,4.4745,5.0488,5.5831,6.0346,6.5925,7.011,7.2055,6.8972,6.6476,6.5375,6.4861,6.7173,7.3046,7.5432,7.7928,8.0718,8.2517,8.3324,8.3177,8.4792,8.5637,8.582,8.7288,8.7986,8.7986,8.8647,8.8942,8.8905,8.861,8.7729,8.6518,8.6371,8.3104,7.8038,7.5285,7.2716,7.033,6.8054,6.7907,6.8421,6.6292,6.5154,6.4127,6.119,5.6161,0.0,0.0,0.0,0.0,0.0,0.0,0.0,0.0,0.0,0.0,0.0,0.0,0.0,0.0,0.0,0.0,0.0,0.0,0.0,6.9293,7.2262,7.4965,7.7841,7.7976,7.7705,7.7367,7.6826,7.6149,7.5337,7.4627,7.368,7.2496,7.2259,7.1921,7.1345,7.1312,7.1312,7.1312,7.0567,6.9857,6.9113,6.8301,6.7455,6.6576,0.0,0.0,6.5222,6.4038,6.3024,6.2144,6.14,6.0283,5.8998,5.8863,5.7746,5.6122,5.5818,5.5175,5.4296,5.3721,5.3518,5.3518,0.0,0.0,0.0,0.0,0.0,0.0,0.0,3.7492,3.9218,4.4085,4.86,5.2931,5.6969,6.0639,6.3172,6.398,6.1851,6.1484,6.3906,6.6366,7.0587,7.7084,7.969,8.1746,8.3361,8.4572,8.5013,8.4609,8.582,8.6407,8.6444,8.8059,8.8793,8.883,8.9638,9.0225,9.0592,9.0188,8.9307,8.8206,8.8206,8.5563,8.1415,7.9764,7.7635,7.5395,7.4184,7.3487,7.2863,7.1248,7.044,6.9596,6.6769,6.2842,5.8621,0.0,0.0,0.0,0.0,0.0,0.0,0.0,0.0,0.0,0.0,0.0,0.0,0.0,0.0,6.4768,6.7097,0.0,7.3152,7.6263,7.7955,7.9173,8.0072,8.0209,7.9803,7.8686,7.7908,7.713,7.6386,7.527,7.4153,7.3037,7.2259,7.1684,7.1345,7.1312,7.1312,7.1312,7.0939,7.0398,6.9654,6.8876,6.8098,6.7354,6.6609,6.6068,6.5662,6.4546,6.3666,6.2888,6.1772,6.0858,6.0114,5.9336,5.7915,5.6224,5.5817,5.504,5.3991,5.3653,5.3518,5.3518,0.0,0.0,0.0,0.0,0.0,0.0,0.0,3.7015,3.8652,4.3167,4.6324,4.961,5.3319,5.5133,5.5904,5.5427,5.5941,5.829,6.2989,6.8017,7.3707,8.0204,8.3141,8.4682,8.4829,8.6261,8.6701,8.604,8.6995,8.7472,8.7509,8.8977,8.9602,8.9674,9.0482,9.1179,9.1767,9.1106,9.0372,8.9638,8.9455,8.7766,8.5123,8.3324,8.1452,7.9653,7.8699,7.668,7.4404,7.4037,7.3413,7.2422,7.0624,6.8531,6.5742,6.086,5.7373,0.0,0.0,0.0,0.0,0.0,0.0,0.0,0.0,6.0236,6.2401,6.6329,6.9706,7.2891,7.5923,7.8027,7.9977,8.1933,8.206,8.1826,8.1628,8.1088,8.0209,7.9025,7.8348,7.7638,7.6758,7.5405,7.4221,7.3341,7.2191,7.1447,7.1312,7.1312,7.1312,7.1312,7.1312,7.0939,7.0195,6.962,6.891,6.8132,6.7387,6.6711,6.6102,6.5222,6.441,6.3632,6.2009,6.1231,6.096,5.9573,5.8152,5.6731,5.6021,5.4905,5.3687,5.3551,5.3518,5.3518,0.0,0.0,0.0,0.0,0.0,0.0,0.0,0.0,3.6509,3.9974,4.1992,4.4085,4.6691,4.8416,4.9664,5.0345,5.5537,6.0542,6.4751,7.022,7.6203,8.2737,8.4022,8.4939,8.5637,8.6554,8.6958,8.6885,8.839,8.9125,8.9125,9.0078,9.0482,9.0519,9.1326,9.173,9.1803,9.1693,9.1216,9.0408,8.9675,8.8757,8.7545,8.5233,8.2443,7.958,7.8038,7.5432,7.2973,7.4331,7.4221,7.3634,7.4111,7.3083,7.0734,6.5925,6.1227,5.7189,5.528,5.4509,5.5317,5.9575,5.9795,6.1924,0.0,7.4404,7.3964,7.7341,8.0608,8.2035,7.9323,8.1081,8.2984,8.3215,8.2181,8.1728,8.2673,8.0239,7.828,7.8145,7.8044,7.7435,7.598,7.51,7.4018,7.2631,7.236,7.1988,7.1345,7.1312,7.1312,7.1312,7.1312,7.0939,7.0195,7.0094,6.9688,6.8977,6.8166,6.7726,6.7624,6.6203,6.5155,6.4377,6.2212,6.0892,6.0182,5.9336,5.8152,5.6731,5.6021,5.5209,5.4397,5.3754,5.3518,5.3518,0.0,0.0,0.0,0.0,0.0,0.0,0.0,0.0,0.0,3.8946,4.0194,4.1295,4.2286,4.3424,4.4452,4.5259,5.172,5.785,6.2805,7.022,7.69,8.248,8.4352,8.5453,8.5783,8.6591,8.6995,8.6995,8.7692,8.8243,8.872,8.9528,9.0152,9.0629,9.1436,9.1803,9.1803,9.1803,9.1326,9.0555,8.9748,8.8647,8.7252,8.4829,8.1305,7.7488,7.6313,7.4147,0.0,7.1505,7.1835,7.2459,7.3266,7.2386,7.044,6.699,6.4237,6.2218,6.1998,6.1704,6.2254,6.5705,6.8164,7.1293,7.7231,7.8516,7.936,8.2627,8.5086,8.6489,8.5954,8.7224,8.7861,8.6407,8.5693,8.4543,8.233,8.0424,7.8314,7.5676,7.5371,7.5303,7.51,7.439,7.351,7.2496,7.1988,7.165,7.1345,7.1312,7.1312,7.1312,7.1312,7.1176,7.0838,6.9992,6.9417,6.9079,6.7861,6.7252,6.7218,6.617,6.5053,6.3903,6.2516,6.1501,6.0757,5.9979,5.8761,5.7306,5.6156,5.5243,5.4499,5.3788,5.3518,5.3518,0.0,0.0,0.0,0.0,0.0,0.0,0.0,0.0,0.0,0.0,3.8689,3.9056,3.9533,3.99,4.0524,4.1552,4.7682,5.4032,5.9905,6.8421,7.5542,8.0645,8.3398,8.5123,8.5783,8.6591,8.7215,8.7692,8.7692,8.8096,8.8867,8.9454,9.0188,9.0959,9.1546,9.1803,9.1803,9.1546,9.1143,9.0519,8.9491,8.8133,8.6334,8.3251,7.9323,7.5285,7.4294,7.1505,6.8128,6.6953,6.7504,6.8752,6.9302,6.9486,6.9009,6.6806,6.5595,6.5044,6.5411,6.6476,6.8238,7.1321,7.5395,7.925,8.1415,8.2627,8.4101,8.6754,8.7888,8.8472,8.8776,8.9314,8.9045,8.7079,8.6498,8.5155,8.1927,7.9849,7.7299,7.3612,7.2259,7.1954,7.2699,7.2834,7.2665,7.2157,7.1616,7.1312,7.1312,7.1312,7.1312,7.1312,7.1312,7.1312,7.1312,7.006,6.9417,6.9383,6.7861,6.7117,6.7083,6.6136,6.5019,6.3768,6.3024,6.2042,6.0926,6.0351,5.9235,5.7746,5.6292,5.5378,5.4803,5.3856,5.3518,5.3518,0.0,0.0,0.0,0.0,0.0,0.0,0.0,0.0,0.0,0.0,0.0,0.0,0.0,3.8065,3.8264,3.9827,4.4434,5.0011,5.6528,6.4567,7.1615,7.72,8.0571,8.3398,8.5747,8.6591,8.7766,8.9308,8.9308,8.9748,9.0519,9.0555,9.0996,9.1767,9.1803,9.1803,9.173,9.0959,9.0629,9.0482,8.8867,8.7252,8.5306,8.0571,7.668,7.356,7.1982,6.6806,6.0713,6.0676,6.1227,6.1887,6.1924,6.4604,6.743,6.5815,6.4787,6.3943,6.3135,6.6366,7.1138,7.5879,7.958,8.3471,8.8977,8.9674,8.9532,9.0867,8.9947,8.7961,8.4972,8.4434,8.4144,8.3308,8.2212,8.1576,8.1861,7.7772,7.4187,7.2631,6.9214,6.7286,6.803,7.0094,7.1379,7.1345,7.1312,7.1312,7.1312,7.1312,7.1312,7.1312,7.1312,7.1312,7.1312,7.0534,7.0161,7.0128,6.8605,6.7861,6.7827,6.6339,6.529,6.4546,6.3802,6.2212,6.0148,6.0114,5.9235,5.7746,5.6292,5.5716,5.5513,5.4059,5.3518,5.3518,0.0,0.0,0.0,0.0,0.0,0.0,0.0,0.0,0.0,0.0,0.0,0.0,0.0,0.0,0.0,0.0,4.2543,4.7021,5.2454,5.9391,6.5558,7.0697,7.5579,7.8772,8.0131,8.2553,8.4095,8.4609,8.4609,8.5049,8.582,8.582,8.6261,8.7031,8.7582,8.7802,8.7802,8.7509,8.7435,8.7178,8.4499,8.3434,8.281,7.7414,7.2679,6.8421,0.0,6.1006,5.7776,5.6161,5.5794,5.6418,5.8547,5.9428,5.9979,6.1594,6.3796,6.6219,6.8605,7.2789,7.7561,8.1856,8.538,8.8573,9.1583,9.206,9.1364,8.9605,8.7961,8.57,8.1926,8.1573,8.1509,8.033,8.1456,8.1908,8.0273,7.8642,7.5777,7.0804,6.9519,6.8368,6.6609,6.7117,0.0,7.0432,7.0128,7.0263,7.1278,7.1312,7.1312,7.1312,7.1312,7.1312,7.1312,7.0567,6.9958,6.9451,6.7929,6.7184,6.7151,6.6136,6.529,6.4546,6.3835,6.2787,6.1535,6.052,5.9539,5.849,5.7002,5.6156,5.5546,5.46,5.4228,5.416,0.0,0.0,0.0,0.0,0.0,0.0,0.0,0.0,0.0,0.0,0.0,0.0,0.0,0.0,0.0,0.0,0.0,4.3294,4.7902,5.3445,5.8584,6.3172,6.7944,7.1138,7.2569,7.4661,7.6276,7.7451,7.7451,7.8148,7.9543,8.0094,8.0791,8.1599,8.2737,8.3214,8.3214,8.3214,8.27,8.1709,7.9323,7.7818,7.646,7.1321,6.6916,0.0,5.7262,5.4451,5.3057,5.1206,5.1389,5.2674,5.4399,5.6051,5.7813,6.0493,6.4347,6.8862,7.378,7.8222,8.2627,8.7252,9.0188,9.2281,9.3675,9.3051,9.1144,8.745,8.475,8.1593,7.6803,7.5866,7.5945,7.6501,7.7979,7.9074,7.9214,7.7856,7.5195,7.0781,6.9282,6.8167,6.7196,6.6587,6.7339,7.0002,7.0026,7.0297,7.1278,7.1312,7.1312,7.1312,7.1312,7.1312,7.1312,7.0567,6.9688,6.8673,6.7421,6.6812,6.6779,6.6305,6.5561,6.458,6.4106,6.3193,6.1907,6.0622,5.9674,5.8863,5.7374,5.6528,5.6021,5.5277,5.5006,5.4837,0.0,0.0,0.0,0.0,0.0,0.0,0.0,0.0,0.0,0.0,0.0,0.0,0.0,0.0,0.0,0.0,0.0,0.0,4.289,4.693,5.0932,5.4913,5.8253,6.119,6.3613,6.3833,6.5411,6.8458,6.8531,6.9706,7.1982,7.356,7.4698,7.5506,7.7121,7.7892,7.7928,7.7928,7.6533,7.4294,7.3377,7.0734,6.688,6.2805,5.9832,5.7005,5.0692,4.7846,4.7003,4.6287,4.8343,5.1096,5.0251,5.4913,6.1043,6.2768,6.6733,7.1982,7.8369,8.2553,8.6407,9.1877,9.3786,9.452,9.5107,9.2721,8.9057,8.4529,8.0369,7.5764,6.9819,6.7649,6.8029,7.1855,7.2202,7.3745,7.8843,7.5881,7.3052,7.2632,6.8895,6.7182,6.9431,6.8447,6.8399,7.028,0.0,7.1367,7.1435,7.1379,7.1345,7.1312,7.1312,7.1312,7.1312,7.0534,6.9383,6.7963,6.7184,6.6812,6.6812,6.6812,6.6,6.4613,6.4613,6.3328,6.1231,6.0419,5.9674,5.8863,5.7408,5.6867,5.6765,5.6055,5.5784,5.5581,0.0,0.0,0.0,0.0,0.0,0.0,0.0,0.0,0.0,0.0,0.0,0.0,0.0,0.0,0.0,0.0,0.0,0.0,3.8028,4.1368,4.4782,4.8233,5.2637,5.5904,5.7703,6.0126,6.1741,6.2585,6.3172,6.3759,6.4383,6.5411,6.5972,6.6256,6.732,6.8128,6.8678,6.8678,6.7981,6.6659,6.4604,6.3172,6.1887,5.8437,5.6381,5.4876,5.1389,4.8837,4.7149,4.7572,5.1867,5.7019,5.6799,6.0529,6.5521,6.8311,7.301,7.8332,8.2994,8.7949,9.2317,9.4373,9.5034,9.463,9.2354,8.9344,8.5312,7.9369,7.4029,6.8858,6.3612,6.3655,6.5337,6.7876,7.2346,7.6611,7.9605,7.9503,7.8046,7.5215,7.4614,7.3799,7.2186,7.2914,7.3335,7.3065,7.2104,7.2104,7.3249,7.255,7.1887,7.1345,7.1312,7.1312,7.1312,7.0026,6.918,6.8774,6.7455,6.6812,6.6812,6.6812,6.6,6.4613,6.4613,6.3328,6.1231,6.0419,5.9674,5.893,5.7983,5.7611,5.7509,5.6799,5.6528,5.6325,0.0,0.0,0.0,0.0,0.0,0.0,0.0,0.0,0.0,0.0,0.0,0.0,0.0,0.0,0.0,0.0,0.0,0.0,0.0,3.7771,4.012,4.2616,4.57,4.7792,4.8692,5.1169,5.2454,5.2454,5.3959,5.506,5.5794,5.6969,5.774,5.8107,5.9318,6.0089,6.0529,6.0896,6.0162,0.0,0.0,5.6051,5.484,5.2711,5.161,5.0986,4.926,4.937,5.0692,5.3261,5.7116,6.1129,6.3319,6.71,7.1431,7.5028,7.9103,8.3398,8.7802,9.184,9.4923,9.5401,9.4997,9.3308,8.8977,8.5196,8.0498,7.2936,6.7707,6.3048,5.8156,5.8798,6.1148,6.439,6.9554,7.4816,7.9511,8.057,8.0398,7.9394,7.9252,7.8587,7.6993,7.7787,7.8159,7.7651,7.4247,7.2658,7.3704,7.2903,7.2225,7.1819,7.1785,7.165,7.1312,7.0161,6.9417,6.9079,6.7861,6.7117,6.6812,6.6474,6.5696,6.458,6.4275,6.3226,6.1704,6.096,6.0182,5.9404,5.866,5.8186,5.7848,5.7442,5.7273,5.7171,0.0,0.0,0.0,0.0,0.0,0.0,0.0,0.0,0.0,0.0,0.0,0.0,0.0,0.0,0.0,0.0,0.0,0.0,0.0,0.0,3.6633,3.8138,3.8982,3.9475,3.9585,4.1038,4.1882,4.1992,4.4195,4.603,4.7535,4.9114,5.0215,5.0912,5.2454,5.3188,5.3335,5.4106,5.3188,5.1169,5.1169,4.9848,4.7755,0.0,4.6856,4.6892,4.6397,4.9554,5.4766,6.0382,6.3135,6.5118,7.0,7.4147,7.8038,8.2113,8.4866,8.7582,9.217,9.4593,9.5768,9.5547,9.4042,9.1143,8.5416,8.0571,7.4918,6.6402,6.1777,5.8031,5.3796,5.4322,5.6935,6.1867,6.6003,7.1377,7.9299,8.0529,8.1503,8.3968,8.314,8.2414,8.2356,8.2287,8.2248,8.2318,7.6859,7.374,7.4261,7.3457,7.289,7.2642,7.2642,7.2291,7.1501,7.0755,6.9964,6.9079,6.8267,6.7523,6.6779,6.6034,6.529,6.4546,6.3835,6.3024,6.2178,6.1569,6.0825,6.0047,5.9302,5.8626,5.8017,5.7915,5.7881,5.7881,0.0,0.0,0.0,0.0,0.0,0.0,0.0,0.0,0.0,0.0,3.512,3.3783,0.0,0.0,0.0,0.0,0.0,0.0,0.0,0.0,0.0,3.5591,3.6486,3.7235,3.7896,3.8836,3.9643,4.0304,4.1405,4.2433,4.3351,4.4305,4.4837,4.502,4.5957,4.6764,4.7425,4.8233,4.7939,4.6948,4.6948,4.6287,4.5315,4.5168,0.0,0.0,4.7462,4.9407,5.2894,6.2438,6.8385,7.2642,7.7561,8.0975,8.3911,8.7949,8.9895,9.14,9.4299,9.6245,9.7163,9.5841,9.2758,8.8573,8.292,7.5909,6.8825,6.2548,5.7121,5.3261,5.2389,5.3462,5.6394,6.2143,6.7024,7.2844,8.0593,8.2418,8.3826,8.6214,8.6608,8.6135,8.4809,8.439,8.3799,8.294,7.9359,7.7593,7.8448,7.6784,7.5283,7.3979,7.3944,7.3512,7.254,7.1815,7.0633,6.9079,6.8267,6.7523,6.6779,6.6034,6.529,6.4546,6.3835,6.2753,6.1467,6.1366,6.0825,6.0047,5.9302,5.893,5.8761,5.8118,5.7881,5.7814,0.0,0.0,0.0,0.0,0.0,0.0,0.0,3.7072,3.7677,4.0165,3.9413,3.7487,3.4476,3.4413,0.0,0.0,0.0,0.0,0.0,0.0,0.0,0.0,3.5408,3.5789,3.6193,3.7845,3.8469,3.8028,0.0,4.0671,4.1038,4.1458,4.1846,4.2286,4.3094,4.3681,4.4085,4.4892,4.5002,4.4635,4.4635,4.4415,4.4085,0.0,0.0,0.0,4.7076,4.9848,5.3775,6.0933,6.7944,7.4918,8.1929,8.6077,8.8904,9.1693,9.3088,9.4153,9.6208,9.7309,9.7493,9.5914,9.1803,8.6224,7.8883,7.1248,6.3759,5.6822,5.2586,4.9997,4.9531,5.2089,5.5451,5.9136,6.2967,6.875,7.8098,7.9736,8.221,8.8201,8.9475,8.9235,8.7595,8.7227,8.6381,8.4607,8.264,8.1055,7.9916,7.7809,7.608,7.4909,7.4484,7.4043,7.3611,7.3225,7.2215,7.0585,7.0243,6.9445,6.8262,6.7538,6.702,6.6639,6.5875,6.4608,6.3158,6.3158,6.2241,6.0689,6.0351,5.9945,5.9471,5.8727,5.8457,5.8355,0.0,0.0,0.0,0.0,0.0,0.0,0.0,3.8506,3.9614,4.3694,4.3422,4.1396,3.754,3.646,3.5386,0.0,0.0,0.0,0.0,0.0,0.0,0.0,0.0,0.0,3.4747,0.0,0.0,3.6303,3.8374,0.0,0.0,0.0,0.0,0.0,4.1442,4.1882,4.2103,4.291,4.3314,0.0,0.0,4.3515,0.0,0.0,0.0,0.0,0.0,4.9681,5.3849,5.8767,6.5154,7.2606,8.1195,8.7068,9.1069,9.2537,9.4153,9.5804,9.7236,9.7897,9.7676,9.5731,9.0592,8.3765,7.5359,6.7247,5.9501,5.227,4.9187,4.7719,4.7406,5.0424,5.3758,5.6348,5.8879,6.4255,7.4963,7.7044,8.0577,8.9054,9.1106,9.1253,8.9821,8.9528,8.8536,8.6481,8.5233,8.3368,8.0519,7.8403,7.6903,7.6117,7.5332,7.483,7.461,7.461,7.3824,7.2257,7.2257,7.1442,6.992,6.9211,6.8751,6.8573,6.7723,6.6672,6.5437,6.5263,6.4062,6.2286,6.1787,6.12,6.0517,5.958,5.9167,5.893,0.0,0.0,0.0,0.0,0.0,0.0,0.0,3.9618,4.1504,4.6004,4.4712,4.3004,4.2131,4.0388,3.7694,0.0,0.0,0.0,0.0,0.0,0.0,0.0,0.0,0.0,0.0,0.0,0.0,3.6303,3.7235,0.0,0.0,0.0,0.0,0.0,0.0,4.0524,4.1242,4.2066,0.0,0.0,0.0,0.0,0.0,0.0,0.0,0.0,0.0,4.7846,5.0031,5.7813,6.1447,6.4016,7.1468,8.0094,8.7619,8.85,9.195,9.5694,9.6575,9.7897,9.8264,9.518,8.8463,8.0865,7.4147,6.4714,5.6124,5.172,4.8306,4.6544,4.7939,4.8541,5.0778,5.6632,5.8569,6.2973,7.333,7.7542,8.1721,8.7729,9.0408,9.1436,9.0592,8.9858,8.9014,8.8059,8.5894,8.3514,8.1077,8.0015,7.9137,7.8332,7.7458,7.6595,7.5684,7.5649,7.4797,7.3073,7.3073,7.2258,7.0771,7.0026,6.9282,6.8573,6.7723,6.7299,6.7124,6.6383,6.5961,6.5509,6.3344,6.2434,6.2154,6.0588,5.9573,5.8998,0.0,0.0,0.0,0.0,0.0,0.0,3.8707,3.9476,4.137,4.626,4.6081,4.5426,4.5266,4.3013,3.9523,0.0,0.0,0.0,0.0,0.0,0.0,0.0,0.0,0.0,0.0,0.0,3.645,3.7734,3.8542,0.0,0.0,0.0,0.0,0.0,0.0,4.1075,4.1846,4.2176,0.0,0.0,0.0,0.0,0.0,0.0,0.0,0.0,0.0,0.0,4.9481,5.2197,5.5941,5.9612,6.0603,6.721,7.6056,8.3214,8.7729,9.1216,9.496,9.7126,9.7713,9.496,8.8206,8.0351,7.3377,6.3649,5.495,5.0912,4.7829,4.625,4.7369,4.7957,4.9618,5.3627,5.3339,5.6099,6.6089,6.8274,7.2569,8.2663,8.5563,8.7766,9.0372,9.0335,8.9417,8.7619,8.6151,8.4278,8.1856,8.0498,7.9176,7.7855,7.7457,7.7118,7.6728,7.6692,7.613,7.4968,7.4968,7.4388,7.3265,7.25,7.1992,7.163,7.0832,6.99,6.8949,6.8629,6.7588,6.6097,6.5124,6.4459,6.39,6.2787,6.1882,6.1179,0.0,0.0,0.0,0.0,0.0,3.5167,3.8084,3.8977,4.0777,4.4855,4.5385,4.5577,4.6086,4.3233,3.9899,3.6388,0.0,0.0,0.0,0.0,0.0,0.0,0.0,0.0,0.0,0.0,3.7411,3.8689,3.9496,4.0304,0.0,0.0,4.1095,4.1095,0.0,0.0,0.0,0.0,0.0,0.0,0.0,0.0,0.0,0.0,0.0,0.0,0.0,0.0,0.0,0.0,0.0,5.55,5.3482,5.7483,6.5044,7.5946,8.2186,8.6738,9.1913,9.4887,9.5951,9.3749,8.6921,7.8956,7.2165,6.2622,5.4179,5.0381,4.7609,4.614,4.6966,4.7553,4.8857,5.1573,5.0508,5.2527,6.1533,6.2952,6.688,7.7268,8.0351,8.3434,8.8023,8.9564,8.9564,8.7839,8.6297,8.4499,8.2296,8.0645,7.914,7.7745,7.742,7.7273,7.7273,7.7273,7.7047,7.646,7.646,7.6056,7.5249,7.4661,7.4147,7.367,7.3083,7.1911,7.0344,7.0126,6.8811,6.6921,6.6449,6.5889,6.5323,6.4528,6.3716,6.2995,0.0,0.0,0.0,0.0,0.0,0.0,0.0,3.82,3.9892,4.1615,4.1846,4.247,4.4162,4.0585,3.8354,3.92,0.0,0.0,0.0,0.0,0.0,0.0,0.0,0.0,0.0,0.0,3.816,3.8689,3.9496,4.0304,4.1095,4.1095,4.1095,4.1095,0.0,0.0,0.0,0.0,0.0,0.0,0.0,0.0,4.3497,0.0,0.0,0.0,0.0,0.0,0.0,0.0,0.0,0.0,0.0,5.3151,5.6455,6.6182,7.5322,8.3141,8.7178,9.0665,9.2758,9.1069,8.3948,7.5842,7.022,6.141,5.3482,5.0271,4.7609,4.614,4.6966,4.7113,4.8177,5.1463,5.1977,5.4509,6.1777,6.4897,6.7981,7.2092,7.5432,7.8961,8.3104,8.707,8.9382,8.9345,8.6444,0.0,8.2296,8.0645,7.9433,7.8589,7.7781,7.7273,7.7273,7.7273,7.7273,7.7273,7.7273,7.69,7.6093,7.6093,7.5212,7.3707,7.367,7.2789,7.1219,7.044,6.9605,6.8715,6.7062,6.6404,6.6247,6.5326,6.4503,6.3899,0.0,0.0,0.0,0.0,0.0,0.0,0.0,3.6815,3.793,3.9046,3.9738,4.0739,4.2431,3.9854,3.8354,3.9207,0.0,0.0,0.0,0.0,0.0,0.0,0.0,0.0,0.0,0.0,3.9644,4.1504,4.2087,4.3057,4.4378,4.3828,4.3553,4.3517,4.2433,4.2359,0.0,0.0,0.0,0.0,0.0,4.3828,4.4305,0.0,0.0,0.0,0.0,0.0,0.0,0.0,0.0,0.0,0.0,0.0,0.0,5.7446,6.5301,7.3156,7.7194,8.0241,8.1672,7.8919,7.4882,7.0073,6.4383,5.8584,5.3482,5.0271,4.8049,4.6966,4.7773,4.748,4.8544,5.2931,5.3188,5.4583,5.9625,6.3429,6.7797,7.3487,8.1893,8.7729,8.9014,8.9821,8.9784,8.8683,8.6628,8.4462,8.2296,8.0645,7.914,7.7781,7.742,7.7273,7.7273,7.7273,7.7273,7.7273,7.7273,7.69,7.6093,7.5542,7.4698,7.367,7.312,7.2606,7.2092,7.1835,7.1284,7.0449,6.9344,6.893,6.8828,6.7986,6.7138,6.649,0.0,0.0,0.0,0.0,0.0,0.0,0.0,3.55,3.6308,3.6546,3.7315,3.8623,4.0623,3.8584,3.7777,3.9592,0.0,0.0,0.0,0.0,0.0,0.0,0.0,0.0,3.7101,3.8851,4.0904,4.3267,4.4033,4.5223,4.6801,4.6617,4.6121,4.5267,4.4154,4.3674,0.0,0.0,0.0,0.0,4.3828,4.4085,4.4268,0.0,0.0,0.0,0.0,0.0,0.0,0.0,0.0,0.0,0.0,0.0,0.0,0.0,5.7152,6.3503,6.9376,7.2753,7.4111,7.2092,6.9302,6.5815,6.1043,5.6602,5.2747,5.0161,4.8012,4.6892,4.7719,4.7186,4.7865,5.1499,5.2234,5.3812,5.8143,6.2548,6.7797,7.4551,8.3214,8.8647,8.8647,8.9564,8.9491,8.7876,8.6261,8.4278,8.1893,8.0498,7.9029,7.7347,7.7273,7.7273,7.7273,7.7273,7.7273,7.7273,7.7273,7.69,7.6093,7.5579,7.4735,7.367,7.3156,7.2606,0.0,7.2055,7.1578,7.0807,7.0293,7.011,7.0036,6.9522,6.9023,6.8604,0.0,0.0,0.0,0.0,0.0,0.0,0.0,0.0,3.5192,3.4398,3.5007,3.6385,3.8777,3.693,3.6776,3.9938,0.0,0.0,0.0,0.0,0.0,0.0,0.0,0.0,3.7364,3.9679,4.1969,4.4177,4.55,4.6985,4.8567,4.9469,4.8697,4.6589,4.6224,4.5281,4.3921,0.0,0.0,0.0,4.4415,4.4305,0.0,0.0,0.0,0.0,0.0,0.0,0.0,0.0,0.0,0.0,0.0,0.0,0.0,0.0,0.0,0.0,0.0,6.699,6.8862,6.8752,6.5962,6.2401,5.9148,5.4987,0.0,4.9757,4.7535,4.6214,4.7186,4.6654,4.6691,4.86,5.0215,5.2858,5.7593,6.2805,6.8788,7.5873,8.1012,8.3911,8.3691,8.7142,8.872,8.7031,8.549,8.3544,8.1122,8.0241,7.9066,7.742,7.731,7.7273,7.7273,7.7273,7.7273,7.7273,7.7237,7.679,7.6019,7.5946,7.5065,0.0,7.3597,7.2789,7.1366,7.1366,7.0954,7.0257,7.0146,7.0183,7.0257,7.0146,7.0146,7.0183,0.0,0.0,0.0,0.0,0.0,0.0,0.0,0.0,0.0,0.0,3.5385,3.5731,3.6346,3.5846,3.6077,0.0,0.0,0.0,0.0,0.0,0.0,0.0,0.0,0.0,3.9678,4.1264,4.3312,4.5747,4.7749,4.9543,5.1158,5.207,5.1215,4.8798,4.7778,4.5947,4.3614,4.3512,0.0,0.0,4.4618,4.4966,0.0,0.0,0.0,0.0,4.5553,4.614,0.0,0.0,0.0,0.0,0.0,0.0,0.0,0.0,4.8067,4.9131,5.183,0.0,5.6895,5.5647,5.5097,5.4142,0.0,5.0472,4.9627,4.8012,4.6728,4.6728,4.9444,4.8746,4.9297,5.4032,5.5133,5.6638,6.0236,6.8678,7.6497,8.1966,8.6885,8.8867,8.6407,8.8098,8.85,8.6261,8.5159,8.3544,8.1122,8.0241,7.9323,7.8332,7.7671,7.7273,7.7273,7.7273,7.7273,7.7273,7.668,7.5983,7.5175,7.4551,7.3707,7.2789,7.2789,7.2569,7.2239,7.2239,7.2129,7.1798,7.0587,7.0844,7.1798,7.055,7.0477,7.1027,0.0,0.0,0.0,0.0,0.0,0.0,0.0,0.0,0.0,0.0,0.0,0.0,0.0,0.0,0.0,0.0,0.0,0.0,0.0,0.0,0.0,0.0,0.0,4.0246,4.1085,4.2412,4.4712,4.8017,5.0193,5.2304,5.4321,5.5168,5.3936,5.0868,4.8112,4.5708,4.3763,4.3951,4.4407,4.5053,4.5776,0.0,0.0,0.0,0.0,0.0,4.548,4.5883,0.0,4.6911,4.7572,4.8233,0.0,0.0,0.0,0.0,4.6819,4.7186,4.7626,5.0141,5.2454,5.1573,5.1977,5.2013,4.9921,4.9187,4.86,4.7369,4.6471,4.6654,4.9187,4.8636,4.9241,5.3849,5.5207,5.8143,6.5081,7.254,7.9365,8.5049,8.8316,8.9748,8.8757,8.9124,8.8573,8.6518,8.527,8.3544,8.1122,8.0241,7.925,7.8038,7.753,7.7273,7.7273,7.7273,7.7273,7.7273,7.6864,7.6056,7.4918,7.4441,7.3597,7.2496,7.2496,7.2496,7.2459,7.2092,7.1945,7.1872,7.0991,7.1174,7.1908,7.1394,7.1468,7.1798,0.0,0.0,0.0,0.0,0.0,0.0,0.0,0.0,0.0,0.0,0.0,0.0,0.0,0.0,0.0,0.0,0.0,0.0,0.0,0.0,0.0,0.0,4.0977,4.1431,4.2538,4.3446,4.5922,5.0109,5.2441,5.4814,5.7232,5.8413,5.6679,5.2412,4.8162,4.5523,4.4281,4.47,4.528,4.609,4.7442,0.0,0.0,0.0,0.0,0.0,0.0,0.0,0.0,4.7425,4.8086,4.8526,4.8619,0.0,0.0,0.0,0.0,0.0,4.7186,4.9774,5.2234,5.1756,5.2344,5.2601,5.0986,4.9517,4.8306,4.7626,4.6948,4.6985,4.8746,4.869,4.9444,5.2601,5.495,6.0162,7.0917,7.5659,8.0246,8.6297,8.8059,8.9087,8.9968,8.9674,8.8683,8.6958,8.5453,8.3508,8.0938,8.0167,7.9029,7.7347,7.7273,7.7273,7.7273,7.7273,7.7273,7.7273,7.7053,7.6209,7.4918,7.4661,7.378,7.2496,7.2496,7.2422,7.2275,7.1578,7.1219,7.1138,7.1138,7.1211,7.1366,7.2092,7.2386,7.2386,0.0,0.0,0.0,0.0,0.0,0.0,0.0,0.0,0.0,0.0,0.0,0.0,0.0,0.0,0.0,0.0,0.0,0.0,0.0,0.0,0.0,4.3662,4.3047,4.3778,4.6077,4.4858,4.6339,5.0604,5.375,5.6261,5.8179,6.1134,5.9013,5.2577,4.968,4.734,4.555,4.5608,4.6916,4.8961,4.9225,0.0,0.0,0.0,0.0,0.0,0.0,0.0,0.0,4.5883,4.7095,4.8839,4.5498,0.0,0.0,0.0,0.0,0.0,4.7553,5.1022,5.3371,5.0639,5.1116,5.1756,5.0161,4.961,4.939,4.9243,4.9133,4.9738,5.205,5.3445,5.5133,5.768,6.2365,6.8421,7.635,7.9764,8.2847,8.6554,8.9528,9.0262,8.7802,8.8683,8.8463,8.6151,8.5123,8.3251,8.0131,7.9874,7.9029,7.7347,7.7273,7.7273,7.7273,7.7273,7.7273,7.7273,7.5916,7.5139,7.4845,7.3487,7.2753,7.2496,7.2496,7.2129,7.1439,7.1329,7.0917,7.0293,7.0293,7.0697,7.1293,7.1439,7.1945,7.2275,0.0,0.0,0.0,0.0,0.0,0.0,0.0,0.0,0.0,0.0,0.0,0.0,0.0,0.0,0.0,0.0,0.0,0.0,0.0,0.0,4.4124,4.6278,4.6009,4.6355,4.7509,4.7702,5.0048,5.4818,5.8165,6.0935,6.3051,6.232,5.8992,5.3529,5.0765,4.85,4.6821,4.7551,4.8613,4.9936,0.0,0.0,0.0,0.0,0.0,0.0,0.0,0.0,0.0,0.0,4.7278,4.8489,4.6177,0.0,0.0,0.0,0.0,0.0,4.7113,4.9994,5.2417,5.2234,5.3739,5.4693,5.2637,5.1867,5.1536,5.1536,5.1867,5.2931,5.5354,5.7116,5.9722,6.4347,6.9119,7.3891,7.8589,8.0938,8.3544,8.7215,8.894,8.9638,8.9014,8.9234,8.861,8.6591,8.4903,8.292,8.0571,7.9617,7.8589,7.7347,7.7273,7.7273,7.7273,7.7273,7.7273,7.7273,7.613,7.5322,7.4882,7.367,7.2899,7.2496,7.2055,7.1651,7.1219,7.0367,7.0036,7.011,7.011,7.0587,7.1329,7.1798,7.1651,7.1101,0.0,0.0,0.0,0.0,0.0,0.0,0.0,0.0,0.0,0.0,0.0,0.0,0.0,0.0,0.0,0.0,0.0,0.0,0.0,4.3855,4.5355,4.774,4.8202,4.8856,4.9856,5.101,5.4087,5.9204,6.2358,6.5128,6.7321,6.3474,5.9204,5.4654,5.2,4.9908,4.8406,4.9429,5.0342,5.1258,0.0,0.0,0.0,0.0,0.0,0.0,0.0,0.0,0.0,0.0,0.0,0.0,0.0,0.0,0.0,4.6874,4.5883,4.5645,4.748,4.9481,5.1573,5.3628,5.55,5.6785,5.6455,5.5317,5.4656,5.5794,5.6675,5.7629,5.8877,6.0896,6.4347,7.0257,7.4625,7.8185,8.0828,8.259,8.4903,8.8353,8.8757,8.9234,9.0482,8.9528,8.8169,8.6554,8.4389,8.2333,8.0534,7.9286,7.8222,7.731,7.7273,7.7273,7.7273,7.7273,7.7273,7.7273,7.6313,7.5506,7.4882,7.3854,7.3083,7.2459,7.1872,7.1439,7.1183,6.9963,6.9706,7.011,7.0293,7.0881,7.1688,7.2275,7.1615,7.0367,0.0,0.0,0.0,0.0,0.0,0.0,0.0,0.0,0.0,0.0,0.0,0.0,0.0,0.0,0.0,0.0,0.0,0.0,0.0,4.3855,4.5086,4.6923,4.8471,5.1125,5.5049,5.4549,5.6703,6.1831,6.4436,6.659,6.8244,6.559,6.1204,5.5549,5.3759,5.2067,5.049,5.0586,5.2008,5.4182,5.4297,0.0,0.0,0.0,0.0,0.0,0.0,0.0,0.0,0.0,0.0,0.0,0.0,0.0,4.9317,4.8416,4.7553,4.7443,4.9884,5.1206,5.2123,5.3078,5.3424,5.5038,6.0896,5.9832,5.8951,6.3503,6.5081,6.4971,6.2879,6.5668,6.9669,7.3891,7.8002,8.1746,8.4903,8.6738,8.8426,9.0225,9.0445,9.0482,9.0592,8.8536,8.6518,8.4903,8.3214,8.1269,7.8883,7.8662,7.8222,7.731,7.7273,7.7273,7.7273,7.7273,7.7273,7.7273,7.5763,7.4955,7.4845,7.3303,7.2569,7.2496,7.2459,7.1982,7.1293,7.1211,7.0734,7.0183,7.0917,7.1725,7.2422,7.2496,7.1945,7.1138,0.0,0.0,0.0,0.0,0.0,0.0,0.0,0.0,0.0,0.0,0.0,0.0,0.0,0.0,0.0,0.0,0.0,0.0,0.0,4.4624,4.6124,4.8355,4.9586,5.1933,5.5626,5.6934,5.9858,6.4474,6.7513,6.8513,6.7552,6.4974,6.1204,5.6445,5.4741,5.3664,5.3049,5.3049,5.3895,5.5241,5.5241,5.488,0.0,0.0,0.0,0.0,0.0,0.0,0.0,0.0,4.831,4.9208,4.7052,4.82,4.9994,4.8103,4.6966,4.6691,4.8103,5.0215,5.2307,5.3628,5.506,5.7373,6.1789,6.3062,6.4383,6.8238,7.0477,7.1284,6.9853,7.1248,7.3817,7.7378,8.0498,8.3618,8.6848,8.7802,8.861,8.9748,8.9417,8.8904,8.8426,8.7068,8.538,8.3251,8.2076,8.0608,7.8699,7.8112,7.7671,7.731,7.7273,7.7273,7.7273,7.7273,7.7053,7.6533,7.5432,7.4918,7.4845,7.323,7.2239,7.1725,7.1211,7.0844,7.0513,7.0036,7.022,7.0954,7.1725,7.2239,7.2496,7.2496,7.1982,7.1284,0.0,0.0,0.0,0.0,0.0,0.0,0.0,0.0,0.0,0.0,0.0,0.0,0.0,0.0,0.0,0.0,0.0,0.0,4.4316,4.5133,4.6518,4.8509,4.9933,5.2289,5.5626,5.8204,6.1473,6.5474,6.8859,6.936,6.7051,6.4782,6.1897,5.8523,5.6549,5.5857,5.6011,5.5203,5.5203,5.5703,5.5703,5.5203,0.0,0.0,0.0,0.0,0.0,0.0,0.0,0.0,4.8802,4.9159,4.7904,4.9011,5.0472,4.8764,4.7719,4.7058,4.7076,4.8746,5.0912,5.2784,5.5647,5.9318,6.4347,6.6623,6.8935,7.345,7.5065,7.5579,7.5285,7.5249,7.6276,7.9286,8.2039,8.4756,8.7435,8.8059,8.8316,8.861,8.8169,8.7399,8.6334,8.527,8.3765,8.1599,8.0681,7.9653,7.8259,7.7604,7.7273,7.7273,7.7273,7.7273,7.7273,7.7053,7.679,7.646,7.5139,7.4515,7.4478,7.312,7.2202,7.1651,7.1101,7.0844,7.0807,7.0257,7.0697,7.1725,7.2275,7.2496,7.2496,7.2496,7.2165,7.1651,0.0,0.0,0.0,0.0,0.0,0.0,0.0,0.0,0.0,0.0,0.0,0.0,0.0,0.0,0.0,0.0,0.0,0.0,4.4316,4.5133,4.597,4.6846,4.9317,5.2251,5.5588,5.8165,6.1166,6.4589,6.7975,6.8744,6.7013,6.5359,6.3666,6.1985,5.9435,5.8781,5.9319,5.678,5.5703,5.5703,5.5703,5.5203,5.4434,0.0,0.0,0.0,0.0,0.0,0.0,0.0,5.0241,4.9325,5.1711,5.173,5.0839,5.0802,5.0215,4.9243,4.7553,4.7113,4.7773,5.0251,5.4509,6.0419,6.9339,7.0734,7.2239,7.958,7.9103,7.7604,7.8479,7.7268,7.6937,7.9396,8.2517,8.5159,8.6775,8.7692,8.7876,8.7105,8.6995,8.6334,8.4719,8.3104,8.1489,7.991,7.9029,7.8222,7.7347,7.7273,7.7273,7.7273,7.7273,7.7273,7.7273,7.6533,7.6497,7.7237,7.4845,7.3707,7.367,7.2863,7.2496,7.2496,7.2496,7.2496,7.2496,7.2496,7.2496,7.2496,7.2496,7.2496,7.2496,7.2496,7.2496,7.2386,0.0,0.0,0.0,0.0,0.0,0.0,0.0,0.0,0.0,0.0,0.0,0.0,0.0,0.0,0.0,0.0,0.0,0.0,4.521,4.5479,4.597,4.6846,4.874,5.0548,5.2135,5.5829,5.9973,6.4589,6.5628,6.5551,6.4397,6.332,6.1897,6.0242,6.0127,5.955,5.855,5.6549,5.6049,5.656,5.5934,5.5549,5.5241,0.0,0.0,0.0,0.0,0.0,0.0,0.0,0.0,0.0,4.954,5.0858,5.2029,4.9738,4.9701,5.0068,4.8416,4.9608,5.2103,5.5133,6.0382,6.6549,7.3156,7.4955,7.7268,8.4572,8.3214,8.0828,8.1085,8.0241,7.98,8.0534,8.2884,8.5159,8.6775,8.6738,8.6407,8.6187,8.4646,8.3434,8.2957,8.1452,8.0057,7.9029,7.8736,7.8222,7.7347,7.7273,7.7273,7.7273,7.7273,7.7273,7.7273,7.7053,7.6497,7.5616,7.4882,7.4551,7.4515,7.312,7.2202,7.1688,7.1688,7.1688,7.1725,7.2275,7.2496,7.2496,7.2496,7.2165,7.1688,7.1688,7.1688,7.1651,0.0,0.0,0.0,0.0,0.0,0.0,0.0,0.0,0.0,0.0,3.9892,4.0662,0.0,0.0,0.0,0.0,0.0,0.0,0.0,4.5594,4.597,4.6846,4.8509,5.0433,5.2636,5.6165,5.9165,6.1589,6.2243,6.2474,6.232,6.3205,6.3205,6.2589,6.4474,6.3628,6.0704,5.9319,5.7857,5.6522,5.6665,5.6319,5.5665,0.0,0.0,0.0,0.0,0.0,0.0,0.0,0.0,0.0,4.8851,4.9677,5.0452,4.8783,4.8783,4.9334,4.9297,5.0986,5.3812,5.829,6.409,7.055,7.7818,8.0608,8.3141,8.8536,8.6407,8.3728,8.4058,8.2406,8.1232,8.1856,8.3434,8.4939,8.593,8.5637,8.5086,8.4425,8.281,8.1452,8.0828,7.9874,7.8993,7.8148,7.8075,7.7855,7.731,7.7273,7.7273,7.7273,7.698,7.6827,7.6827,7.6203,7.5542,7.4918,7.4258,7.4111,7.4368,7.3083,7.2239,7.1798,7.1798,7.1798,7.1835,7.2312,7.2496,7.2496,7.2496,7.2202,7.1798,7.1798,7.1798,7.1798,0.0,0.0,0.0,0.0,0.0,0.0,0.0,0.0,0.0,0.0,4.0854,4.1846,0.0,0.0,0.0,0.0,0.0,0.0,0.0,0.0,4.597,4.6846,4.874,5.1664,5.5742,5.8011,5.8396,5.6868,5.8473,5.9704,6.0666,6.4243,6.6282,6.7128,7.0398,6.9052,6.4282,6.3128,5.9858,5.5626,5.728,5.6973,5.5472,5.5472,0.0,0.0,0.0,0.0,0.0,0.0,0.0,0.0,4.9164,4.8369,4.7333,4.8012,4.7773,4.7846,5.0362,5.172,5.4032,6.0713,6.699,7.3891,8.2957,8.6811,8.9014,9.1143,8.8683,8.6297,8.6885,8.3948,8.1893,8.3214,8.4095,8.4609,8.4609,8.4462,8.3838,8.237,8.1342,8.0204,7.8736,7.8516,7.8148,7.7347,7.7273,7.7273,7.7273,7.7237,7.7163,7.7163,7.6423,7.5983,7.5983,7.4551,7.4147,7.4771,7.3303,7.2936,7.356,7.2826,7.2496,7.2496,7.2496,7.2496,7.2496,7.2496,7.2496,7.2496,7.2496,7.2422,7.2275,7.2349,7.2349,7.2275,0.0,0.0,0.0,0.0,0.0,0.0,0.0,0.0,0.0,0.0,0.0,0.0,0.0,0.0,0.0,0.0,0.0,0.0,0.0,0.0,4.597,4.6846,5.0433,5.3741,5.6676,5.6588,5.6319,5.5972,5.7022,5.7973,5.8934,6.3666,6.5974,6.6244,6.8282,6.6782,6.2397,5.8819,5.5934,5.3818,5.4895,5.4664,5.3741,5.3741,5.2164,0.0,0.0,0.0,0.0,0.0,0.0,0.0,4.8433,4.8278,4.7976,4.748,4.8122,4.9517,5.2013,5.4216,5.7776,6.6182,7.5395,8.3471,8.7472,8.9271,9.0041,8.9968,8.9234,8.8316,8.7215,8.5783,8.4462,8.3581,8.4095,8.4609,8.4609,8.3508,8.259,8.2223,8.0351,7.8993,7.8626,7.8002,7.7494,7.731,7.7273,7.7273,7.7273,7.6717,7.635,7.635,7.5579,7.5175,7.5175,7.4808,7.4404,7.3964,7.3597,7.3193,7.2753,7.2569,7.2496,7.2496,7.2496,7.2496,7.2496,7.2496,7.2496,7.2496,7.2496,7.1725,7.0697,7.1321,7.1174,7.0697,0.0,0.0,0.0,0.0,0.0,0.0,0.0,0.0,0.0,0.0,0.0,0.0,0.0,0.0,0.0,0.0,0.0,0.0,0.0,0.0,4.6518,4.8625,5.201,5.4434,5.578,5.4934,5.4318,5.3895,5.3933,5.5665,5.9011,6.4512,6.7744,6.9013,7.1091,6.8783,6.3089,6.005,5.6857,5.3895,5.4741,5.4587,5.378,5.3356,5.1356,4.8779,4.8779,0.0,0.0,0.0,0.0,0.0,0.0,0.0,4.7115,4.7062,4.7505,4.8808,5.2447,5.5911,6.1043,7.1541,7.9433,8.527,8.7729,8.9197,8.9821,8.9014,8.8536,8.7986,8.7178,8.5416,8.3801,8.2957,8.2847,8.2884,8.2884,8.1819,8.1048,8.1048,7.9213,7.8002,7.8002,7.7598,7.7127,7.6754,7.6754,7.657,7.6173,7.5763,7.5542,7.5542,7.4771,7.4331,7.4331,7.356,7.2973,7.2569,7.2165,7.1945,7.1945,7.1945,7.2165,7.2496,7.2092,7.2165,7.2496,7.2496,7.2496,7.2496,7.2496,7.1982,7.1248,7.1284,7.1284,7.1248,0.0,0.0,0.0,0.0,0.0,0.0,0.0,0.0,0.0,0.0,0.0,0.0,0.0,0.0,0.0,0.0,0.0,0.0,0.0,0.0,0.0,5.0558,5.2856,5.4241,5.4703,5.3587,5.2702,5.2115,5.1471,5.428,6.0473,6.5743,6.9783,7.2706,7.4514,7.1437,6.4666,6.2255,5.8369,5.3895,5.4549,5.4241,5.3318,5.2587,5.0471,4.7894,4.7894,4.7471,4.7,4.7817,0.0,0.0,0.0,0.0,4.5932,4.6595,4.651,4.7227,5.201,5.7396,6.431,7.5395,8.0901,8.4168,8.6334,8.7949,8.8757,8.7949,8.7362,8.6885,8.6481,8.4095,8.2113,8.1819,8.1232,8.0791,8.0791,8.0094,7.958,7.958,7.8259,7.7273,7.7273,7.7273,7.6974,7.6166,7.6093,7.5763,7.4955,7.4771,7.4698,7.4698,7.3927,7.3413,7.3303,7.1982,7.1219,7.1101,7.055,7.0734,7.1476,7.1329,7.1762,7.2459,7.1651,7.1762,7.2496,7.2496,7.2496,7.2496,7.2496,7.2422,7.2239,7.1725,7.1835,7.2239,0.0,0.0,0.0,0.0,0.0,0.0,0.0,0.0,0.0,0.0,4.3047,4.3662,0.0,0.0,0.0,0.0,0.0,0.0,4.5594,0.0,0.0,5.0596,5.1702,5.328,5.5472,5.328,5.2385,5.3049,5.2933,5.6665,6.3974,6.6205,6.9821,7.4322,7.3206,7.009,6.5359,5.9985,5.5175,5.1212,5.1327,5.0394,4.8933,4.8817,4.8048,4.7038,4.7038,4.7,4.7,4.7817,4.7882,0.0,0.0,0.0,4.5819,4.593,4.5663,4.6275,5.0467,5.8999,6.8274,7.4808,8.0461,8.4719,8.571,8.6664,8.7105,8.6297,8.6591,8.6371,8.4278,8.2957,8.1746,8.0351,8.0021,7.9947,7.9947,7.925,7.8772,7.8772,7.7928,7.7273,7.7273,7.7273,7.6974,7.6166,7.6093,7.5763,7.4955,7.4258,7.3854,7.3854,7.3083,7.2349,7.1651,7.1403,7.0954,7.0257,7.0881,7.1578,7.2312,7.1651,7.1762,7.2459,7.1651,7.1762,7.2496,7.2496,7.2496,7.2496,7.2496,7.2092,7.1513,7.2129,7.1982,7.1541,0.0,0.0,0.0,0.0,0.0,0.0,0.0,0.0,0.0,0.0,0.0,4.4047,0.0,0.0,0.0,4.4855,4.4855,4.5094,4.5556,4.6432,4.7817,4.9894,5.0779,5.1972,5.3549,5.1548,5.0933,5.1779,5.0818,5.5972,6.6782,6.7975,7.2052,7.813,7.4514,7.1091,6.7552,6.0139,5.5098,5.1972,5.0548,5.0087,5.0,4.8154,4.7778,4.8125,4.6663,4.6163,4.6317,4.7124,4.7626,4.7729,4.6886,0.0,0.0,0.0,4.6061,4.7782,5.3702,5.9368,6.5411,7.2899,7.7304,8.0424,8.2627,8.3728,8.4095,8.3287,8.3398,8.3471,8.2847,8.1342,7.9947,7.925,7.8736,7.8589,7.9066,7.8405,7.8075,7.8552,7.7855,7.7273,7.7273,7.7273,7.676,7.5542,7.5432,7.4698,7.2973,7.2973,7.2606,7.1688,7.1798,7.1431,7.066,7.0183,6.9559,6.8752,7.0036,7.0807,7.1174,7.1284,7.1762,7.2459,7.1651,7.1762,7.2496,7.2496,7.2496,7.2496,7.2496,7.2275,7.1982,7.1872,7.1908,7.1982,0.0,0.0,0.0,0.0,0.0,0.0,0.0,0.0,0.0,0.0,0.0,0.0,0.0,0.0,0.0,0.0,4.4624,4.4902,4.5556,4.6201,4.724,4.8702,4.9586,5.0433,5.1231,4.9817,4.9625,5.0712,4.9586,5.5818,6.8783,7.0283,7.5399,8.3131,7.8246,7.3937,6.9821,6.2166,5.7473,5.4818,5.1395,5.0664,5.1356,4.9279,4.9279,5.0048,4.7749,4.6903,4.698,4.7394,4.7932,4.8279,4.7471,4.7625,0.0,0.0,0.0,4.8188,5.413,5.7349,6.0856,6.8669,7.2899,7.5983,7.9066,8.0718,8.1415,8.0828,8.0534,8.0571,8.1158,7.98,7.8516,7.8295,7.7745,7.753,7.8185,7.7708,7.7561,7.8185,7.7708,7.7273,7.7273,7.709,7.6393,7.5028,7.4735,7.3744,7.1725,7.1982,7.1651,7.044,7.0807,7.0624,6.9816,6.9009,6.8385,6.8017,6.9229,6.9889,7.011,7.0954,7.1651,7.2165,7.155,7.1762,7.2496,7.2496,7.2496,7.2496,7.2496,7.2496,7.2422,7.1835,7.1982,7.2422,0.0,0.0,0.0,0.0,0.0,0.0,0.0,0.0,0.0,0.0,0.0,0.0,4.5364,4.5518,4.5518,4.5518,4.5518,4.5556,4.5594,4.5633,4.6086,4.7009,4.7817,0.0,4.951,4.8625,4.9009,5.0712,5.1356,5.7846,6.9706,7.2937,7.9823,8.9248,8.4978,7.8977,7.1706,6.6436,6.2743,5.9896,5.4087,5.1356,5.0943,5.2318,5.2933,5.2779,5.1048,5.0442,5.0327,4.951,4.9317,4.9163,4.8317,4.8086,4.7778,0.0,0.0,0.0,4.7713,5.1658,5.6327,6.1053,6.7504,7.334,7.5799,7.8185,7.991,7.9874,7.925,7.8736,7.8772,7.8662,7.8332,7.7494,7.731,7.731,7.7347,7.731,7.731,7.7347,7.731,7.7273,7.7273,7.6607,7.5799,7.4955,7.4184,7.3377,7.2496,7.1762,7.1293,7.1248,7.055,6.9779,6.8972,6.8164,6.8128,6.8862,6.8935,6.9376,7.011,7.0954,7.1293,7.1329,7.1293,7.1762,7.2496,7.2496,7.2496,7.2496,7.2496,7.2496,7.2496,7.2459,7.2459,7.2496,0.0,0.0,0.0,0.0,0.0,0.0,0.0,0.0,0.0,0.0,0.0,0.0,0.0,4.4778,4.4778,4.4778,4.5287,4.5594,4.5594,4.5594,4.6201,4.7625,4.7971,4.8779,5.0202,4.9394,4.924,4.9856,5.0702,5.6088,6.5705,7.0167,7.5399,8.0977,8.0516,7.8515,7.4899,6.5936,6.1012,5.8858,5.5088,5.4395,5.5395,5.3818,5.4549,5.6126,5.3318,5.2318,5.2356,5.2587,5.1933,5.0856,5.001,4.9009,4.7778,4.6095,4.5371,4.5582,4.7767,4.969,5.2419,5.8169,6.2584,6.6549,7.0587,7.3744,7.6019,7.6533,7.7268,7.7781,7.7781,7.7781,7.7671,7.7347,7.7273,7.7273,7.7273,7.7273,7.7273,7.7273,7.6864,7.6533,7.6533,7.5799,7.4992,7.4184,7.3377,7.2349,7.1027,7.0697,7.0073,6.9009,6.9192,6.8935,6.8128,6.7834,6.7834,6.8128,6.9192,6.9559,6.9412,7.1248,7.1798,7.1329,7.1872,7.2239,7.2496,7.2496,7.2496,7.2496,7.2496,7.2496,7.2496,7.2496,7.2496,7.2496,0.0,0.0,0.0,0.0,0.0,0.0,0.0,0.0,0.0,4.4701,0.0,0.0,0.0,0.0,4.5163,4.5163,4.5701,4.5893,4.5633,4.5594,4.624,4.7625,4.7971,4.8933,5.0673,5.0125,4.9971,5.024,5.1125,5.5434,6.3012,6.7513,7.2052,7.6399,7.5822,7.6361,7.713,6.8667,6.4243,6.2589,5.8319,5.8319,6.0666,5.8973,6.005,6.2127,5.8973,5.7511,5.6857,5.5703,5.401,5.2154,5.1048,4.9125,4.7048,4.5941,4.5438,4.5576,4.7102,4.7953,4.9851,5.5822,5.8332,6.0903,6.6759,6.9522,7.1505,7.367,7.5175,7.635,7.7127,7.7053,7.698,7.7237,7.7273,7.7273,7.7273,7.7053,7.69,7.69,7.6203,7.5689,7.5689,7.4735,7.3891,7.334,7.2312,7.1211,7.0146,6.9853,6.9082,6.7724,6.8201,6.8238,6.7714,6.7687,6.7687,6.7714,6.8788,6.9155,6.8972,7.0844,7.1541,7.1329,7.2165,7.2496,7.2496,7.2496,7.2496,7.2496,7.2496,7.2496,7.2496,7.2496,7.2496,7.2496,0.0,0.0,0.0,0.0,0.0,0.0,0.0,0.0,4.4701,4.5556,0.0,0.0,0.0,0.0,0.0,4.7077,4.7038,4.6624,4.5748,4.5633,4.597,4.6846,4.7663,4.8933,5.0673,5.0712,5.1087,5.1846,5.2741,5.6165,6.1947,6.5333,7.0514,7.6707,7.186,7.286,7.7938,7.4514,7.2706,7.1437,6.3858,6.2935,6.6282,6.7782,6.9436,7.0591,6.809,6.6167,6.4012,5.9023,5.5665,5.3241,5.1395,4.8442,4.5671,4.5633,4.5671,4.5618,0.0,0.0,0.0,5.3532,5.4761,5.6755,6.4437,6.5595,6.6476,7.1284,7.2936,7.4258,7.665,7.6497,7.624,7.7017,7.72,7.7237,7.7237,7.657,7.6056,7.6056,7.5322,7.4845,7.4845,7.3377,7.2422,7.2422,7.0954,7.0073,7.0073,6.9302,6.8495,6.7724,6.7687,6.7687,6.7687,6.7687,6.7687,6.7687,6.7724,6.8128,6.8935,6.9743,7.055,7.1329,7.2165,7.2496,7.2496,7.2496,7.2496,7.2496,7.2496,7.2496,7.2496,7.2496,7.2496,7.2496,0.0,0.0,0.0,0.0,0.0,0.0,4.7394,4.7201,4.7124,0.0,0.0,0.0,4.7778,4.9423,5.0769,5.1395,5.0356,4.9009,4.7509,4.6278,4.597,4.6846,4.7663,4.8933,5.0673,5.0712,5.0827,5.101,5.1856,5.3741,5.6703,6.0666,6.4551,6.8167,6.9244,6.9898,6.9937,6.532,6.609,6.9821,6.3397,6.5051,7.1129,6.8475,6.9283,7.1668,7.0321,6.9552,6.8744,6.6128,6.3974,6.1358,5.5318,5.0664,4.7278,4.6701,4.6932,0.0,4.658,0.0,0.0,0.0,0.0,0.0,5.7085,5.9108,6.141,6.6292,6.8385,7.011,7.2504,7.3266,7.356,7.378,7.4808,7.5549,7.5549,7.5395,7.5249,7.5249,7.4001,7.3156,7.3156,7.1725,7.077,7.077,6.9816,6.9229,6.9229,6.8458,6.7907,6.7714,6.7687,6.7687,6.7687,6.7687,6.7687,6.7714,6.8274,6.8678,6.8972,7.0367,7.1101,7.1329,7.2165,7.2496,7.2496,7.2496,7.2496,7.2496,7.2496,7.2496,7.2496,7.2496,7.2496,7.2496,0.0,0.0,0.0,0.0,0.0,0.0,5.0164,5.024,5.0087,0.0,0.0,0.0,5.0202,5.3472,5.5126,5.3857,5.251,5.101,4.9317,4.7278,4.6663,4.7894,4.8048,4.924,5.1702,5.1395,5.1395,5.1741,5.1856,5.2423,5.3472,5.6665,5.9319,6.1512,6.3128,6.4089,6.4128,5.9011,6.1435,6.8398,6.5974,6.8821,7.4399,7.2937,7.4284,7.6823,7.5976,7.5668,7.513,7.1706,6.7975,6.3474,5.5818,0.0,0.0,4.8509,0.0,0.0,0.0,0.0,0.0,0.0,0.0,0.0,5.4522,5.5084,5.6049,6.0774,6.3025,6.5007,6.7797,6.8972,6.9633,6.9926,7.1064,7.2496,7.4147,7.4404,7.4258,7.3964,7.2789,7.1872,7.1541,7.0367,6.9596,6.9596,6.8862,6.8385,6.8385,6.7944,6.754,6.721,6.7504,6.754,6.7173,6.7504,6.7687,6.7714,6.8164,6.8752,6.9449,7.0367,7.1174,7.1835,7.2312,7.2496,7.2496,7.2496,7.2496,7.2496,7.2496,7.2496,7.2496,7.2496,7.2496,7.2496,0.0,0.0,0.0,0.0,0.0,5.2654,5.3626,5.3664,5.3472,0.0,5.2356,5.2702,5.4664,5.8665,5.9704,5.5934,5.4472,5.2972,5.1097,4.8586,4.7817,4.9202,4.8702,4.9856,5.301,5.2385,5.2462,5.3356,5.2385,5.2,5.2231,5.3587,5.5088,5.6676,5.5895,5.7203,5.9704,5.5934,5.905,6.6744,6.9206,7.2822,7.6938,7.9131,8.1593,8.3785,8.3016,8.267,8.1708,7.5976,6.9513,6.2615,0.0,0.0,0.0,0.0,5.101,0.0,0.0,0.0,0.0,0.0,5.278,0.0,5.4627,5.2881,5.1583,5.5527,5.7551,5.9585,6.283,6.409,6.4861,6.5558,6.6512,6.8568,7.2606,7.323,7.301,7.2312,7.1541,7.077,7.0036,6.9155,6.8678,6.8752,6.8091,6.765,6.7577,6.7577,6.7173,6.6402,6.7136,6.721,6.6512,6.7283,6.7687,6.7687,6.7687,6.8531,7.011,7.011,7.0991,7.2496,7.2496,7.2496,7.2496,7.2496,7.2496,7.2496,7.2496,7.2496,7.2496,7.2496,7.2496,7.2496,0.0,0.0,0.0,0.0,0.0,0.0,5.7049,5.6703,5.6934,5.8819,5.955,6.1281,6.5051,6.4474,6.3512,6.2704,5.9358,5.6011,5.2895,5.0317,4.874,4.8355,4.951,5.0818,5.2115,5.2654,5.3356,5.4241,5.2654,5.2615,5.3972,5.2895,5.3318,5.4972,5.4818,5.4703,5.4972,5.9435,6.2012,6.3255,6.5089,7.1937,8.1054,8.09,8.2824,8.5593,8.544,8.4939,8.3708,7.9092,7.3014,6.6782,0.0,0.0,0.0,5.3895,0.0,0.0,0.0,0.0,0.0,0.0,0.0,0.0,5.1961,5.2015,5.2876,5.3256,5.4143,5.5747,5.8653,5.9869,6.0432,6.0579,6.2401,6.5191,6.9265,7.0403,7.0734,7.0587,6.9853,6.9302,6.9155,6.7834,6.7247,6.7871,6.7797,6.7393,6.6769,6.6733,6.6366,6.5558,6.6329,6.6659,6.6512,6.7283,6.7687,6.7687,6.7687,6.8531,7.011,7.011,7.0991,7.2496,7.2496,7.2496,7.2496,7.2496,7.2496,7.2496,7.2496,7.2496,7.2496,7.2496,7.2496,7.2496,0.0,0.0,0.0,0.0,0.0,0.0,6.105,6.105,6.155,6.3666,6.582,6.7128,6.7167,6.7513,6.6705,6.4166,6.1243,0.0,0.0,0.0,5.0471,5.0,5.0433,5.1471,5.3164,5.3203,5.3626,5.4511,5.2731,5.2125,5.2587,5.2125,5.2164,5.2626,5.3472,5.3857,5.4087,5.7473,6.0627,6.3743,6.8398,7.4591,8.117,8.2016,8.417,8.6709,8.6247,8.5286,8.3324,7.7361,7.3937,0.0,6.4205,6.1743,6.0819,0.0,5.728,5.7357,0.0,0.0,0.0,5.7203,0.0,0.0,0.0,5.217,5.1357,5.2151,5.1476,5.1582,5.4249,5.4886,5.5405,5.6602,5.818,6.0639,6.4677,6.6659,6.7724,6.7724,6.7357,6.6953,6.6549,6.6145,6.6072,6.6476,6.6512,6.6329,6.5925,6.5888,6.5521,6.4714,6.5485,6.5888,6.5888,6.6696,6.7283,6.7687,6.7687,6.8531,7.011,7.011,7.0991,7.2496,7.2496,7.2496,7.2496,7.2496,7.2496,7.2496,7.2496,7.2496,7.2496,7.2496,7.2496,7.2496,5.2972,0.0,0.0,0.0,5.9319,0.0,0.0,0.0,6.5397,6.7552,7.0514,7.1398,6.8629,7.0014,6.9744,6.632,6.282,0.0,5.883,5.4741,5.2231,5.1923,5.1587,5.2164,5.3741,5.3549,5.3703,5.4241,5.2654,5.1664,5.1202,5.151,5.1587,5.1481,5.2164,5.3587,5.5434,5.5126,5.9165,6.6397,7.3053,7.6976,7.9169,8.2362,8.4863,8.6632,8.6247,8.5132,8.2785,7.5976,7.4707,7.4361,6.4936,6.432,0.0,0.0,0.0,0.0,0.0,0.0,0.0,0.0,0.0,5.6698,0.0,0.0,0.0,5.1347,4.977,4.8898,5.0864,5.0749,5.0949,5.2894,5.4289,5.6198,5.9318,6.1887,6.3796,6.4714,6.442,6.4053,6.387,6.431,6.4604,6.4604,6.4751,6.4824,6.4824,6.5007,6.4677,6.387,6.464,6.5154,6.5301,6.6109,6.688,6.7687,6.7687,6.8531,7.011,7.011,7.0991,7.2496,7.2496,7.2496,7.2496,7.2496,7.2496,7.2496,7.2496,7.2496,7.2496,7.2496,7.2496,7.2496,5.2192,5.3433,0.0,0.0,5.8627,0.0,0.0,0.0,6.6013,6.9937,7.2168,7.4322,7.6784,7.4053,7.3053,7.5515,6.6551,6.1973,6.4705,5.8165,0.0,5.1962,5.328,5.3164,5.1174,5.3241,5.401,5.3356,5.2385,5.2231,5.2895,5.1471,5.1972,5.3933,5.1087,5.3203,5.8819,5.7368,6.1935,7.0475,7.3591,7.5014,7.5899,8.1477,8.3785,8.4209,8.5593,8.5517,8.417,8.0246,7.763,7.5399,0.0,6.9052,6.6974,6.6397,0.0,0.0,0.0,0.0,0.0,0.0,6.3243,0.0,5.443,0.0,5.5696,5.0276,0.0,5.0394,5.0288,0.0,0.0,0.0,5.1499,5.3371,5.3115,5.517,5.829,6.2585,6.1202,6.0689,6.2768,6.2401,6.1998,6.1998,6.2695,6.3074,6.3074,6.3833,6.3833,6.2989,6.3796,6.4567,6.5301,6.6109,6.688,6.7687,6.7687,6.8531,7.011,7.011,7.0991,7.2496,7.2496,7.2496,7.2496,7.2496,7.2496,7.2496,7.2496,7.2496,7.2496,7.2496,7.2496,7.2496,5.1962,5.3664,0.0,0.0,5.805,0.0,0.0,6.8321,7.2245,7.3014,7.6322,7.8977,7.99,7.7515,7.6245,7.7207,7.1706,6.7705,6.6667,6.2204,0.0,5.7857,5.7088,5.6434,5.5818,5.5395,5.5011,5.4664,5.3318,5.2856,5.3164,5.2472,5.2972,5.4472,5.3472,5.6011,6.0973,6.0742,6.3782,6.9013,7.2591,7.3399,7.336,8.1323,8.4362,8.4324,8.4016,8.367,8.267,7.7784,7.6746,0.0,0.0,0.0,0.0,6.8282,0.0,0.0,0.0,0.0,0.0,0.0,0.0,0.0,5.6819,0.0,5.5478,0.0,0.0,0.0,0.0,0.0,0.0,0.0,4.9806,5.0841,5.1246,5.0949,5.2637,5.7997,5.7336,5.7005,5.8474,5.9171,5.9098,5.818,5.9722,6.0529,6.0052,6.1704,6.2475,6.2108,6.2915,6.398,6.5301,6.5632,6.6439,6.7687,6.7687,6.8531,7.0073,6.9633,7.055,7.2459,7.2018,7.2092,7.2496,7.2496,7.2496,7.2496,7.2496,7.2496,7.2496,7.2496,7.2496,7.2496,5.2577,0.0,5.5626,5.6483,5.7742,6.0127,6.4589,7.0321,7.4399,7.4976,7.8284,8.1054,8.2324,8.0516,7.9823,8.1323,7.7207,7.3399,7.0744,6.6898,6.382,6.1831,6.0396,5.9281,5.8473,5.7126,5.6049,5.5357,5.3895,5.3549,5.4241,5.378,5.4511,5.6242,5.6588,5.9511,6.4166,6.4282,6.6898,7.1168,7.3822,7.4822,7.5399,8.1246,8.3939,8.4362,8.2824,8.2285,8.1593,7.6823,7.6823,7.7938,7.2783,7.2129,7.2783,0.0,0.0,0.0,6.7552,0.0,0.0,0.0,0.0,0.0,0.0,0.0,0.0,0.0,0.0,0.0,0.0,0.0,0.0,0.0,0.0,4.9705,0.0,4.8493,4.9224,5.4032,5.4656,5.5023,5.5831,5.6602,5.6528,5.5354,5.6492,5.7262,5.7336,5.9428,6.0896,6.1557,6.2622,6.387,6.5301,6.5521,6.6329,6.7687,6.7687,6.8421,6.9743,6.9192,7.0,7.1835,7.1468,7.1651,7.2202,7.2422,7.2496,7.2496,7.2496,7.2496,7.2496,7.2496,7.2496,7.2496,5.4241,5.4472,5.478,5.5588,5.778,6.1166,6.6244,6.659,6.859,7.5091,7.6092,7.8707,8.5247,8.2978,8.3978,9.1364,8.2901,7.7823,7.9323,7.2399,6.6013,6.105,6.232,6.0858,5.5934,5.7396,5.7011,5.4549,5.3626,5.4472,5.683,5.5203,5.6665,6.055,5.9742,6.3128,6.936,6.7667,7.2283,8.0516,7.8938,8.0785,8.4132,8.1131,8.1477,8.3516,8.2631,8.2285,8.2016,8.0208,7.9669,7.9592,7.8515,7.713,0.0,0.0,0.0,0.0,0.0,0.0,0.0,6.6051,0.0,0.0,0.0,0.0,6.0677,0.0,0.0,0.0,0.0,0.0,0.0,0.0,0.0,0.0,0.0,0.0,4.9224,5.1793,5.4142,5.5868,5.6675,5.539,5.4473,5.4436,5.3078,5.3225,5.5559,5.7226,5.9171,6.152,6.3209,6.4457,6.5301,6.6072,6.688,6.7687,6.7687,6.8128,6.8935,6.8898,6.9376,7.022,7.0991,7.1293,7.1431,7.2202,7.2496,7.2496,7.2496,7.2496,7.2496,7.2496,7.2496,7.2496,5.6857,5.7011,5.6742,5.5857,5.6896,5.9935,6.6128,7.0206,7.5014,8.1785,8.417,8.7786,9.4634,9.3326,9.2979,9.5595,9.0633,8.6401,8.4132,7.8938,7.4938,7.2591,7.036,6.7859,6.5013,6.332,6.1204,5.8665,5.7242,5.728,5.8627,5.755,5.8973,6.2435,6.2166,6.5474,7.1398,7.1898,7.4284,7.7823,7.8938,8.2247,8.6247,8.3401,8.2477,8.2631,8.1785,8.1516,8.14,8.0862,8.0285,7.9669,7.8746,7.7361,7.5784,7.463,7.3937,7.3514,7.3437,7.3476,7.2629,6.8898,0.0,0.0,0.0,0.0,0.0,0.0,0.0,0.0,0.0,0.0,0.0,0.0,0.0,0.0,0.0,0.0,4.7052,4.9299,5.1242,5.2307,5.205,5.2013,5.1573,5.0435,5.0362,5.1169,5.3115,5.5757,5.807,5.9942,6.2108,6.3906,6.5301,6.6109,6.688,6.7687,6.7687,6.8128,6.8898,6.8348,6.8825,7.0073,6.9816,7.033,7.1293,7.1615,7.2018,7.2496,7.2496,7.2496,7.2496,7.2496,7.2826,7.3303,5.9896,5.9127,5.8127,5.7588,5.8973,6.2062,6.759,7.4014,8.0246,8.5824,8.9556,9.3941,9.9865,9.8981,9.8442,9.9673,9.6673,9.2556,8.7363,8.4747,8.1785,7.8207,7.6053,7.3707,7.1129,0.0,0.0,6.2166,6.1089,6.0973,6.1743,6.0012,6.0973,6.4282,6.5166,6.7859,7.1975,7.5476,7.763,7.89,8.1131,8.367,8.5863,8.4209,8.3439,8.3054,8.1593,8.1093,8.1093,8.1093,8.0746,8.0169,7.9592,7.8477,7.713,7.5976,7.5476,7.5245,7.5168,7.4784,7.3783,7.1245,6.8475,0.0,6.0319,0.0,6.3589,0.0,0.0,0.0,0.0,0.0,0.0,0.0,0.0,0.0,0.0,4.5858,4.6252,4.7886,4.9688,5.0692,5.0492,5.0655,4.9994,4.7993,4.7829,4.8636,5.0582,5.3482,5.6235,5.8694,6.141,6.3587,6.5301,6.6109,6.688,6.7687,6.7687,6.7944,6.8458,6.7944,6.8274,6.9229,6.9009,6.9669,7.0917,7.1211,7.1798,7.2496,7.2496,7.2496,7.2496,7.2496,7.2826,7.334,6.3281,6.1012,5.9396,6.0973,6.382,6.709,7.0591,7.7476,8.3593,8.7363,9.2249,9.7019,10.1289,10.0289,10.0596,10.3789,10.0981,9.6288,8.971,8.9825,8.6517,7.84,7.9438,7.8246,7.4091,0.0,0.0,0.0,6.4897,6.5205,6.5859,6.2474,6.2627,6.5897,6.8513,7.0167,7.136,7.8207,8.2093,8.3785,8.5363,8.5093,8.3747,8.3593,8.4093,8.4593,8.2016,8.1093,8.1093,8.1093,8.1093,8.1093,8.1093,8.0516,7.9477,7.79,7.7938,7.8169,7.6592,7.6169,7.5515,7.3053,7.1129,6.8706,0.0,0.0,6.8629,0.0,0.0,0.0,0.0,0.0,0.0,0.0,0.0,0.0,0.0,0.0,0.0,4.776,4.951,5.0932,5.172,5.1079,4.961,4.7223,4.5535,4.5682,4.8122,5.0618,5.3812,5.774,6.108,6.3587,6.5301,6.6145,6.6953,6.7687,6.7687,6.7687,6.7687,6.7687,6.7687,6.7724,6.8568,6.9376,7.0146,7.0991,7.1798,7.2496,7.2496,7.2532,7.2569,7.2606,7.2606,7.2789,6.5436,6.6551,6.7628,6.7436,6.659,6.7898,7.3783,7.8515,8.4439,9.2903,9.7904,10.2789,10.829,10.7905,10.7098,10.679,10.4713,10.1712,9.7442,9.498,9.2172,8.8748,8.6594,8.4055,8.1054,7.8938,7.5976,7.2129,6.8975,6.7205,6.6705,6.3332,6.2551,6.4128,6.7975,7.0167,7.136,7.8207,8.2439,8.4555,8.4324,8.5132,8.6132,8.3593,8.3593,8.4593,8.2016,8.1093,8.1093,8.1093,8.1093,8.1093,8.1093,8.0516,7.9708,7.9285,7.8861,7.8554,7.8784,7.8361,7.7553,7.6284,7.3745,7.0783,6.7782,6.9398,0.0,0.0,0.0,0.0,0.0,0.0,0.0,0.0,0.0,0.0,0.0,0.0,0.0,4.977,4.9123,4.8714,4.9189,4.8199,4.7144,4.6269,4.4709,4.4856,4.7259,5.0325,5.3298,5.6124,6.0493,6.3587,6.5301,6.6696,6.7504,6.7687,6.7687,6.7687,6.7687,6.7687,6.7687,6.7724,6.8568,6.9376,7.0146,7.0991,7.1798,7.2496,7.2496,7.2863,7.345,7.4074,7.3927,7.3597,6.8282,7.1706,7.4284,7.2745,7.3437,7.5476,7.9323,8.2477,8.7286,9.5249,10.0596,10.4789,10.779,10.9713,11.0214,10.8906,10.6905,10.4097,10.0289,9.8634,9.6172,9.2633,9.0979,8.8632,8.5324,8.2401,0.0,7.5284,0.0,6.8513,6.759,6.3871,6.232,6.2974,6.7244,6.959,7.086,7.8438,8.2901,8.4824,8.3939,8.4209,0.0,8.3016,8.2708,8.3054,8.1593,8.1093,8.1093,8.1093,8.1093,8.1093,8.1093,8.0746,8.0362,8.0362,8.0015,7.9746,8.0246,7.9746,7.8861,7.8015,7.6092,7.3745,7.1206,7.1745,7.1783,0.0,6.9436,6.9898,0.0,0.0,0.0,0.0,0.0,0.0,0.0,0.0,0.0,0.0,4.9552,4.8882,4.7822,4.6783,4.5818,4.491,4.4672,4.5002,4.6012,4.9848,5.2784,5.4509,5.9942,6.3466,6.4751,6.7063,6.8054,6.7687,6.7687,6.7687,6.7687,6.7687,6.7687,6.7724,6.8164,6.9045,7.0146,7.0587,7.1468,7.2496,7.2496,7.2973,7.378,7.4625,7.4625,7.4441,7.1437,7.613,7.9323,7.6784,8.1439,8.5786,8.644,8.8632,9.1979,9.698,10.2712,10.5982,10.5097,10.9021,11.1214,11.0098,10.7982,10.4982,10.0904,10.1096,9.9019,9.3557,9.3787,9.2172,8.8171,8.4593,8.0746,0.0,0.0,6.9206,6.7821,6.3782,6.1947,6.2101,6.6359,6.909,7.1014,7.8592,8.2747,8.417,8.3516,8.2862,8.2285,8.217,8.1708,8.1093,8.1093,8.1093,8.1093,8.1093,8.1093,8.1093,8.1093,8.1093,8.1093,8.1093,8.1093,8.1093,8.1093,8.0554,7.9746,7.89,7.813,7.6976,7.4553,7.4014,7.3322,7.086,7.0167,6.9244,6.6705,0.0,0.0,0.0,0.0,0.0,0.0,0.0,0.0,0.0,0.0,0.0,4.7816,4.6733,4.5473,4.371,4.4818,4.5296,4.4599,4.8967,5.1977,5.3004,5.9074,6.2989,6.4383,6.7173,6.8385,6.7981,6.7907,6.7797,6.7687,6.7797,6.7797,6.7714,6.7907,6.8788,7.011,7.033,7.1284,7.2679,7.2679,7.3193,7.4111,7.4808,7.5139,7.5432,7.4322,7.8246,8.1054,7.8515,8.4132,9.0441,9.4634,9.6903,9.9673,10.4097,10.9213,11.2099,11.1291,11.2022,11.1598,10.929,10.8713,10.6982,10.3482,10.2712,10.0981,9.7827,9.6519,9.4518,9.1672,8.7555,8.3362,0.0,0.0,6.8821,6.5205,6.2358,6.1012,6.1204,6.5436,7.0167,7.5091,7.7938,7.9746,8.0746,8.1323,8.1823,8.2247,8.1554,8.1208,8.1093,8.1093,8.1093,8.1093,8.1093,8.1093,8.1093,8.1093,8.1093,8.1093,8.1093,8.1093,8.1093,8.1093,8.0977,8.0669,7.9785,7.9477,7.89,7.7053,7.663,7.6092,7.4207,7.2706,7.0975,6.8436,0.0,0.0,0.0,0.0,0.0,0.0,0.0,0.0,0.0,0.0,5.1979,5.0735,4.8964,4.678,4.4107,4.3939,4.3864,4.3718,4.7021,4.9958,5.2123,5.7189,6.1851,6.6035,6.6623,6.7834,6.9669,6.9009,6.8348,6.7724,6.8385,6.8311,6.776,6.9082,6.9816,7.0183,7.1541,7.2642,7.3487,7.3487,7.4368,7.5689,7.5836,7.6313,7.6907,8.0708,8.3324,8.5632,8.5747,9.0979,9.6749,10.1404,10.5097,10.7098,10.6521,10.8906,11.0214,10.8906,11.1483,11.2291,10.979,10.9213,10.7713,10.4713,10.3712,10.1904,9.8942,9.8019,9.598,9.2556,8.8286,8.4247,8.0477,0.0,0.0,0.0,6.1743,5.9896,5.9665,6.3435,6.8936,7.5399,7.6207,7.7784,7.99,8.0746,8.1323,8.1631,8.1246,8.1093,8.1093,8.1093,8.1093,8.1093,8.1093,8.1093,8.1093,8.1093,8.1093,8.1093,8.1093,8.1093,8.1093,8.1093,8.1093,8.09,8.0015,7.9823,7.9361,7.7669,7.7284,7.6823,7.5053,7.4053,7.2437,6.9052,6.4589,0.0,0.0,0.0,0.0,0.0,0.0,0.0,0.0,0.0,0.0,0.0,4.9425,4.7967,4.4894,4.4727,4.4378,4.3551,4.6544,4.926,5.1316,5.6859,6.1374,6.4567,6.7504,6.8935,6.8862,6.8898,6.8495,6.7687,6.8091,6.8054,6.776,6.8972,6.9706,7.022,7.1835,7.2973,7.3707,7.3707,7.4661,7.6093,7.6093,7.6607,7.7273,8.7248,8.8979,9.1056,9.3441,9.8211,10.2789,10.6213,11.1098,11.3099,10.9098,10.9098,10.8906,10.7213,11.1214,11.2983,11.0406,10.9406,10.7905,10.5482,10.4405,10.2481,9.9442,9.8981,9.7096,9.3403,8.894,8.4632,0.0,0.0,0.0,6.4743,0.0,0.0,5.955,6.3243,6.8282,7.3976,7.5245,7.7361,7.99,8.0939,8.1362,8.1323,8.117,8.1093,8.1093,8.1093,8.1093,8.1093,8.1093,8.1093,8.1093,8.1093,8.1093,8.1093,8.1093,8.1093,8.1093,8.1093,8.1093,8.0939,8.0246,8.0092,7.9669,7.8169,7.7669,7.713,7.5553,7.4668,7.3091,6.959,6.6282,0.0,0.0,0.0,0.0,0.0,0.0,0.0,0.0,0.0,0.0,4.8779,4.9275,4.8656,4.5721,4.5667,4.5124,4.3688,4.6599,4.9077,5.0765,5.6712,6.1006,6.3319,6.7944,6.9596,6.8201,6.9045,6.8898,6.7944,6.8311,6.8348,6.8238,6.9082,6.9889,7.0734,7.2165,7.323,7.3964,7.4147,7.5102,7.635,7.635,7.6754,7.7273,9.1595,9.3903,9.6134,9.7904,10.3097,10.7098,10.7521,11.2483,11.6099,11.5599,11.5599,11.4984,11.3407,11.3714,11.2983,11.0406,10.9406,10.8213,10.6405,10.4789,10.3097,10.1096,9.9596,9.7904,9.598,9.1018,8.5247,0.0,0.0,6.8975,0.0,0.0,0.0,6.3051,6.7975,7.0591,7.1629,7.7015,7.9515,7.9939,8.1554,8.217,8.2093,8.1362,8.1093,8.1093,8.1093,8.1093,8.1093,8.1093,8.1093,8.1093,8.1093,8.1093,8.1093,8.1093,8.1093,8.1093,8.1093,8.1093,8.1093,8.1016,8.0977,8.0746,7.9785,7.8938,7.813,7.7246,7.4591,7.2052,7.0898,6.8513,6.6205,0.0,0.0,0.0,0.0,0.0,5.8896,0.0,0.0,0.0,4.9817,4.9122,4.8243,4.6344,4.5665,4.4935,4.4011,4.6725,4.9077,5.0765,5.5647,6.0419,6.5044,6.6329,6.7944,6.9889,7.0697,7.0293,6.8862,7.0293,7.0587,6.9926,7.0734,7.1541,7.2349,7.323,7.4074,7.4882,7.5579,7.6423,7.7163,7.7163,7.7237,7.7273,9.9096,9.9327,10.0596,10.4905,10.679,10.8713,11.1791,11.4676,11.6484,11.6484,11.6484,11.6099,11.4907,11.4291,11.3214,11.1214,11.0214,10.8713,10.6521,10.529,10.3597,10.1404,9.9673,9.8019,9.6326,9.2287,8.7632,0.0,0.0,0.0,0.0,0.0,6.3589,6.4205,6.7244,7.0052,7.2668,7.5515,7.763,7.9169,8.09,8.1593,8.1554,8.1208,8.1093,8.1093,8.1093,8.1093,8.1093,8.1093,8.1093,8.1093,8.1093,8.1093,8.1093,8.1093,8.1093,8.1093,8.1093,8.1093,8.1093,8.1093,8.1093,8.0862,8.0015,7.9515,7.9054,7.8169,7.613,7.4207,7.336,7.1091,6.9167,6.8475,0.0,0.0,0.0,0.0,0.0,0.0,0.0,0.0,0.0,4.8068,4.8238,4.9552,4.667,4.4824,4.4743,4.5815,4.7996,5.141,5.528,5.9391,6.3759,6.7026,6.8898,6.9412,7.0697,7.0734,6.9633,7.0293,7.066,7.0844,7.1174,7.1762,7.2569,7.3377,7.4184,7.4992,7.5799,7.6607,7.7273,7.7273,7.7273,7.7273,10.4982,10.4597,10.5597,11.1098,11.0906,11.1214,11.5099,11.5907,11.6176,11.6484,11.6292,11.5907,11.5407,11.4484,11.3407,11.2022,11.0791,10.929,10.729,10.5905,10.4212,10.2212,9.9981,0.0,9.7057,9.3672,8.9979,8.6017,8.167,0.0,0.0,6.7936,6.6244,6.6936,6.9129,7.1783,7.4745,7.6553,7.8515,8.0477,8.1439,8.1823,8.1785,8.1285,8.1093,8.1093,8.1093,8.1093,8.1093,8.1093,8.1093,8.1093,8.1093,8.1093,8.1093,8.1093,8.1093,8.1093,8.1093,8.1093,8.1093,8.1093,8.1093,8.0939,8.0323,7.9977,7.9554,7.8669,7.7169,7.5899,7.5515,7.3399,7.1514,7.0975,0.0,0.0,0.0,6.2358,0.0,0.0,5.2895,5.051,4.8663,4.774,4.827,5.0751,4.7767,4.6032,4.648,4.6483,4.8198,5.1887,5.5794,5.9685,6.3503,6.7687,6.9596,6.9265,7.0881,7.1248,7.0477,7.0697,7.1138,7.1651,7.1651,7.2129,7.2936,7.3707,7.4515,7.5322,7.613,7.6827,7.7273,7.7273,7.7273,7.7273,10.7982,10.9483,11.1406,11.5676,11.5676,11.5484,11.6407,11.5792,11.5599,11.6407,11.5792,11.5291,11.5291,11.4484,11.3599,11.2791,11.1214,10.979,10.8906,10.6482,10.4713,10.3905,10.0596,9.8788,9.875,9.5403,9.2018,8.8632,0.0,0.0,7.5861,7.3283,7.2091,7.2245,7.5668,7.7207,7.7515,8.1708,8.4016,8.4747,8.3901,8.3555,8.3401,8.1747,8.1093,8.1093,8.1093,8.1093,8.1093,8.1093,8.1093,8.1093,8.1093,8.1093,8.1093,8.1093,8.1093,8.1093,8.1093,8.1093,8.1093,8.1093,8.1093,8.1093,8.1093,8.0439,7.9554,7.8669,7.7169,7.6245,7.7092,7.5207,7.2899,7.1168,0.0,0.0,0.0,6.4012,0.0,5.7577,5.6165,5.3972,4.9779,4.8586,4.8258,4.8705,4.8668,4.8922,4.9518,4.9559,5.0308,5.194,5.7446,6.1961,6.5264,6.7687,6.9302,7.011,7.1725,7.2055,7.1293,7.2129,7.2496,7.2496,7.2496,7.2936,7.3744,7.4551,7.5359,7.6166,7.6974,7.7273,7.7273,7.7273,7.7273,7.7273,11.1906,11.3099,11.4099,11.5407,11.5907,11.5792,11.4907,11.5099,11.5176,11.4791,11.4599,11.4407,11.4407,11.3599,11.3214,11.3599,11.1483,10.979,10.8983,10.7098,10.5405,10.3982,10.1712,10.0212,9.9712,9.7442,9.4903,9.2095,9.0133,8.5863,7.9477,7.9823,7.9054,7.7515,8.0323,8.19,8.2554,8.3939,8.467,8.4824,8.3939,8.3247,8.267,8.2131,8.1593,8.1093,8.1093,8.1093,8.1093,8.1093,8.1093,8.1093,8.1093,8.1093,8.1093,8.1093,8.1093,8.1093,8.1093,8.1093,8.1093,8.1093,8.1093,8.1093,8.1093,8.09,8.0439,7.9554,7.8977,7.8477,7.8169,7.7015,7.5515,7.3783,7.2014,0.0,6.482,0.0,5.9665,5.578,5.351,5.151,4.9586,4.9702,5.0394,5.1672,5.1579,5.0971,5.0006,5.1262,5.2809,5.4384,5.9176,6.3303,6.6638,6.9215,7.0873,7.1561,7.2199,7.2386,7.2129,7.2386,7.2789,7.3303,7.3303,7.4024,7.5234,7.605,7.6532,7.6866,7.7654,7.771,7.7273,7.7273,7.7273,7.7273,11.4214,11.4907,11.5407,11.5676,11.5599,11.5291,11.4599,11.4407,11.4214,11.3984,11.3714,11.3599,11.3984,11.2983,11.2599,11.3407,11.1483,10.979,10.8983,10.729,10.5713,10.3982,10.2212,10.0904,10.0096,9.8711,9.7057,9.5134,9.2826,8.921,8.4401,8.4824,8.417,8.2708,8.4324,8.5324,8.5863,8.6209,8.6132,8.5747,8.4901,8.4016,8.3247,8.2901,8.2285,8.1554,8.1554,8.1362,8.1093,8.1093,8.1093,8.1093,8.1093,8.1093,8.1093,8.1093,8.1093,8.1093,8.1093,8.1093,8.1093,8.1093,8.1093,8.1093,8.1093,8.1093,8.0939,8.04,8.0054,7.9631,7.9092,7.8054,7.6746,7.4976,7.2552,6.9436,6.5205,0.0,5.828,0.0,0.0,5.201,5.1779,5.2856,5.3776,5.4334,5.5365,5.5166,5.3294,5.4107,5.5399,5.7012,6.1582,6.564,6.8944,7.0945,7.2197,7.2646,7.2863,7.2936,7.2973,7.3266,7.367,7.4147,7.4147,7.4976,7.6398,7.6882,7.7412,7.7941,7.844,7.8218,7.771,7.7923,7.7875,7.7651,11.4984,11.5291,11.5599,11.6292,11.5099,11.4291,11.4984,11.3714,11.2983,11.3714,11.3099,11.2906,11.3714,11.2406,11.1791,11.2599,11.1098,10.979,10.8983,10.729,10.5597,10.3982,10.2289,10.1019,10.0212,9.9404,9.8519,9.7596,9.4364,9.1902,9.021,8.8671,8.7902,8.7825,8.7825,8.7825,8.7786,8.8556,8.8363,8.7517,8.6632,8.5747,8.4901,8.4093,8.3208,8.2362,8.2324,8.1823,8.117,8.1131,8.1093,8.1093,8.1093,8.1093,8.1093,8.1093,8.1093,8.1093,8.1093,8.1093,8.1093,8.1093,8.1131,8.117,8.1093,8.1131,8.117,8.1093,8.0439,7.99,7.99,7.8515,7.6823,7.5091,7.2552,6.9321,6.5013,6.105,5.8434,5.8165,5.628,5.528,5.5895,5.755,5.8038,5.6788,5.9688,6.0677,5.8743,5.8224,5.8549,5.9811,6.4613,6.8734,7.1927,7.2671,7.3146,7.3427,7.3683,7.378,7.3817,7.4551,7.4985,7.5081,7.5081,7.5911,7.73,7.73,7.8066,7.9267,7.9267,7.8865,7.8432,7.8986,7.8816,7.8352,11.5099,11.5792,11.6099,11.5676,11.5291,11.4599,11.3483,11.2983,11.2599,11.2099,11.1906,11.1906,11.2099,11.1714,11.1598,11.1791,11.0214,10.9098,10.8906,10.6713,10.4982,10.3905,10.2904,10.1904,10.1019,10.0789,9.9981,9.8481,9.6403,9.4864,9.3787,9.3403,9.2826,9.221,9.221,9.1864,9.1248,9.0787,9.0094,8.9248,8.8402,8.7171,8.5786,8.5593,8.4593,8.3208,8.2554,8.217,8.19,8.1323,8.1093,8.1093,8.1093,8.1093,8.1093,8.1093,8.1093,8.1093,8.1093,8.1093,8.1093,8.1093,8.1554,8.1862,8.1246,8.1593,8.1823,8.1246,8.0939,8.0785,8.0785,7.9361,7.7669,7.5976,7.2476,6.8282,6.3358,6.182,5.9973,0.0,5.8665,5.9858,5.8704,6.0165,6.1065,6.0762,6.2055,6.2631,6.2144,6.5046,6.5681,6.3383,6.782,7.1271,7.3362,7.3341,7.3401,7.3664,7.4309,7.4625,7.4625,7.4808,7.5498,7.6577,7.6577,7.7654,7.9398,7.9398,7.9595,7.9888,7.9888,7.9513,7.8986,7.9152,7.9105,7.8986,11.5676,11.6176,11.6407,11.5907,11.5484,11.4791,11.3483,11.2983,11.2406,11.1598,11.1522,11.1522,11.1522,11.1522,11.1522,11.1522,10.9906,10.8906,10.8906,10.6482,10.461,10.3394,10.249,10.1476,10.0319,9.9899,9.8868,9.7188,9.627,9.5553,9.5093,9.5041,9.4749,9.4287,9.3864,9.3441,9.2979,9.2133,9.1287,9.0441,8.9594,8.8209,8.6709,8.6709,8.5632,8.4132,8.367,8.3247,8.2747,8.1939,8.1631,8.1593,8.1208,8.1093,8.1093,8.1093,8.1362,8.1631,8.1631,8.1939,8.2247,8.2247,8.2554,8.2785,8.2324,8.2285,8.217,8.1747,8.1362,8.1093,8.1093,7.9669,7.7707,7.5245,7.1629,6.7475,6.2755,6.1408,6.0473,5.9319,6.1589,6.332,6.3551,6.5474,6.6064,6.4486,6.6244,6.6859,6.5692,6.9321,7.0038,6.6962,7.1134,7.4101,7.5436,7.5102,7.4972,7.5075,7.5314,7.5469,7.5469,7.5836,7.661,7.7665,7.7665,7.8572,8.0125,8.0125,8.0296,8.0573,8.0573,8.0163,7.9642,7.9967,7.9868,7.96,11.6176,11.6407,11.6484,11.6484,11.5792,11.5099,11.4291,11.3291,11.2522,11.1791,11.1598,11.1522,11.1522,11.1598,11.1598,11.1522,11.0098,10.9213,10.8906,10.6597,10.4603,10.2973,10.1898,10.0697,9.9207,9.8149,9.6922,9.5488,9.5161,9.5048,9.5034,9.4913,9.4868,9.4829,9.41,9.3755,9.3677,9.287,9.2061,9.1325,9.0441,8.9094,8.7594,8.7594,8.6555,8.5093,8.4939,8.4439,8.367,8.2785,8.2516,8.2362,8.1708,8.1477,8.1477,8.1477,8.2054,8.2593,8.2208,8.267,8.3247,8.3362,8.3401,8.3401,8.3401,8.2939,8.2439,8.2324,8.1747,8.1246,8.1131,7.9669,7.7476,7.4399,7.0821,6.6974,6.2858,0.0,6.1204,6.3231,6.5051,6.6974,6.9129,7.1321,7.1475,6.8821,7.086,7.1475,6.9821,7.236,7.2937,7.0898,7.4322,7.6532,7.7214,7.6989,7.6783,7.6634,7.6374,7.6276,7.6313,7.698,7.7651,7.8309,7.8379,7.9058,8.0125,8.0201,8.0591,8.1093,8.1093,8.075,8.0315,8.0888,8.0733,8.0239,11.5291,11.5984,11.6484,11.6484,11.5792,11.5291,11.5099,11.3714,11.2714,11.2522,11.1906,11.1522,11.1522,11.2099,11.2214,11.1598,11.1291,11.0521,10.8983,10.7213,10.548,10.3783,10.2211,10.0999,9.9999,9.7832,9.6592,9.6328,9.4929,9.4265,9.4265,9.4246,9.4235,9.4235,9.4083,9.3995,9.3835,9.2957,9.2465,9.221,9.1364,8.9979,8.8479,8.8479,8.7401,8.5824,8.5132,8.4824,8.4555,8.367,8.3401,8.3362,8.3247,8.3208,8.3208,8.3208,8.3824,8.4016,8.1862,8.1362,8.1631,8.2324,8.2516,8.2516,8.2516,8.2978,8.317,8.2439,8.2208,8.19,8.1246,7.9669,7.7861,7.5938,7.1552,6.7154,6.3628,6.4166,6.4782,6.4436,6.959,7.3283,7.3668,7.4091,7.4707,7.563,7.3514,7.3283,7.5784,7.5707,7.5784,7.6092,7.6746,7.7011,7.6781,7.7417,7.7192,7.6191,7.6808,7.709,7.709,7.7237,7.7651,7.8336,7.8853,7.9447,8.0144,8.0716,8.0991,8.1093,8.1093,8.1045,8.0959,8.1061,8.1007,8.0959,11.5215,11.5907,11.6484,11.6484,11.6176,11.5599,11.4714,11.3907,11.3099,11.2214,11.1714,11.1714,11.2099,11.2099,11.2099,11.2099,11.1308,11.0123,10.8399,10.7121,10.5706,10.4011,10.1886,9.9821,9.7717,9.6551,9.5537,9.4677,9.4304,9.392,9.3537,9.3907,9.4102,9.4102,9.4102,9.4065,9.3934,9.2607,9.2043,9.1918,9.0584,8.9537,8.8806,8.8806,8.798,8.6748,8.6363,8.594,8.544,8.4593,8.4593,8.4863,8.4439,8.4286,8.4286,8.4286,8.4593,8.4747,8.3978,8.3478,8.3247,8.3593,8.3362,8.3131,8.3593,8.3632,8.3632,8.3708,8.2939,8.217,8.1823,7.9977,7.7938,7.6284,7.1706,6.7859,6.6282,6.6359,6.709,6.8513,7.3091,7.6284,7.6707,7.7169,7.74,7.7323,7.5822,7.563,7.7207,7.6899,7.7284,7.8592,7.8669,7.8788,7.9056,7.8755,7.8326,7.7755,7.7437,7.7273,7.7304,7.7651,7.8163,7.8829,7.9425,8.0066,8.0643,8.0975,8.1093,8.1093,8.1093,8.1093,8.1093,8.1093,8.1093,8.1093,11.4885,11.5294,11.5701,11.6085,11.5888,11.5303,11.441,11.3817,11.3088,11.2209,11.1698,11.1714,11.2385,11.2214,11.2214,11.2406,11.1198,10.9795,10.8105,10.6992,10.5485,10.3474,10.1009,9.8465,9.5842,9.5621,9.4887,9.3675,9.3842,9.3627,9.3029,9.34,9.3559,9.3559,9.3559,9.3677,9.3737,9.227,9.16,9.1461,8.9989,8.9197,8.8913,8.8913,8.8384,8.7709,8.7709,8.7286,8.6594,8.5978,8.6209,8.6594,8.5978,8.5786,8.5786,8.5786,8.5632,8.5517,8.5747,8.5209,8.467,8.4863,8.4247,8.3785,8.4439,8.4247,8.3978,8.4247,8.3401,8.2477,8.2093,8.0246,7.8246,7.6553,0.0,6.9513,6.9321,6.8898,6.9706,7.2745,7.5899,7.8207,7.9015,7.9708,7.9554,7.8284,7.7977,7.7977,7.8169,7.7977,7.8554,8.0054,8.0092,8.0353,8.0871,7.9888,7.9267,7.8962,7.8007,7.742,7.7304,7.7817,7.8405,7.901,7.9621,8.0277,8.0871,8.1045,8.1093,8.1093,8.1093,8.1093,8.1093,8.1093,8.1093,8.1093,11.3795,11.348,11.3527,11.4988,11.3995,11.341,11.4877,11.3092,11.2088,11.3619,11.2421,11.1506,11.161,11.2906,11.3214,11.1714,11.139,11.0584,10.8982,10.7312,10.4977,10.1799,9.929,9.7527,9.665,9.5878,9.5437,9.5327,9.3896,9.3162,9.3088,9.2315,9.1983,9.1983,9.1983,9.2399,9.3008,9.2082,9.1649,9.1499,9.0567,8.969,8.8913,8.8913,8.8767,8.8594,8.8594,8.8556,8.8479,8.844,8.844,8.8479,8.844,8.8402,8.8402,8.8402,8.7863,8.6901,8.5401,8.4362,8.3901,8.4709,8.4247,8.3593,8.367,8.4286,8.4362,8.2824,8.3016,8.3016,8.1477,8.04,7.9169,7.7476,7.4899,7.286,7.2014,7.2552,7.3707,7.5515,7.8015,7.9977,8.0823,8.0977,8.0939,8.0823,8.0054,7.9977,8.0785,8.0054,8.0054,8.0977,8.1016,8.0745,8.0182,8.0105,7.9469,7.8389,7.8282,7.7903,7.7273,7.7335,7.7739,7.8379,7.8986,7.96,8.022,8.0855,8.1093,8.1093,8.1093,8.1093,8.1093,8.1093,8.1093,8.1093,11.2921,11.2489,11.2296,11.3403,11.2623,11.1922,11.2122,11.1267,11.0694,11.0798,11.0283,11.0081,11.0626,11.0806,11.0806,11.0692,10.9686,10.8375,10.6682,10.5496,10.3608,10.0905,9.9383,9.8022,9.6722,9.6392,9.6025,9.5511,9.441,9.3602,9.3088,9.2207,9.1803,9.1803,9.1803,9.1983,9.219,9.1378,9.0698,9.0175,8.9321,8.8772,8.8404,8.8404,8.8601,8.8824,8.8824,8.8767,8.8709,8.8709,8.9017,8.944,8.944,8.944,8.9363,8.8863,8.8479,8.8055,8.744,8.5863,8.4478,8.4824,8.4247,8.3643,8.377,8.404,8.4136,8.3603,8.3655,8.3581,8.2969,8.2011,8.1131,8.0516,7.74,7.5284,7.6015,7.5172,7.5244,7.7293,7.9007,8.0281,8.1023,8.1093,8.1093,8.1093,8.0785,8.0746,8.1093,8.0785,8.0746,8.1093,8.1093,8.0975,8.0733,8.0315,7.9868,7.9403,7.8653,7.8352,7.8473,7.8473,7.8816,7.9447,8.0086,8.0519,8.0733,8.0991,8.1093,8.1093,8.1093,8.1093,8.1093,8.1093,8.1093,8.1093,11.1612,11.1003,11.049,11.1584,11.0926,11.0183,11.0197,10.969,10.9425,10.9281,10.9119,10.909,10.9723,10.9496,10.9383,10.9793,10.8391,10.6883,10.5281,10.3672,10.1997,10.0387,9.9274,9.8227,9.7089,9.6832,9.6428,9.5878,9.4813,9.4006,9.3455,9.2317,9.1803,9.1803,9.1803,9.1803,9.1767,9.1216,9.0372,8.9345,8.9087,8.8753,8.8479,8.8479,8.8999,8.971,8.9686,8.9623,8.9572,8.9811,9.0094,9.0325,9.0325,9.0325,9.0171,8.9325,8.9094,8.9017,8.8748,8.7401,8.6017,8.5747,8.5016,8.4357,8.4231,8.4249,8.4178,8.3802,8.3626,8.3514,8.3248,8.2605,8.1994,8.1726,7.9438,7.8015,7.8971,7.7911,7.7569,7.8953,7.9915,8.0564,8.0788,8.0975,8.1093,8.1093,8.1093,8.1093,8.1093,8.1093,8.1093,8.1093,8.1093,8.1093,8.1093,8.0643,8.0315,8.0105,7.9244,7.8962,7.9198,7.9198,7.9535,8.0144,8.0591,8.0888,8.1093,8.1093,8.1093,8.1093,8.1093,8.1093,8.1131,8.1362,8.1477,8.1516,10.9787,10.8796,10.8112,10.9827,10.8668,10.8229,10.9786,10.8705,10.8231,10.9909,10.94,10.8889,10.8878,10.9685,10.9798,10.8974,10.8094,10.6883,10.5281,10.2085,10.0283,10.0283,9.8741,9.7897,9.7897,9.7126,9.6685,9.6685,9.507,9.4299,9.4226,9.2574,9.1803,9.1803,9.1803,9.1803,9.1803,9.1803,9.0886,8.9455,9.0298,9.0086,8.9305,8.9305,9.0197,9.1488,9.1415,9.1391,9.1517,9.2276,9.1941,9.121,9.121,9.121,9.1018,9.0171,8.994,8.9748,8.894,8.8709,8.8517,8.7632,8.6748,8.5901,8.5115,8.5015,8.4642,8.2965,8.2763,8.2659,8.1767,8.1616,8.1353,8.0537,8.0932,8.1102,8.0481,8.0932,8.1064,8.0467,8.0937,8.0963,8.0182,8.0716,8.1093,8.1093,8.1093,8.1093,8.1093,8.1093,8.1093,8.1093,8.1093,8.1093,8.1093,8.1093,8.0767,8.0125,8.0125,7.9806,7.9221,7.9221,7.9535,8.0125,8.0125,8.0481,8.1093,8.1093,8.1093,8.1093,8.1093,8.1093,8.1208,8.2016,8.2324,8.2439,10.893,10.7883,10.7095,10.8205,10.751,10.6906,10.7386,10.7105,10.6885,10.7496,10.7297,10.7106,10.7092,10.739,10.739,10.7205,10.6297,10.5214,10.3591,10.151,10.0576,10.109,9.9035,9.7897,9.7897,9.7126,9.6428,9.5878,9.4813,9.4006,9.3418,9.2317,9.1803,9.1803,9.1803,9.1803,9.1803,9.1803,9.1216,9.0262,9.0519,9.011,8.9359,8.9359,8.9929,9.079,9.0792,9.1381,9.229,9.2525,9.2718,9.2864,9.2287,9.171,9.1171,9.0902,9.1248,9.1556,9.0671,9.0441,9.0094,8.8671,8.8132,8.7739,8.7026,8.6491,8.5874,8.4903,8.4721,8.4517,8.3695,8.4399,8.4469,8.247,8.2765,8.2775,8.1414,8.1019,8.0744,8.0448,8.056,8.051,8.0162,8.0716,8.1093,8.1093,8.1093,8.1093,8.1093,8.1093,8.1362,8.19,8.14,8.1362,8.1939,8.1362,8.0991,8.0822,8.0333,8.0259,8.0537,8.0066,8.0182,8.0783,8.0783,8.0943,8.1093,8.1093,8.1439,8.1939,8.1939,8.2324,8.2862,8.3131,8.3208,8.3247,10.8564,10.8012,10.7404,10.763,10.7477,10.711,10.6486,10.667,10.678,10.6413,10.6376,10.6376,10.6376,10.6376,10.6376,10.6376,10.5311,10.41,10.2815,10.0907,10.0209,10.098,9.8704,9.7713,9.8374,9.7273,9.6318,9.5511,9.4703,9.3896,9.3088,9.2207,9.1803,9.1803,9.1803,9.1803,9.1803,9.1803,9.1326,9.0629,9.0959,9.0592,8.9895,8.9895,9.0322,9.098,9.0966,9.1706,9.2741,9.3038,9.3152,9.3133,9.2633,9.1902,9.121,9.121,9.1556,9.1864,9.1325,9.121,9.1056,9.0364,8.944,8.8602,8.8213,8.7315,8.6491,8.6104,8.5581,8.509,8.454,8.5195,8.5329,8.3835,8.3944,8.3763,8.2491,8.1941,8.1429,8.0709,8.0563,8.0367,7.9902,8.0392,8.0783,8.1077,8.1093,8.1093,8.1093,8.1093,8.1323,8.1823,8.167,8.1823,8.2285,8.217,8.1747,8.1093,8.0698,8.0716,8.1077,8.066,8.0886,8.1554,8.1246,8.1477,8.2054,8.1362,8.1785,8.2785,8.2439,8.2824,8.3632,8.3978,8.4093,8.417,10.8799,10.8799,10.8578,10.7771,10.8285,10.8285,10.6706,10.7183,10.7367,10.6486,10.6486,10.6486,10.6376,10.6376,10.6376,10.6376,10.4908,10.3586,10.2815,10.0503,9.9548,10.0283,9.8043,9.7493,9.8961,9.7493,9.6318,9.5511,9.4703,9.3896,9.3088,9.2207,9.1803,9.1803,9.1803,9.1803,9.1803,9.1803,9.1363,9.0776,9.151,9.1363,9.0702,9.0702,9.1179,9.1765,9.1742,9.2196,9.2932,9.375,9.342,9.271,9.2633,9.2018,9.1287,9.121,9.1248,9.1287,9.121,9.1325,9.1595,9.2326,9.0825,8.9133,8.9042,8.7993,8.7021,8.697,8.5909,8.4976,8.4829,8.4866,8.4866,8.4646,8.4521,8.4181,8.3496,8.322,8.2616,8.1181,8.0911,8.0516,7.966,7.994,8.0392,8.0987,8.0981,8.0981,8.1135,8.1096,8.1135,8.125,8.1903,8.2287,8.2364,8.3127,8.2792,8.1323,8.1323,8.1323,8.1323,8.1323,8.1708,8.2362,8.1631,8.217,8.3478,8.1862,8.2208,8.3632,8.2747,8.2978,8.3901,8.4709,8.5016,8.5093,10.8799,10.8799,10.8688,10.8578,10.8688,10.8505,10.7477,10.7991,10.7991,10.6596,10.689,10.7073,10.6486,10.6376,10.6376,10.6376,10.4908,10.3586,10.2815,10.1017,10.0099,10.0283,9.8594,9.7787,9.8154,9.7199,9.6318,9.5511,9.4703,9.3896,9.3088,9.2207,9.1803,9.1803,9.1803,9.1803,9.1803,9.1803,9.1693,9.1546,9.173,9.1693,9.1546,9.1546,9.1657,9.1803,9.1798,9.2306,9.3185,9.4464,9.4704,9.4326,9.3672,9.2864,9.2095,9.1402,9.1672,9.2056,9.1402,9.2172,9.3056,9.2595,9.2556,9.2466,9.1883,9.1098,9.0357,8.9772,8.8988,8.7986,8.6738,8.6995,8.6811,8.4903,8.4592,8.4293,8.3508,8.2826,8.2081,8.1117,8.1363,8.1308,8.0516,8.038,8.0409,8.052,7.9957,8.0147,8.1429,8.0883,8.1148,8.2475,8.202,8.2096,8.274,8.281,8.2889,8.3054,8.3054,8.3054,8.3054,8.3054,8.3131,8.3324,8.3131,8.3247,8.3516,8.2477,8.3054,8.4516,8.367,8.4247,8.5593,8.5786,8.5863,8.5786,10.99,10.99,10.979,10.9386,10.9679,10.9496,10.8395,10.8872,10.8799,10.7183,10.7294,10.7294,10.6486,10.6376,10.6192,10.5789,10.5018,10.41,10.3293,10.1788,10.0907,10.0907,9.8961,9.7897,9.7897,9.7126,9.6318,9.5511,9.4703,9.3896,9.3088,9.2207,9.1803,9.1803,9.1803,9.1803,9.1803,9.1803,9.1803,9.1803,9.1803,9.1803,9.1803,9.1803,9.1803,9.1803,9.1803,9.2566,9.3735,9.5212,9.5405,9.4903,9.4441,9.3749,9.2903,9.2056,9.2402,9.2903,9.2056,9.2749,9.371,9.3672,9.4018,9.4004,9.2881,9.2063,9.1394,9.0652,8.9928,8.905,8.7802,8.7912,8.7655,8.6004,8.5416,8.4903,8.4095,8.3287,8.248,8.1672,8.1501,8.1267,8.0758,8.0619,8.0656,8.0938,8.0608,8.0698,8.1565,8.1188,8.1377,8.2244,8.2244,8.2457,8.2909,8.3203,8.3536,8.3864,8.37,8.3593,8.3593,8.3593,8.3824,8.4209,8.3785,8.4055,8.4709,8.3439,8.3708,8.4824,8.3939,8.4401,8.5517,8.5517,8.5786,8.6055,11.1221,11.1221,11.1001,11.0304,11.0781,11.0707,10.9202,10.9679,10.9606,10.7991,10.7771,10.7477,10.6706,10.6486,10.6082,10.5422,10.5091,10.4614,10.3917,10.2375,10.1384,10.1274,9.9365,9.8154,9.7897,9.7236,9.6502,9.5731,9.4887,9.4079,9.3308,9.2427,9.195,9.1803,9.1803,9.1803,9.1803,9.1803,9.1803,9.1803,9.1803,9.1803,9.1803,9.1803,9.1803,9.1803,9.1803,9.2756,9.4319,9.5678,9.5713,9.5172,9.4864,9.4364,9.371,9.2787,9.2979,9.3364,9.2864,9.3172,9.3885,9.4618,9.4926,9.4616,9.3045,9.2342,9.178,9.0875,9.027,8.9564,8.8757,8.85,8.8133,8.7362,8.6407,8.5563,8.4903,8.4132,8.3361,8.27,8.1893,8.1229,8.0819,8.0765,8.0982,8.1431,8.1369,8.1407,8.1707,8.1557,8.1557,8.1707,8.2409,8.2784,8.2784,8.3615,8.4029,8.4029,8.3808,8.3756,8.3879,8.3984,8.4401,8.5055,8.4324,8.4824,8.5978,8.4439,8.4324,8.5016,8.417,8.4362,8.5132,8.5132,8.5517,8.6094,11.1221,11.1221,11.1221,11.1111,11.1111,11.0891,10.9973,11.0487,11.0487,10.8799,10.8615,10.8285,10.7477,10.678,10.6376,10.6192,10.4908,10.399,10.388,10.2375,10.12,10.0503,10.0099,9.9328,9.7933,9.7787,9.7346,9.6539,9.5731,9.4923,9.4116,9.3308,9.2537,9.1803,9.1803,9.1803,9.1803,9.1803,9.1803,9.1803,9.1803,9.1803,9.1803,9.1803,9.1803,9.1803,9.1803,9.2756,9.4238,9.5072,9.5685,9.5865,9.4364,9.4287,9.4518,9.2941,9.2595,9.2787,9.3364,9.3633,9.3754,9.3982,9.4615,9.4772,9.3289,9.3368,9.3368,9.1895,9.1509,9.1216,9.0408,8.9711,8.8977,8.8169,8.6775,8.5747,8.5637,8.4939,8.4389,8.4278,8.3581,8.2513,8.1098,8.0951,8.0982,8.107,8.0438,8.0659,8.2029,8.1439,8.1402,8.2102,8.2244,8.2318,8.2318,8.2979,8.3359,8.3322,8.3853,8.4392,8.4937,8.5483,8.5824,8.594,8.5824,8.5901,8.6017,8.5093,8.5209,8.5863,8.5055,8.5209,8.594,8.594,8.6017,8.6094,11.1221,11.1221,11.1221,11.1221,11.1221,11.1111,11.0707,11.1001,11.0817,10.9606,10.9496,10.8982,10.7697,10.689,10.6376,10.6376,10.5311,10.4614,10.4614,10.3109,10.2008,10.1714,10.0796,9.9769,9.8594,9.8117,9.7493,9.6685,9.5914,9.5107,9.4263,9.3492,9.2648,9.1803,9.1803,9.1803,9.1803,9.1803,9.1803,9.1803,9.1803,9.1803,9.1803,9.1803,9.1803,9.1839,9.2296,9.3171,9.4211,9.4939,9.57,9.6172,9.5403,9.5403,9.548,9.4249,9.4249,9.4595,9.4441,9.4788,9.5041,9.4714,9.4922,9.4703,9.269,9.2523,9.2461,9.1355,9.1473,9.1436,9.0188,9.0005,8.9821,8.9014,8.7912,8.6995,8.6518,8.5783,8.4939,8.4058,8.4022,8.3434,8.1819,8.2076,8.215,8.1709,8.1342,8.1452,8.215,8.1856,8.1819,8.2186,8.2186,8.2186,8.2186,8.2497,8.2647,8.2647,8.3331,8.4154,8.5121,8.5399,8.5775,8.6094,8.6094,8.6094,8.6055,8.5709,8.5517,8.5401,8.5055,8.5132,8.5478,8.594,8.6094,8.6094]}]]